[[{"header":{"parameterUnit":"m.s-1","parameterCategory":1,"la1":31.0,"la2":29.5877,"lo1":-88.7671,"lo2":-86.6584,"dx":0.0162,"dy":0.0185,"nx":115,"ny":88,"refTime":"2023-01-02T06:00:00:Z","depth":0,"parameterNumber":2,"parameterNumberName":"U-component_of_WINDS"},"data":[0.0,0.0,0.0,0.0,0.0,0.0,0.0,0.0,0.0,0.0,0.0,0.0,0.0,0.0,0.0,0.0,0.0,0.0,0.0,0.0,0.0,0.0,0.0,0.0,0.0,0.0,0.0,0.0,0.0,0.0,0.0,0.0,0.0,0.0,0.0,0.0,0.0,0.0,0.0,0.0,0.0,0.0,0.0,0.0,0.0,0.0,0.0,0.0,0.0,0.0,0.0,0.0,0.0,0.0,0.0,0.0,0.0,0.0,0.0,0.0,0.0,0.0,0.0,0.0,0.0,0.0,0.0,0.0,0.0,0.0,0.0,0.0,0.0,0.0,0.0,0.0,0.0,0.0,0.0,0.0,0.0,0.0,0.0,0.0,0.0,0.0,0.0,0.0,0.0,0.0,0.0,0.0,0.0,0.0,0.0,0.0,0.0,0.0,0.0,0.0,0.0,0.0,0.0,0.0,0.0,0.0,0.0,0.0,0.0,0.0,0.0,0.0,0.0,0.0,0.0,0.0,0.0,0.0,0.0,0.0,0.0,0.0,0.0,0.0,0.0,0.0,0.0,0.0,0.0,0.0,0.0,0.0,0.0,0.0,0.0,0.0,0.0,0.0,0.0,0.0,0.0,0.0,0.0,0.0,0.0,0.0,0.0,0.0,0.0,0.0,0.0,0.0,0.0,0.0,0.0,0.0,0.0,0.0,0.0,0.0,0.0,0.0,0.0,0.0,0.0,0.0,0.0,0.0,0.0,0.0,0.0,0.0,0.0,0.0,0.0,0.0,0.0,0.0,0.0,0.0,0.0,0.0,0.0,0.0,0.0,0.0,0.0,0.0,0.0,0.0,0.0,0.0,0.0,0.0,0.0,0.0,0.0,0.0,0.0,0.0,0.0,0.0,0.0,0.0,0.0,0.0,0.0,0.0,0.0,0.0,0.0,0.0,0.0,0.0,0.0,0.0,0.0,0.0,0.0,0.0,0.0,0.0,0.0,0.0,0.0,0.0,0.0,0.0,0.0,0.0,0.0,0.0,0.0,0.0,0.0,0.0,0.0,0.0,0.0,0.0,0.0,0.0,0.0,0.0,0.0,0.0,0.0,0.0,0.0,0.0,0.0,0.0,0.0,0.0,0.0,0.0,0.0,0.0,0.0,0.0,0.0,0.0,0.0,0.0,0.0,0.0,0.0,0.0,0.0,0.0,0.0,0.0,0.0,0.0,0.0,0.0,0.0,0.0,0.0,0.0,0.0,0.0,0.0,0.0,0.0,0.0,0.0,0.0,0.0,0.0,0.0,0.0,0.0,0.0,0.0,0.0,0.0,0.0,0.0,0.0,0.0,0.0,0.0,0.0,0.0,0.0,0.0,0.0,0.0,0.0,0.0,0.0,0.0,0.0,0.0,0.0,0.0,0.0,0.0,0.0,0.0,0.0,0.0,0.0,0.0,0.0,0.0,0.0,0.0,0.0,0.0,0.0,0.0,0.0,0.0,0.0,0.0,0.0,0.0,0.0,0.0,0.0,0.0,0.0,0.0,0.0,0.0,0.0,0.0,0.0,0.0,0.0,0.0,0.0,0.0,0.0,0.0,0.0,0.0,0.0,0.0,0.0,0.0,0.0,0.0,0.0,0.0,0.0,0.0,0.0,0.0,0.0,0.0,0.0,0.0,0.0,0.0,0.0,0.0,0.0,0.0,0.0,0.0,0.0,0.0,0.0,0.0,0.0,0.0,0.0,0.0,0.0,0.0,0.0,0.0,0.0,0.0,0.0,0.0,0.0,0.0,0.0,0.0,0.0,0.0,0.0,0.0,0.0,0.0,0.0,0.0,0.0,0.0,0.0,0.0,0.0,0.0,0.0,0.0,0.0,0.0,0.0,0.0,0.0,0.0,0.0,0.0,0.0,0.0,0.0,0.0,0.0,0.0,0.0,0.0,0.0,0.0,0.0,0.0,0.0,0.0,0.0,0.0,0.0,0.0,0.0,0.0,0.0,0.0,0.0,0.0,0.0,0.0,0.0,0.0,0.0,0.0,0.0,0.0,0.0,0.0,0.0,0.0,0.0,0.0,0.0,0.0,0.0,0.0,0.0,0.0,0.0,0.0,0.0,0.0,0.0,0.0,0.0,0.0,0.0,0.0,0.0,0.0,0.0,0.0,0.0,0.0,0.0,0.0,0.0,0.0,0.0,0.0,0.0,0.0,0.0,0.0,0.0,0.0,0.0,0.0,0.0,0.0,0.0,0.0,0.0,0.0,0.0,0.0,0.0,0.0,0.0,0.0,0.0,0.0,0.0,0.0,0.0,0.0,0.0,0.0,0.0,0.0,0.0,0.0,0.0,0.0,0.0,0.0,0.0,0.0,0.0,0.0,0.0,0.0,0.0,0.0,0.0,0.0,0.0,0.0,0.0,0.0,0.0,0.0,0.0,0.0,0.0,0.0,0.0,0.0,0.0,0.0,0.0,0.0,0.0,0.0,0.0,0.0,0.0,0.0,0.0,0.0,0.0,0.0,0.0,0.0,0.0,0.0,0.0,0.0,0.0,0.0,0.0,0.0,0.0,0.0,0.0,0.0,0.0,0.0,0.0,0.0,0.0,0.0,0.0,0.0,0.0,0.0,0.0,0.0,0.0,0.0,0.0,0.0,0.0,0.0,0.0,0.0,0.0,0.0,0.0,0.0,0.0,0.0,0.0,0.0,0.0,0.0,0.0,0.0,0.0,0.0,0.0,0.0,0.0,0.0,0.0,0.0,0.0,0.0,0.0,0.0,0.0,0.0,0.0,0.0,0.0,0.0,0.0,0.0,0.0,0.0,0.0,0.0,0.0,0.0,0.0,0.0,0.0,0.0,0.0,0.0,0.0,0.0,0.0,0.0,0.0,0.0,0.0,0.0,0.0,0.0,0.0,0.0,0.0,0.0,0.0,0.0,0.0,0.0,0.0,0.0,0.0,0.0,0.0,0.0,0.0,0.0,0.0,0.0,0.0,0.0,0.0,0.0,0.0,0.0,0.0,0.0,0.0,0.0,0.0,0.0,0.0,0.0,0.0,0.0,0.0,0.0,0.0,0.0,0.0,0.0,0.0,0.0,0.0,0.0,0.0,0.0,0.0,0.0,0.0,0.0,0.0,0.0,0.0,0.0,0.0,0.0,0.0,0.0,0.0,0.0,0.0,0.0,0.0,0.0,0.0,0.0,0.0,0.0,0.0,0.0,0.0,0.0,0.0,0.0,0.0,0.0,0.0,0.0,0.0,0.0,0.0,0.0,0.0,0.0,0.0,0.0,0.0,0.0,0.0,0.0,0.0,0.0,0.0,0.0,0.0,0.0,0.0,0.0,0.0,0.0,0.0,0.0,0.0,0.0,0.0,0.0,0.0,0.0,0.0,0.0,0.0,0.0,0.0,0.0,0.0,0.0,0.0,0.0,0.0,0.0,0.0,0.0,0.0,0.0,0.0,0.0,0.0,0.0,0.0,0.0,0.0,0.0,0.0,0.0,0.0,0.0,0.0,0.0,0.0,0.0,0.0,0.0,0.0,0.0,0.0,0.0,0.0,0.0,0.0,0.0,0.0,0.0,0.0,0.0,0.0,0.0,0.0,0.0,0.0,0.0,0.0,0.0,0.0,0.0,0.0,0.0,0.0,0.0,0.0,0.0,0.0,0.0,0.0,0.0,0.0,0.0,0.0,0.0,0.0,0.0,0.0,0.0,0.0,0.0,0.0,0.0,0.0,0.0,0.0,0.0,0.0,0.0,0.0,0.0,0.0,0.0,0.0,0.0,0.0,0.0,0.0,0.0,0.0,0.0,0.0,0.0,0.0,0.0,0.0,0.0,0.0,0.0,0.0,0.0,0.0,0.0,0.0,0.0,0.0,0.0,0.0,0.0,0.0,0.0,0.0,0.0,0.0,0.0,0.0,0.0,0.0,0.0,0.0,0.0,0.0,0.0,0.0,0.0,0.0,0.0,0.0,0.0,0.0,0.0,0.0,0.0,0.0,0.0,0.0,0.0,0.0,0.0,0.0,0.0,0.0,0.0,0.0,0.0,0.0,0.0,0.0,0.0,0.0,0.0,0.0,0.0,0.0,0.0,0.0,0.0,0.0,0.0,0.0,0.0,0.0,0.0,0.0,0.0,0.0,0.0,0.0,0.0,0.0,0.0,0.0,0.0,0.0,0.0,0.0,0.0,0.0,0.0,0.0,0.0,0.0,0.0,0.0,0.0,0.0,0.0,0.0,0.0,0.0,0.0,0.0,0.0,0.0,0.0,0.0,0.3446,0.0,0.0,0.0,0.3367,0.0,0.0,0.0,0.0,0.0,0.0,0.0,0.0,0.0,0.0,0.0,0.0,0.0,0.0,0.0,0.0,0.0,0.0,0.0,0.0,0.0,0.0,0.0,0.0,0.0,0.0,0.0,0.0,0.0,0.0,0.0,0.0,0.0,0.0,0.0,0.0,0.0,0.0,0.0,0.0,0.0,0.0,0.0,0.0,0.0,0.0,0.0,0.0,0.0,0.0,0.0,0.0,0.0,0.0,0.0,0.0,0.0,0.0,0.0,0.0,0.0,0.0,0.0,0.0,0.0,0.0,0.0,0.0,0.0,0.0,0.0,0.0,0.0,0.0,0.0,0.0,0.0,0.0,0.0,0.0,0.0,0.0,0.0,0.0,0.0,0.0,0.0,0.0,0.0,0.0,0.0,0.0,0.0,0.0,0.0,0.0,0.0,0.0,0.0,0.0,0.0,0.0,0.0,0.0,0.0,0.0,0.0,0.0,0.0,0.0,0.3827,0.3742,0.3837,0.3791,0.3575,0.0,0.0,0.0,0.0,0.0,0.0,0.0,0.0,0.0,0.0,0.0,0.0,0.0,0.0,0.0,0.0,0.0,0.0,0.0,0.0,0.0,0.0,0.0,0.0,0.0,0.0,0.0,0.0,0.0,0.0,0.0,0.0,0.0,0.0,0.0,0.0,0.0,0.0,0.0,0.0,0.0,0.0,0.0,0.0,0.0,0.0,0.0,0.0,0.0,0.0,0.0,0.0,0.0,0.0,0.0,0.0,0.0,0.0,0.0,0.0,0.0,0.0,0.0,0.0,0.0,0.0,0.0,0.0,0.0,0.0,0.0,0.0,0.0,0.0,0.0,0.0,0.0,0.0,0.0,0.0,0.0,0.0,0.0,0.0,0.0,0.0,0.0,0.0,0.0,0.0,0.0,0.0,0.0,0.0,0.0,0.0,0.0,0.0,0.0,0.0,0.0,0.0,0.0,0.0,0.0,0.0,0.0,0.0,0.0,0.0,0.0,0.0,0.4314,0.4231,0.3872,0.0,0.0,0.0,0.0,0.0,0.0,0.0,0.0,0.0,0.0,0.0,0.0,0.0,0.0,0.0,0.0,0.0,0.0,0.0,0.0,0.0,0.0,0.0,0.0,0.0,0.0,0.0,0.0,0.0,0.0,0.0,0.0,0.0,0.0,0.0,0.0,0.0,0.0,0.0,0.0,0.0,0.0,0.0,0.0,0.0,0.0,0.0,0.0,0.0,0.0,0.0,0.0,0.0,0.0,0.0,0.0,0.0,0.0,0.0,0.0,0.0,0.0,0.0,0.0,0.0,0.0,0.0,0.0,0.0,0.0,0.0,0.0,0.0,0.0,0.0,0.0,0.0,0.0,0.0,0.0,0.0,0.0,0.0,0.0,0.0,0.0,0.0,0.0,0.0,0.0,0.0,0.0,0.0,0.0,0.0,0.0,0.0,0.0,0.0,0.0,0.0,0.0,0.0,0.0,0.0,0.0,0.0,0.0,0.0,0.0,0.4649,0.4636,0.4481,0.0,0.4074,0.0,0.0,0.0,0.0,0.0,0.0,0.0,0.0,0.0,0.0,0.0,0.0,0.0,0.0,0.0,0.0,0.0,0.0,0.0,0.0,0.0,0.0,0.0,0.0,0.0,0.0,0.0,0.0,0.0,0.0,0.0,0.0,0.0,0.0,0.0,0.0,0.0,0.0,0.0,0.0,0.0,0.0,0.0,0.0,0.0,0.0,0.0,0.0,0.0,0.0,0.0,0.0,0.0,0.0,0.0,0.0,0.0,0.0,0.0,0.0,0.0,0.0,0.0,0.0,0.0,0.0,0.0,0.0,0.0,0.0,0.0,0.0,0.0,0.0,0.0,0.0,0.0,0.0,0.0,0.0,0.0,0.0,0.0,0.0,0.0,0.0,0.0,0.0,0.0,0.0,0.0,0.0,0.0,0.0,0.0,0.0,0.0,0.0,0.0,0.0,0.0,0.0,0.0,0.0,0.0,0.0,0.0,0.0,0.0,0.0,0.5127,0.5051,0.4823,0.4621,0.0,0.0,0.0,0.0,0.0,0.0,0.0,0.0,0.0,0.0,0.0,0.0,0.0,0.0,0.0,0.0,0.0,0.0,0.0,0.0,0.0,0.0,0.0,0.0,0.0,0.0,0.0,0.0,0.0,0.0,0.0,0.0,0.0,0.0,0.0,0.0,0.0,0.0,0.0,0.0,0.0,0.0,0.0,0.0,0.0,0.0,0.0,0.0,0.0,0.0,0.0,0.0,0.0,0.0,0.0,0.0,0.0,0.0,0.0,0.0,0.0,0.0,0.0,0.0,0.0,0.0,0.0,0.0,0.0,0.0,0.0,0.0,0.0,0.0,0.0,0.0,0.0,0.0,0.0,0.0,0.0,0.0,0.0,0.0,0.0,0.0,0.0,0.0,0.0,0.0,0.0,0.0,0.0,0.0,0.0,0.0,0.0,0.0,0.0,0.0,0.0,0.0,0.0,0.0,0.0,0.0,0.0,0.0,0.0,0.0,0.5483,0.5582,0.5444,0.5238,0.5016,0.481,0.0,0.0,0.0,0.0,0.0,0.0,0.0,0.0,0.0,0.0,0.0,0.0,0.0,0.0,0.0,0.0,0.0,0.0,0.0,0.0,0.0,0.0,0.0,0.0,0.0,0.0,0.0,0.0,0.0,0.0,0.0,0.0,0.0,0.0,0.0,0.0,0.0,0.0,0.0,0.0,0.0,0.0,0.0,0.0,0.0,0.0,0.0,0.0,0.0,0.0,0.0,0.0,0.0,0.0,0.0,0.0,0.0,0.0,0.0,0.0,0.0,0.0,0.0,0.0,0.0,0.0,0.0,0.0,0.0,0.0,0.0,0.0,0.0,0.0,0.0,0.0,0.0,0.0,0.0,0.0,0.0,0.0,0.0,0.0,0.0,0.0,0.0,0.0,0.0,0.0,0.0,0.0,0.0,0.0,0.0,0.0,0.0,0.0,0.0,0.0,0.0,0.0,0.0,0.0,0.0,0.0,0.0,0.0,0.593,0.5967,0.5921,0.5804,0.5719,0.5487,0.0,0.0,0.0,0.0,0.0,0.0,0.0,0.0,0.0,0.0,0.0,0.0,0.0,0.0,0.0,0.0,0.0,0.0,0.0,0.0,0.0,0.0,0.0,0.0,0.0,0.0,0.0,0.0,0.0,0.0,0.0,0.0,0.0,0.0,0.0,0.0,0.0,0.0,0.0,0.0,0.0,0.0,0.0,0.0,0.0,0.0,0.0,0.0,0.0,0.0,0.0,0.0,0.0,0.0,0.0,0.0,0.0,0.0,0.0,0.0,0.0,0.0,0.0,0.0,0.0,0.0,0.0,0.0,0.0,0.0,0.0,0.0,0.0,0.0,0.0,0.0,0.0,0.0,0.0,0.0,0.0,0.0,0.0,0.0,0.0,0.0,0.0,0.0,0.0,0.0,0.0,0.0,0.0,0.0,0.0,0.0,0.0,0.0,0.0,0.0,0.0,0.0,0.0,0.0,0.0,0.0,0.0,0.0,0.0,0.6439,0.6665,0.6747,0.6688,0.6306,0.5956,0.0,0.0,0.0,0.0,0.0,0.0,0.0,0.0,0.0,0.0,0.0,0.0,0.0,0.0,0.0,0.0,0.0,0.0,0.0,0.0,0.0,0.0,0.0,0.0,0.0,0.0,0.0,0.0,0.0,0.0,0.0,0.0,0.0,0.0,0.0,0.0,0.0,0.0,0.0,0.0,0.0,0.0,0.0,0.0,0.0,0.0,0.0,0.0,0.0,0.0,0.0,0.0,0.0,0.0,0.0,0.0,0.0,0.0,0.0,0.0,0.0,0.0,0.0,0.0,0.0,0.0,0.0,0.0,0.0,0.0,0.0,0.0,0.0,0.0,0.0,0.0,0.0,0.0,0.0,0.0,0.0,0.0,0.0,0.0,0.0,0.0,0.0,0.0,0.0,0.0,0.0,0.0,0.0,0.0,0.0,0.0,0.0,0.0,0.0,0.0,0.0,0.0,0.0,0.0,0.0,0.0,0.0,0.0,0.0,0.6942,0.7206,0.7315,0.7263,0.6867,0.6476,0.0,0.0,0.0,0.0,0.0,0.0,0.0,0.0,0.0,0.0,0.0,0.0,0.0,0.0,0.0,0.0,0.0,0.0,0.0,0.0,0.0,0.0,0.0,0.0,0.0,0.0,0.0,0.0,0.0,0.0,0.0,0.0,0.0,0.0,0.0,0.0,0.0,0.0,0.0,0.0,0.0,0.0,0.0,0.0,0.0,0.0,0.0,0.0,0.0,0.0,0.0,0.0,0.0,0.0,0.0,0.0,0.0,0.0,0.0,0.0,0.0,0.0,0.0,0.0,0.0,0.0,0.0,0.0,0.0,0.0,0.0,0.0,0.0,0.0,0.0,0.0,0.0,0.0,0.0,0.0,0.0,0.0,0.0,0.0,0.0,0.0,0.0,0.0,0.0,0.0,0.0,0.0,0.0,0.0,0.0,0.0,0.0,0.0,0.0,0.0,0.0,0.0,0.0,0.0,0.0,0.0,0.0,0.0,0.7007,0.7494,0.7624,0.7637,0.743,0.7436,0.7049,0.0,0.0,0.0,0.0,0.0,0.0,0.0,0.0,0.0,0.0,0.0,0.0,0.0,0.0,0.0,0.0,0.0,0.0,0.0,0.0,0.0,0.0,0.0,0.0,0.0,0.0,0.0,0.0,0.0,0.0,0.0,0.0,0.0,0.0,0.0,0.0,0.0,0.0,0.0,0.0,0.0,0.0,0.0,0.0,0.0,0.0,0.0,0.0,0.0,0.0,0.0,0.0,0.0,0.0,0.0,0.0,0.0,0.0,0.0,0.0,0.0,0.0,0.0,0.0,0.0,0.0,0.0,0.0,0.0,0.0,0.0,0.0,0.0,0.0,0.0,0.0,0.0,0.0,0.0,0.0,0.0,0.0,0.0,0.0,0.0,0.0,0.0,0.0,0.0,0.0,0.0,0.0,0.0,0.0,0.0,0.0,0.0,0.0,0.0,0.0,0.0,0.0,0.0,0.0,0.0,0.0,0.0,0.0,0.0,0.848,0.8983,0.924,0.9181,0.8567,0.805,0.0,0.0,0.0,0.0,0.0,0.0,0.0,0.0,0.0,0.0,0.0,0.0,0.0,0.0,0.0,0.0,0.0,0.0,0.0,0.0,0.0,0.0,0.0,0.0,0.0,0.0,0.0,0.0,0.0,0.0,0.0,0.0,0.0,0.0,0.0,0.0,0.0,0.0,0.0,0.0,0.0,0.0,0.0,0.0,0.0,0.0,0.0,0.0,0.0,0.0,0.0,0.0,0.0,0.0,0.0,0.0,0.0,0.0,0.0,0.0,0.0,0.0,0.0,0.0,0.0,0.0,0.0,0.0,0.0,0.0,0.0,0.0,0.0,0.0,0.0,0.0,0.0,0.0,0.0,0.0,0.0,0.0,0.0,0.0,0.0,0.0,0.0,0.0,0.0,0.0,0.0,0.0,0.0,0.0,0.0,0.0,0.0,0.0,0.0,0.0,0.0,0.0,0.0,0.0,0.0,0.0,0.0,0.0,0.0,1.0138,1.0393,1.0499,1.0429,0.9812,0.9158,0.8419,0.0,0.0,0.0,0.0,0.0,0.0,0.0,0.0,0.0,0.0,0.0,0.0,0.0,0.0,0.0,0.0,0.0,0.0,0.0,0.0,0.0,0.0,0.0,0.0,0.0,0.0,0.0,0.0,0.0,0.0,0.0,0.0,0.0,0.0,0.0,0.0,0.0,0.0,0.0,0.0,0.0,0.0,0.0,0.0,0.0,0.0,0.0,0.0,0.0,0.0,0.0,0.0,0.0,0.0,0.0,0.0,0.0,0.0,0.0,0.0,0.0,0.0,0.0,0.0,0.0,0.0,0.0,0.0,0.0,0.0,0.0,0.0,0.0,0.0,0.0,0.0,0.0,0.0,0.0,0.0,0.0,0.0,0.0,0.0,0.0,0.0,0.0,0.0,0.0,0.0,0.0,0.0,0.0,0.0,0.0,0.0,0.0,0.0,0.0,0.0,0.0,0.0,0.0,0.0,0.0,0.0,0.0,0.0,1.2345,1.1889,1.157,1.1334,1.1137,1.0314,0.0,0.0,0.0,0.0,0.0,0.0,0.0,0.0,0.0,0.0,0.0,0.0,0.0,0.0,0.0,0.0,0.0,0.0,0.0,0.0,0.0,0.0,0.0,0.0,0.0,0.0,0.0,0.0,0.0,0.0,0.0,0.0,0.0,0.0,0.0,0.0,0.0,0.0,0.0,0.0,0.0,0.0,0.0,0.0,0.0,0.0,0.0,0.0,0.0,0.0,0.0,0.0,0.0,0.0,0.0,0.0,0.0,0.0,0.0,0.0,0.0,0.0,0.0,0.0,0.0,0.0,0.0,0.0,0.0,0.0,0.0,0.0,0.0,0.0,0.0,0.0,0.0,0.0,0.0,0.0,0.0,0.0,0.0,0.0,0.0,0.0,0.0,0.0,0.0,0.0,0.0,0.0,0.0,0.0,0.0,0.0,0.0,0.0,0.0,0.0,0.0,0.0,0.0,0.0,0.0,0.0,0.0,0.0,0.0,1.4082,1.4525,1.4161,1.3012,1.2063,1.121,0.0,0.0,0.0,0.0,0.0,0.0,0.0,0.0,0.0,0.0,0.0,0.0,0.0,0.0,0.0,0.0,0.0,0.0,0.0,0.0,0.0,0.0,0.0,0.0,0.0,0.0,0.0,0.0,0.0,0.0,0.0,0.0,0.0,0.0,0.0,0.0,0.0,0.0,0.0,0.0,0.0,0.0,0.0,0.0,0.0,0.0,0.0,0.0,0.0,0.0,0.0,0.0,0.0,0.0,0.0,0.0,0.0,0.0,0.0,0.0,0.0,0.0,0.0,0.0,0.0,0.0,0.0,0.0,0.0,0.0,0.0,0.0,0.0,0.0,0.0,0.0,0.0,0.0,0.0,0.0,0.0,0.0,0.0,0.0,0.0,0.0,0.0,0.0,0.0,0.0,0.0,0.0,0.0,0.0,0.0,0.0,0.0,0.0,0.0,0.0,0.0,0.0,0.0,0.0,0.0,0.0,0.0,0.0,1.3756,1.4872,1.5771,1.5824,1.4926,1.3537,1.2333,0.0,0.0,0.0,0.0,0.0,0.0,0.0,0.0,0.0,0.0,0.0,0.0,0.0,0.0,0.0,0.0,0.0,0.0,0.0,0.0,0.0,0.0,0.0,0.0,0.0,0.0,0.0,0.0,0.0,0.0,0.0,0.0,0.0,0.0,0.0,0.0,0.0,0.0,0.0,0.0,0.0,0.0,0.0,0.0,0.0,0.0,0.0,0.0,0.0,0.0,0.0,0.0,0.0,0.0,0.0,0.0,0.0,0.0,0.0,0.0,0.0,0.0,0.0,0.0,0.0,0.0,0.0,0.0,0.0,0.0,0.0,0.0,0.0,0.0,0.0,0.0,0.0,0.0,0.0,0.0,0.0,0.0,0.0,0.0,0.0,0.0,0.0,0.0,0.0,0.0,0.0,0.0,0.0,0.0,0.0,0.0,0.0,0.0,0.0,0.0,0.0,0.0,0.0,0.0,0.0,0.0,0.0,0.0,1.4498,1.5214,1.6274,1.6804,1.671,1.5144,1.3542,0.0,0.0,0.0,0.0,0.0,0.0,0.0,0.0,0.0,0.0,0.0,0.0,0.0,0.0,0.0,0.0,0.0,0.0,0.0,0.0,0.0,0.0,0.0,0.0,0.0,0.0,0.0,0.0,0.0,0.0,0.0,0.0,0.0,0.0,0.0,0.0,0.0,0.0,0.0,0.0,0.0,0.0,0.0,0.0,0.0,0.0,0.0,0.0,0.0,0.0,0.0,0.0,0.0,0.0,0.0,0.0,0.0,0.0,0.0,0.0,0.0,0.0,0.0,0.0,0.0,0.0,0.0,0.0,0.0,0.0,0.0,0.0,0.0,0.0,0.0,0.0,0.0,0.0,0.0,0.0,0.0,0.0,0.0,0.0,0.0,0.0,0.0,0.0,0.0,0.0,0.0,0.0,0.0,0.0,0.0,0.0,0.0,0.0,0.0,0.0,0.0,0.0,0.0,0.0,0.0,0.0,0.0,0.0,1.5619,1.6645,1.7345,1.7561,1.7262,1.5567,1.418,0.0,0.0,0.0,0.0,0.0,0.0,0.0,0.0,0.0,0.0,0.0,0.0,0.0,0.0,0.0,0.0,0.0,0.0,0.0,0.0,0.0,0.0,0.0,0.0,0.0,0.0,0.0,0.0,0.0,0.0,0.0,0.0,0.0,0.0,0.0,0.0,0.0,0.0,0.0,0.0,0.0,0.0,0.0,0.0,0.0,0.0,0.0,0.0,1.1408,0.0,0.0,0.0,0.0,0.0,0.0,0.0,0.0,0.0,0.0,0.0,0.0,0.0,0.0,0.0,0.0,0.0,0.0,0.0,0.0,0.0,0.0,0.0,0.0,0.0,0.0,0.0,0.0,0.0,0.0,0.0,0.0,0.0,0.0,0.0,0.0,0.0,0.0,0.0,0.0,0.0,0.0,0.0,0.0,0.0,0.0,0.0,0.0,0.0,0.0,0.0,0.0,0.0,0.0,0.0,0.0,0.0,0.0,0.0,1.5952,1.7062,1.7699,1.7883,1.7656,1.652,1.5283,0.0,0.0,0.0,0.0,0.0,0.0,0.0,0.0,0.0,0.0,0.0,0.0,0.0,0.0,0.0,0.0,0.0,0.0,0.0,0.0,0.0,0.0,0.0,0.0,0.0,0.0,0.0,0.0,0.0,0.0,0.0,0.0,0.0,0.0,0.0,0.0,0.0,0.0,0.0,0.0,0.0,0.0,0.0,0.0,0.0,0.0,0.0,0.0,0.0,0.0,0.0,0.0,0.0,0.0,0.0,0.0,0.0,0.0,0.0,0.0,0.0,0.0,0.0,0.0,0.0,0.0,0.0,0.0,0.0,0.0,0.0,0.0,0.0,0.0,0.0,0.0,0.0,0.0,0.0,0.0,0.0,0.0,0.0,0.0,0.0,0.0,0.0,0.0,0.0,0.0,0.0,0.0,0.0,0.0,0.0,0.0,0.0,0.0,0.0,0.0,0.0,0.0,0.0,0.0,0.0,0.0,0.0,1.4968,1.6078,1.7191,1.7738,1.8008,1.8008,1.7421,1.637,1.4828,0.0,0.0,0.0,0.0,0.0,0.0,0.0,0.0,0.0,0.0,0.0,0.0,0.0,0.0,0.0,0.0,0.0,0.0,0.0,0.0,0.0,0.0,0.0,0.0,0.0,0.0,0.0,0.0,0.0,0.0,0.0,0.0,0.0,0.0,0.0,0.0,0.0,0.0,0.988,1.0812,0.0,0.0,0.0,0.0,0.0,0.0,0.0,0.0,1.3637,0.0,0.0,0.0,0.0,0.0,0.0,0.0,0.0,0.0,0.0,0.0,0.0,0.0,0.0,0.0,0.0,0.0,0.0,0.0,0.0,0.0,0.0,0.0,0.0,0.0,0.0,0.0,0.0,0.0,0.0,0.0,0.0,0.0,0.0,0.0,0.0,0.0,0.0,0.0,0.0,0.0,0.0,0.0,0.0,0.0,0.0,0.0,0.0,0.0,0.0,0.0,0.0,0.0,0.0,0.0,0.0,1.4451,1.5517,1.6634,1.783,1.7935,1.8008,1.7981,1.7412,1.6636,1.5589,0.0,0.0,0.0,0.0,0.0,0.0,0.0,0.0,0.0,0.0,0.0,0.0,0.0,0.0,0.0,0.0,0.0,0.0,0.0,0.0,0.0,0.0,0.0,0.0,0.0,0.0,0.0,0.0,0.0,0.0,0.0,0.0,0.0,0.0,0.0,0.0,0.0,0.0,0.0,1.1691,1.2439,0.0,0.0,0.0,0.0,0.0,0.0,0.0,0.0,1.4453,0.0,0.0,0.0,0.0,0.0,0.0,0.0,0.0,0.0,0.0,0.0,0.0,0.0,0.0,0.0,0.0,0.0,0.0,0.0,0.0,0.0,0.0,0.0,0.0,0.0,0.0,0.0,0.0,0.0,0.0,0.0,0.0,0.0,0.0,0.0,0.0,0.0,0.0,0.0,0.0,0.0,0.0,0.0,0.0,0.0,0.0,0.0,0.0,0.0,0.0,0.0,0.0,0.0,0.0,0.0,1.4984,1.6097,1.7091,1.7961,1.8008,1.8008,1.7998,1.7421,1.6686,0.0,0.0,0.0,0.0,0.0,0.0,0.0,0.0,0.0,0.0,0.0,0.0,0.0,0.0,0.0,0.0,0.0,0.0,0.0,0.0,0.0,0.0,0.0,0.0,0.0,0.0,0.0,0.0,0.0,0.0,0.0,0.0,0.0,0.0,0.0,0.0,0.0,0.0,0.0,0.0,1.2911,1.3863,1.4709,0.0,0.0,0.0,0.0,0.0,0.0,1.5659,1.5102,0.0,0.0,0.0,0.0,0.0,0.0,0.0,0.0,0.0,0.0,0.0,0.0,0.0,0.0,0.0,0.0,0.0,0.0,0.0,0.0,0.0,0.0,0.0,0.0,0.0,0.0,0.0,0.0,0.0,0.0,0.0,0.0,0.0,0.0,0.0,0.0,0.0,0.0,0.0,0.0,0.0,0.0,0.0,0.0,0.0,0.0,0.0,0.0,0.0,0.0,0.0,0.0,0.0,0.0,0.0,1.5389,1.6615,1.7506,1.7981,1.8157,1.8127,1.7891,1.734,1.6622,0.0,0.0,0.0,0.0,0.0,0.0,0.0,0.0,0.0,0.0,0.0,0.0,0.0,0.0,0.0,0.0,0.0,0.0,0.0,0.0,0.0,0.0,0.0,0.0,0.0,0.0,0.0,0.0,0.0,0.0,0.0,0.0,0.0,0.0,0.0,0.0,0.0,0.0,0.0,0.0,0.0,1.5036,1.5633,1.6031,0.0,0.0,0.0,0.0,1.7033,1.6348,0.0,0.0,0.0,0.0,0.0,0.0,0.0,0.0,0.0,0.0,0.0,0.0,0.0,0.0,0.0,0.0,0.0,0.0,0.0,0.0,0.0,0.0,0.0,0.0,0.0,0.0,0.0,0.0,0.0,0.0,0.0,0.0,0.0,0.0,0.0,0.0,0.0,0.0,0.0,0.0,0.0,0.0,0.0,0.0,0.0,0.0,0.0,0.0,0.0,0.0,0.0,0.0,0.0,0.0,0.0,0.0,1.5401,1.6918,1.7833,1.8037,1.875,1.8603,1.7516,1.7119,1.635,0.0,0.0,0.0,0.0,0.0,0.0,0.0,0.0,0.0,0.0,0.0,0.0,0.0,0.0,0.0,0.0,0.0,0.0,0.0,0.0,0.0,0.0,0.0,0.0,0.0,0.0,0.0,0.0,0.0,0.0,0.0,0.0,0.0,0.0,0.0,0.0,0.0,0.0,0.0,0.0,0.0,1.5269,1.6012,1.6316,1.6402,0.0,0.0,1.7007,1.7097,1.6988,0.0,0.0,0.0,0.0,0.0,0.0,0.0,0.0,0.0,0.0,0.0,0.0,0.0,0.0,0.0,0.0,0.0,0.0,0.0,0.0,0.0,0.0,0.0,0.0,0.0,0.0,0.0,0.0,0.0,0.0,0.0,0.0,0.0,0.0,0.0,0.0,0.0,0.0,0.0,0.0,0.0,0.0,0.0,0.0,0.0,0.0,0.0,0.0,0.0,0.0,0.0,0.0,0.0,0.0,0.0,1.491,1.6245,1.7579,1.8282,1.8352,1.8685,1.8535,1.7737,1.7202,1.6447,0.0,0.0,0.0,0.0,0.0,0.0,0.0,0.0,0.0,0.0,0.0,0.0,0.0,0.0,0.0,0.0,0.0,0.0,0.0,0.0,0.0,0.0,0.0,0.0,0.0,0.0,0.0,0.0,0.0,0.0,0.0,0.0,0.0,0.0,0.0,0.0,0.0,0.0,0.0,0.0,0.0,0.0,1.6527,1.7042,0.0,0.0,0.0,1.7607,1.7607,0.0,0.0,0.0,0.0,0.0,0.0,0.0,0.0,0.0,0.0,0.0,0.0,0.0,0.0,0.0,0.0,0.0,0.0,0.0,0.0,0.0,0.0,0.0,0.0,0.0,0.0,0.0,0.0,0.0,0.0,0.0,0.0,0.0,0.0,0.0,0.0,0.0,0.0,0.0,0.0,0.0,0.0,0.0,0.0,0.0,0.0,0.0,0.0,0.0,0.0,0.0,0.0,0.0,0.0,0.0,0.0,0.0,1.7035,1.8292,1.8822,1.8617,1.8812,1.8586,1.7881,1.7458,0.0,0.0,0.0,0.0,0.0,0.0,0.0,0.0,0.0,0.0,0.0,0.0,0.0,0.0,0.0,0.0,0.0,0.0,0.0,0.0,0.0,0.0,0.0,0.0,0.0,0.0,0.0,0.8567,0.0,0.0,0.0,0.0,0.0,0.0,0.0,0.0,0.0,0.0,0.0,0.0,0.0,0.0,1.6376,1.6887,1.7646,1.8157,0.0,0.0,1.8313,1.834,1.784,1.7379,0.0,0.0,0.0,0.0,0.0,0.0,0.0,0.0,0.0,0.0,0.0,0.0,0.0,0.0,0.0,0.0,0.0,0.0,0.0,0.0,0.0,0.0,0.0,0.0,0.0,0.0,0.0,0.0,0.0,0.0,0.0,0.0,0.0,0.0,0.0,0.0,0.0,0.0,0.0,0.0,0.0,0.0,0.0,0.0,0.0,0.0,0.0,0.0,0.0,0.0,0.0,0.0,0.0,0.0,0.0,1.7467,1.9008,1.9397,1.8666,1.9396,1.9035,1.75,1.8,1.756,0.0,0.0,0.0,0.0,0.0,0.0,0.0,0.0,0.0,0.0,0.0,0.0,0.0,0.0,0.0,0.0,0.0,0.0,0.0,0.0,0.0,0.0,0.0,0.0,0.0,0.0,0.0,0.0,0.0,0.0,0.0,0.0,0.0,0.0,0.0,0.0,0.0,0.0,0.0,0.0,0.0,1.6408,1.7,1.7937,1.8559,0.0,0.0,1.9227,1.9199,1.8792,1.8261,1.7575,0.0,0.0,0.0,0.0,0.0,0.0,0.0,0.0,0.0,0.0,0.0,0.0,0.0,0.0,0.0,0.0,0.0,0.0,0.0,0.0,0.0,0.0,0.0,0.0,0.0,0.0,0.0,0.0,0.0,0.0,0.0,0.0,0.0,0.0,0.0,0.0,0.0,0.0,0.0,0.0,0.0,0.0,0.0,0.0,0.0,0.0,0.0,0.0,0.0,0.0,0.0,0.0,0.0,1.6484,1.7865,1.9211,1.9737,1.9435,1.9727,1.9492,1.8574,1.8464,1.7902,0.0,0.0,0.0,0.0,0.0,0.0,0.0,0.0,0.0,0.0,0.0,0.0,0.0,0.0,0.0,0.0,0.0,0.0,0.0,0.0,0.0,0.0,0.0,0.0,0.0,0.0,0.0,0.0,1.4248,1.4807,1.4508,0.0,0.0,0.0,0.0,0.0,0.0,0.0,0.0,0.0,0.0,1.7223,1.7831,1.8556,0.0,0.0,1.918,1.9251,1.9123,1.8979,1.867,1.8148,1.748,0.0,0.0,0.0,0.0,0.0,0.0,0.0,0.0,0.0,0.0,0.0,0.0,0.0,0.0,0.0,0.0,0.0,0.0,0.0,0.0,0.0,0.0,0.0,0.0,0.0,0.0,0.0,0.0,0.0,0.0,0.0,0.0,0.0,0.0,0.0,0.0,0.0,0.0,0.0,0.0,0.0,0.0,0.0,0.0,0.0,0.0,0.0,0.0,0.0,0.0,0.0,0.0,1.7053,1.8472,1.9578,2.0126,2.0107,1.998,1.9688,1.9297,1.8994,1.8526,0.0,0.0,0.0,0.0,0.0,0.0,0.0,0.0,0.0,0.0,0.0,0.0,0.0,0.0,0.0,0.0,0.0,0.0,0.0,0.0,0.0,0.0,0.0,0.0,0.0,0.0,0.0,0.0,1.5455,1.5713,1.5209,0.0,0.0,0.0,0.0,0.0,0.0,0.0,0.0,0.0,0.0,1.7959,1.8486,1.9,1.9298,1.9215,1.9246,1.9277,1.9269,1.9146,1.9024,1.8956,0.0,0.0,0.0,0.0,0.0,0.0,0.0,0.0,0.0,0.0,0.0,0.0,0.0,0.0,0.0,0.0,0.0,0.0,0.0,0.0,0.0,0.0,0.0,0.0,0.0,0.0,0.0,0.0,0.0,0.0,0.0,0.0,0.0,0.0,0.0,0.0,0.0,0.0,0.0,0.0,0.0,0.0,0.0,0.0,0.0,0.0,0.0,0.0,0.0,0.0,0.0,0.0,0.0,1.8135,1.9364,2.0178,2.0595,2.0586,2.0146,1.9756,1.9393,1.9687,1.9604,1.8948,0.0,0.0,0.0,0.0,0.0,0.0,0.0,0.0,0.0,0.0,0.0,0.0,0.0,0.0,0.0,0.0,0.0,0.0,0.0,0.0,0.0,0.0,0.0,0.0,0.0,0.0,1.4889,1.5387,1.5714,0.0,0.0,0.0,0.0,0.0,0.0,0.0,0.0,0.0,0.0,1.7994,1.853,1.8928,1.9155,1.924,1.904,1.9182,1.9421,1.9765,1.9469,1.941,0.0,0.0,0.0,0.0,0.0,0.0,0.0,0.0,0.0,0.0,0.0,0.0,0.0,0.0,0.0,0.0,0.0,0.0,0.0,0.0,0.0,0.0,0.0,0.0,0.0,0.0,0.0,1.0631,1.1657,0.0,0.0,0.0,0.0,0.0,0.0,0.0,0.0,0.0,0.0,0.0,1.6197,1.6284,0.0,0.0,0.0,0.0,0.0,0.0,0.0,0.0,0.0,0.0,0.0,0.0,1.8564,1.9364,2.075,2.1329,2.1005,2.1152,2.1162,2.1035,2.0596,1.9944,1.9005,0.0,0.0,0.0,0.0,0.0,0.0,0.0,0.0,0.0,0.0,0.0,0.0,0.0,0.0,0.0,0.0,0.0,0.0,0.0,0.0,0.0,0.0,0.0,0.0,0.0,1.5522,0.0,0.0,0.0,0.0,0.0,0.0,0.0,0.0,0.0,0.0,0.0,1.7522,1.8039,1.8405,1.8675,1.8901,1.9218,1.9324,0.0,0.0,0.0,0.0,0.0,0.0,0.0,0.0,0.0,0.0,0.0,0.0,0.0,0.0,1.4959,1.4769,1.4839,1.4937,1.4877,0.0,0.0,0.0,0.0,0.0,0.0,0.0,0.0,0.0,0.0,0.0,0.0,0.0,0.0,0.0,0.0,1.4458,0.0,0.0,0.0,0.0,0.0,0.0,0.0,0.0,1.7236,1.7699,1.7857,1.7856,1.7972,0.0,1.7892,1.7221,0.0,0.0,0.0,0.0,0.0,0.0,0.0,0.0,1.9052,1.9771,2.1,2.1649,2.1669,2.1816,2.1915,2.1896,2.1182,2.0479,1.9782,1.9202,1.8431,0.0,0.0,0.0,0.0,0.0,0.0,0.0,0.0,0.0,0.0,0.0,0.0,0.0,0.0,0.0,0.0,0.0,0.0,0.0,0.0,0.0,0.0,0.0,1.6648,0.0,0.0,0.0,0.0,0.0,0.0,0.0,0.0,0.0,1.7164,1.7897,1.8499,1.8656,1.8834,1.8921,1.8927,0.0,0.0,0.0,0.0,0.0,0.0,0.0,1.8747,1.9122,1.9253,1.9046,1.8266,1.7152,1.6162,1.5617,0.0,0.0,1.5173,1.5225,1.5355,1.5333,1.5355,1.5419,1.5619,1.559,1.5576,0.0,0.0,0.0,0.0,0.0,0.0,0.0,0.0,1.3351,1.4584,0.0,1.5572,0.0,0.0,0.0,0.0,0.0,0.0,0.0,0.0,1.9594,2.0059,1.9273,1.953,1.9706,1.9677,1.903,1.9099,1.9762,1.8006,0.0,0.0,0.0,0.0,0.0,0.0,1.9625,2.0597,2.1077,2.1669,2.243,2.2148,2.1974,2.1934,2.1513,2.1239,2.1151,2.0294,1.9707,1.9478,1.7458,0.0,0.0,0.0,0.0,0.0,0.0,0.0,0.0,0.0,0.0,0.0,0.0,0.0,0.0,0.0,0.0,0.0,0.0,0.0,0.0,1.7029,0.0,0.0,0.0,0.0,0.0,0.0,0.0,0.0,0.0,0.0,1.7569,1.8718,1.9486,1.921,0.0,0.0,0.0,0.0,1.783,1.7659,1.7454,1.757,1.8234,1.8109,1.8387,1.9766,0.0,0.0,1.8495,1.749,1.672,1.656,1.6515,1.6283,1.5371,1.5457,1.5645,1.5674,1.5659,1.566,1.5695,1.596,1.6123,1.0608,0.0,0.0,0.0,0.0,1.0449,1.128,1.2256,1.3285,1.4344,1.5405,1.5695,0.0,0.0,0.0,0.0,0.0,0.0,1.6882,1.7797,1.8313,1.8543,1.8627,1.9458,2.0031,2.0304,1.9368,1.9141,1.9488,1.8224,1.7609,1.7611,0.0,0.0,0.0,0.0,2.0673,2.1239,2.2097,2.2526,2.2488,2.2988,2.3096,2.2762,2.2613,2.2126,2.1229,2.1521,2.107,1.9697,1.8955,0.0,0.0,0.0,0.0,0.0,0.0,0.0,0.0,0.0,0.0,0.0,0.0,0.0,0.0,0.0,0.0,0.0,0.0,0.0,1.7212,1.7944,1.8124,0.0,0.0,0.0,0.0,0.0,0.0,0.0,0.0,0.0,1.8091,1.8894,1.9302,0.0,0.0,1.8332,1.8303,1.7941,1.7649,1.7543,0.0,0.0,0.0,1.7679,1.7981,1.8378,1.8284,1.805,1.7791,1.719,1.6724,1.665,1.665,1.6583,1.6324,1.6308,1.638,1.6393,1.6369,1.6468,1.6688,1.6654,1.6607,1.2002,1.1163,1.1032,1.0959,1.0962,1.1666,1.2413,1.3174,1.4164,1.5045,1.5738,1.5931,1.6194,1.6498,1.6012,0.0,0.0,0.0,1.735,1.846,1.8401,1.8588,1.8978,1.9136,1.9465,1.9818,1.9079,1.895,1.944,1.8268,1.7822,1.799,0.0,0.0,1.8871,1.9423,2.0216,2.1176,2.1451,2.1773,2.2211,2.3248,2.3351,2.2444,2.2862,2.2684,2.1776,2.207,2.1824,2.0847,2.0342,1.9364,0.0,0.0,0.0,0.0,0.0,0.0,0.0,0.0,0.0,0.0,0.0,1.3529,1.3537,0.0,0.0,0.0,1.6861,1.7584,1.8536,1.8465,0.0,0.0,0.0,0.0,0.0,0.0,0.0,1.6254,1.6815,1.7428,1.8041,1.8598,1.8843,1.8691,1.8237,1.7918,1.7917,0.0,1.7401,1.7339,1.7438,1.7462,1.7328,1.7443,1.7596,1.7696,1.7641,1.7539,1.7513,1.7258,1.7054,1.7054,1.7054,1.7054,1.7054,1.7054,1.6961,1.6754,1.6707,1.6774,1.6966,1.6921,1.6966,1.3113,1.2817,1.1721,1.162,1.2239,1.3076,1.3843,1.4599,1.5416,1.607,1.6455,1.6047,1.617,1.6662,1.6304,0.0,0.0,1.7731,1.855,1.9409,1.9247,1.9374,1.9689,1.869,1.8433,1.878,1.8362,1.8574,1.9267,1.8101,1.7598,1.7788,1.7813,1.8213,1.8968,1.8363,1.8927,2.0718,1.9855,2.0091,2.163,2.2851,2.2743,2.1266,2.235,2.2739,2.237,2.206,2.2084,2.2401,2.1514,2.0725,2.0166,0.0,0.0,0.0,0.0,0.0,0.0,0.0,0.0,0.0,0.0,0.0,0.0,0.0,0.0,0.0,1.8919,0.0,1.9813,1.8628,0.0,0.0,0.0,1.5306,1.4957,1.5474,1.5944,1.6232,0.0,0.0,0.0,0.0,1.825,1.8496,1.8089,1.7761,1.7772,1.7384,1.7111,1.7166,1.7152,1.7273,1.7514,1.7419,1.7365,1.756,1.7615,1.7601,1.7601,1.7582,1.7595,1.7575,1.7595,1.7609,1.7648,1.7622,1.7515,1.7001,1.684,1.6775,1.684,1.7046,1.7253,1.3855,1.3775,1.3486,1.3068,1.2645,1.2859,1.3303,1.3864,1.4079,1.4375,1.4712,1.4811,1.5503,1.6652,1.7026,1.7608,1.8256,1.7036,1.6935,1.7726,1.7425,1.7311,1.744,1.8139,1.8552,1.8604,1.7978,1.7871,1.8218,1.7144,1.6742,1.6971,1.6988,1.7482,1.8473,1.8949,1.9597,2.0405,1.9975,1.9985,2.0475,2.0529,2.0477,2.0395,2.0588,2.0833,2.1117,2.1581,2.1907,2.2017,2.1795,2.1371,2.0725,1.9438,0.0,0.0,0.0,0.0,0.0,0.0,0.0,0.0,0.0,1.6702,1.7047,0.0,1.9421,0.0,2.0361,2.036,1.9376,1.8676,0.0,0.0,1.6275,1.5915,1.5998,1.6058,1.6285,1.6751,1.7002,1.7259,1.7514,1.7604,1.7708,1.782,1.77,1.7564,1.7567,1.7354,1.7256,1.7418,1.7466,1.7506,1.7613,1.756,1.7535,1.7595,1.7622,1.7615,1.7615,1.7615,1.7615,1.7628,1.7782,1.7882,1.7909,1.811,1.8217,1.807,1.7702,1.7375,1.7375,1.7461,1.7575,1.4424,1.4282,1.4275,1.3988,1.3547,1.344,1.3554,1.3814,1.382,1.4008,1.4295,1.4589,1.5068,1.5696,1.6205,1.6741,1.7221,1.6662,1.6817,1.7564,1.7315,1.7285,1.7449,1.765,1.7756,1.774,1.733,1.7227,1.733,1.6755,1.6547,1.6707,1.6866,1.7206,1.7752,1.801,1.8589,1.9479,1.924,1.8871,1.8466,1.93,1.9544,1.9058,1.9764,2.0253,2.0452,2.109,2.1508,2.1669,2.176,2.1561,2.1021,2.0197,1.9344,0.0,0.0,0.0,0.0,0.0,0.0,0.0,0.0,0.0,0.0,0.0,2.0761,0.0,2.1205,2.077,1.9364,1.8871,1.8102,1.681,1.6425,1.6304,1.6354,1.6399,1.6608,1.7018,1.7134,1.725,1.7483,1.7556,1.7551,1.7588,1.756,1.7565,1.7541,1.7445,1.7428,1.7582,1.7695,1.7842,1.799,1.8016,1.8016,1.7983,1.7983,1.8016,1.7983,1.8016,1.7983,1.8023,1.813,1.8223,1.8223,1.837,1.849,1.845,1.8223,1.8036,1.8016,1.7989,1.805,1.4839,1.4576,1.4554,1.4576,1.4534,1.4309,1.4223,1.4223,1.4223,1.4362,1.4627,1.4926,1.4919,1.4687,1.4986,1.5233,1.5514,1.643,1.7224,1.7851,1.7746,1.7889,1.8237,1.7259,1.676,1.6767,1.68,1.682,1.6795,1.6795,1.6814,1.6834,1.71,1.7214,1.71,1.6603,1.697,1.8187,1.7983,1.7346,1.6285,1.8421,1.8887,1.7597,1.9098,1.9946,1.9931,2.0414,2.0884,2.1212,2.1355,2.129,2.0973,2.0632,2.0061,0.0,1.8899,0.0,0.0,0.0,0.0,0.0,0.0,0.0,0.0,2.0709,2.1275,2.1562,2.1375,2.0689,1.9401,1.8974,1.8135,1.6632,1.6546,1.6566,1.6435,1.6607,1.6881,1.7226,1.7259,1.7334,1.7555,1.7615,1.7608,1.7675,1.7675,1.7702,1.7722,1.7702,1.7662,1.7682,1.7896,1.8156,1.8384,1.8464,1.8485,1.8477,1.8444,1.8497,1.8457,1.8464,1.8477,1.8477,1.8497,1.8544,1.8544,1.8577,1.8639,1.8672,1.8685,1.8624,1.8484,1.8437,1.8504,1.4975,1.4899,1.4899,1.4905,1.4892,1.4839,1.4841,1.4841,1.4819,1.4986,1.5237,1.5314,1.5411,1.5561,1.5615,1.5691,1.5721,1.595,1.6259,1.6631,1.6614,1.6764,1.7032,1.7081,1.7093,1.7132,1.7301,1.7415,1.7422,1.7422,1.7441,1.7415,1.7501,1.7407,1.717,0.0,0.0,0.0,1.6632,1.6418,1.5949,1.635,1.6465,1.6187,1.678,0.0,1.8365,1.8769,1.9439,2.0339,2.0158,0.0,0.0,0.0,0.0,0.0,0.0,0.0,0.0,0.0,0.0,0.0,1.8813,1.8719,1.9644,1.9501,1.9455,1.976,1.974,1.9438,1.8741,1.8333,1.7689,1.6777,1.6659,1.6764,1.6973,1.7085,1.72,1.7488,1.7528,1.7541,1.7608,1.7615,1.7689,1.7889,1.7902,1.8029,1.8283,1.8076,1.8029,1.827,1.837,1.843,1.8477,1.8517,1.8551,1.8497,1.8497,1.851,1.8524,1.8517,1.8504,1.8531,1.8677,1.8823,1.8858,1.9032,1.9234,1.9227,1.9408,1.9339,1.8651,1.8504,1.8564,1.5414,0.0,1.5391,1.5391,0.0,1.5398,1.5391,1.5371,1.5106,1.5073,1.5227,1.5484,1.5595,1.5601,1.5741,1.5888,1.6046,1.6046,1.6206,1.6504,1.6511,1.6591,1.6682,1.686,1.6959,1.6959,1.7107,1.7154,1.7148,1.7148,1.7228,1.7388,1.7247,1.7173,1.7186,1.6739,1.6321,1.6004,1.6198,1.6132,1.5828,1.5972,1.5955,1.5815,0.0,0.0,0.0,0.0,0.0,0.0,0.0,0.0,0.0,0.0,0.0,1.9181,1.9779,2.0158,2.0136,1.9681,1.9541,1.9852,1.8931,1.8729,1.9586,1.9615,1.9664,1.9813,1.9837,1.9471,1.8611,1.8459,1.8045,1.7084,1.708,1.7227,1.7354,1.7394,1.7474,1.7575,1.7615,1.7655,1.7789,1.7809,1.7909,1.8183,1.8243,1.8349,1.8611,1.8457,1.8349,1.8657,1.8704,1.8764,1.892,1.8953,1.8946,1.8953,1.8953,1.8925,1.8953,1.8946,1.8965,1.9098,1.9265,1.9392,1.9517,1.97,1.98,1.98,1.9913,1.987,1.9426,1.9323,1.9386,1.5123,1.5146,1.5367,1.5462,1.5486,1.5706,1.5801,1.5775,0.0,0.0,0.0,1.5625,1.5668,1.5468,1.5701,1.5935,1.6217,1.6217,1.6353,1.6627,1.6627,1.6653,1.6707,1.6707,1.6707,1.6707,1.6707,1.6707,1.6707,1.6707,1.6827,1.7079,1.6846,1.6807,1.6998,1.6491,1.6072,1.5828,1.6072,1.6079,1.5821,1.6072,1.6103,1.5808,1.6004,1.6258,1.6541,1.6911,1.7232,1.7482,1.773,1.7823,1.7791,1.8378,1.8566,1.8257,1.8816,1.9248,1.9389,1.9264,1.9304,1.9645,1.8733,1.8559,1.9463,1.9677,1.978,1.9843,1.9827,1.941,1.843,1.8564,1.8356,1.7357,1.7468,1.7608,1.7608,1.7642,1.7669,1.7669,1.7736,1.7836,1.8056,1.8096,1.8203,1.8497,1.8564,1.8677,1.8898,1.8818,1.8751,1.8951,1.9005,1.9085,1.9285,1.9361,1.9415,1.9435,1.9461,1.9488,1.9535,1.9548,1.9619,1.9786,1.9873,1.993,2.0137,2.015,2.0204,2.0204,2.025,2.0284,2.0284,2.0317,2.0284,1.2479,1.2533,1.3686,1.4166,1.4238,1.5343,1.5801,1.5778,1.5691,1.5681,1.5695,1.5768,1.5781,1.5741,1.5788,1.5828,1.5868,1.5868,1.6052,0.0,1.6364,1.6491,1.67,1.6707,1.6707,1.6707,1.67,1.6707,1.6707,1.67,1.6708,1.676,1.6727,1.6607,1.6411,1.6059,1.5848,1.5808,1.5841,1.5848,1.5808,1.5848,1.5855,1.5808,1.5832,1.5981,1.6248,1.6312,1.6471,1.6746,1.6793,1.6706,1.6525,1.7526,1.8032,1.7855,1.8819,1.9464,1.945,1.8754,1.7881,1.6978,1.6925,1.7593,1.9052,1.8003,1.7346,1.762,1.7742,1.7695,1.7695,1.7775,1.7764,1.7594,1.7582,1.7615,1.7648,1.7836,1.7949,1.7956,1.821,1.8343,1.841,1.843,1.8531,1.8791,1.8695,1.8879,1.9041,1.9301,1.9287,1.9328,1.9334,1.9354,1.9234,1.9401,1.9362,1.9706,1.9621,1.9592,1.976,1.9793,1.9893,2.013,2.0144,2.0177,2.0237,2.0204,2.0257,2.0277,2.0461,2.0601,2.0615,2.0775,2.0795,1.1896,1.1969,1.2571,1.2813,1.2866,1.3445,1.3686,1.3692,1.3668,1.4513,1.5754,1.5801,1.5801,1.5801,1.5801,1.5801,1.5801,1.5801,1.5881,1.6025,1.6032,1.6099,1.6195,1.6202,1.6226,1.6208,1.6208,1.6226,1.6208,1.6208,1.6306,1.6484,1.6473,1.6326,1.6039,1.5875,1.5801,1.5808,1.5992,1.5992,1.5815,1.5985,1.5992,1.5808,1.5801,1.5855,1.5974,1.5981,1.6045,1.6163,1.6163,1.6116,1.6004,1.6681,1.7051,1.6977,1.7584,1.7984,1.7984,1.7573,1.7116,1.6581,1.6627,1.7004,1.7781,1.7307,1.6959,1.6953,1.7207,1.7327,1.7148,1.7414,1.7615,1.7615,1.7729,1.7896,1.8083,1.8183,1.8256,1.8303,1.8404,1.8544,1.8711,1.8731,1.8838,1.9048,1.8513,1.7973,1.8062,1.7367,1.7161,1.79,1.8104,1.8144,1.8256,1.8323,1.8412,1.8566,1.8609,1.8659,1.8783,1.8802,1.9275,2.022,2.0444,2.0548,2.0617,2.0677,2.0677,2.0691,2.0795,2.0902,2.0942,2.1029,2.0964,1.1019,1.1019,1.1336,1.1629,1.1896,1.1896,1.1896,1.1896,1.1921,1.3036,1.4758,1.4908,1.5075,1.5367,1.5367,1.551,1.5778,1.5801,1.5801,1.5801,1.5801,1.5801,1.5801,1.5801,1.5801,1.5801,1.5801,1.5801,1.5801,1.5801,1.5945,1.6152,1.6197,1.6059,1.5808,1.5801,1.5801,1.5821,1.6143,1.615,1.5828,1.6059,1.6059,1.5828,1.5801,1.5801,1.5801,1.5801,1.5801,1.5801,1.5801,1.5801,1.5815,1.6046,1.6197,1.6199,1.6386,1.6515,1.66,1.6613,1.6613,1.6607,1.6607,1.658,1.654,1.6847,1.6986,1.68,1.72,1.7307,1.7007,1.7361,1.7689,1.7702,1.7963,1.8196,1.8444,1.8544,1.8584,1.8591,1.8665,1.8791,1.8958,1.9018,1.8926,1.8606,1.7478,1.6532,1.6348,1.5355,1.5247,1.5707,1.6285,1.6591,1.6801,1.6827,1.6929,1.71,1.714,1.7179,1.7224,1.7236,1.7698,1.9068,1.9875,2.0071,2.0435,2.0861,2.1006,2.1017,2.067,2.0246,1.9655,2.0081,2.0652,0.8407,0.8552,0.9706,1.0852,1.175,1.1823,1.1799,1.1799,1.1872,1.1974,1.2231,1.2261,1.2933,1.3974,1.4076,1.4657,1.5635,1.5778,1.573,1.5706,1.5801,1.5801,1.5659,1.573,1.5801,1.5706,1.5683,1.5611,1.5706,1.5784,1.5798,1.5841,1.5848,1.5855,1.5815,1.5815,1.5815,1.5808,1.6119,1.6126,1.5828,1.5828,1.5835,1.5808,1.5815,1.5801,1.5821,1.5801,1.5808,1.5801,1.5801,1.5801,1.5808,1.5835,1.5848,1.5848,1.5881,1.5995,1.6304,1.6337,1.6351,1.6337,1.6364,1.6264,1.6001,1.6397,1.6715,1.6698,1.6982,1.7226,1.7173,1.7629,1.7882,1.7727,1.8092,1.8464,1.8343,1.8724,1.885,1.885,1.8722,1.9299,1.8925,1.8896,1.8545,1.7355,1.5857,1.4885,1.4947,1.4589,1.396,1.361,1.4109,1.4942,1.5165,1.5226,1.5384,1.5598,1.5686,1.5779,1.5881,1.5985,1.6255,1.7079,1.7823,1.8625,1.9032,1.9871,2.0849,2.0202,1.9431,1.8332,1.7087,1.7706,1.909,0.7988,0.8066,0.8577,0.9118,0.9579,0.9583,0.9579,0.9604,0.9604,0.9604,0.9583,0.9604,1.075,1.2673,1.2716,1.3006,1.3475,1.3494,1.3494,1.3475,1.3499,1.3475,1.3499,1.3494,1.3499,1.3499,1.3499,1.3932,1.4681,1.5415,1.5801,1.5828,1.5968,1.6116,1.6106,1.6259,1.6346,1.6328,1.6466,1.6466,1.6366,1.6346,1.6346,1.6322,1.6353,1.6259,1.6112,1.6092,1.6012,1.5821,1.5801,1.5801,1.5801,1.5801,1.5801,1.5801,1.5801,1.5855,1.5981,1.619,1.6297,1.6297,1.6433,1.6466,1.6306,1.5884,1.5563,1.5702,1.6704,1.7307,1.6976,1.7556,1.7657,1.6928,1.703,1.7061,1.6276,1.6309,1.6349,1.636,1.6469,1.6621,1.6562,1.6562,1.6324,1.5584,1.4309,1.3428,1.3508,1.2781,1.1992,1.1618,1.1917,1.272,1.3576,1.3875,1.3998,1.4143,1.4211,1.4294,1.4326,1.4358,1.4619,1.5589,1.6302,1.6791,1.6947,1.7339,1.802,1.7925,1.7888,1.6803,1.6115,1.6678,1.7577,0.7988,0.7988,0.7988,0.7988,0.7988,0.7988,0.7988,0.7988,0.7988,0.7988,0.7988,0.7988,0.9019,1.0705,1.119,1.1536,1.1858,1.1962,1.1982,1.1992,1.2023,1.2023,1.1997,1.2033,1.1988,1.1922,1.2035,1.2494,1.339,1.428,1.4816,1.486,1.5096,1.5233,1.5301,1.577,1.611,1.6117,1.6515,1.6827,1.6827,1.6907,1.6867,1.6727,1.6707,1.6607,1.6431,1.6417,1.6293,1.6061,1.6041,1.6041,1.6041,1.6048,1.6041,1.5993,1.5649,1.5449,1.5425,1.5293,1.5227,1.5252,1.542,1.5519,1.5392,1.474,1.4307,1.4396,1.5627,1.6166,1.5945,1.645,1.6347,1.545,1.5693,1.5493,1.479,1.4574,1.4683,1.4574,1.4891,1.46,1.4615,1.4406,1.4118,1.4052,1.2877,1.1869,1.1953,1.1157,1.0517,1.0527,1.0616,1.1098,1.2192,1.2414,1.249,1.2546,1.2562,1.2562,1.2574,1.2574,1.2639,1.3386,1.4195,1.4884,1.5289,1.5414,1.5657,1.5454,1.5399,1.5243,1.4415,1.5139,1.5629,0.7988,0.7988,0.7988,0.7988,0.7988,0.7988,0.7988,0.7988,0.7988,0.7988,0.7988,0.8023,0.8091,0.8418,0.9599,1.071,1.1727,1.1875,1.1909,1.1954,1.2121,1.2227,1.2204,1.2313,1.2128,1.1624,1.1731,1.1949,1.2035,1.2341,1.2353,1.2454,1.2771,1.271,1.2992,1.4111,1.4595,1.4836,1.6125,1.7038,1.7058,1.7264,1.7067,1.6575,1.6695,1.6734,1.6687,1.6687,1.6667,1.6628,1.6552,1.6565,1.6597,1.654,1.6421,1.6352,1.5312,1.4601,1.4381,1.3465,1.2792,1.272,1.2992,1.2735,1.3127,1.3011,1.3006,1.3092,1.3462,1.3626,1.3523,1.418,1.4386,1.4235,1.4351,1.4445,1.443,1.4098,1.4515,1.4366,1.4177,1.4101,1.4443,1.3424,1.2753,1.2449,1.142,1.0604,1.0762,1.061,1.0577,1.0643,1.0694,1.0737,1.0869,1.1194,1.1113,1.1174,1.1406,1.1045,1.085,1.0817,1.1045,1.1141,1.1597,1.2392,1.3387,1.4117,1.4528,1.4464,1.3963,1.352,1.2886,1.3293,1.3791,0.7988,0.7988,0.7988,0.7988,0.7988,0.7988,0.7988,0.7988,0.7988,0.7988,0.8033,0.8118,0.8187,0.8213,0.8686,0.9076,0.941,0.9619,0.9698,0.9718,0.9822,0.9896,0.9848,0.9878,0.985,0.9747,0.9804,1.0299,1.1207,1.1996,1.2483,1.2605,1.2861,1.2969,1.3097,1.3643,1.3957,1.3938,1.4574,1.4829,1.4893,1.4842,1.4774,1.4769,1.6383,1.7181,1.702,1.702,1.6926,1.6714,1.5859,1.5349,1.5216,1.4419,1.3936,1.3911,1.3447,1.3166,1.3105,1.2868,1.2658,1.2668,1.2846,1.2901,1.2947,1.2459,1.2049,1.2098,1.1483,1.1149,1.1486,1.2823,1.3707,1.2891,1.2833,1.2601,1.1775,1.1529,1.1529,1.1545,1.1586,1.1667,1.1866,1.1335,1.1125,1.1201,1.0795,1.0545,1.0592,1.0636,1.0656,1.0697,1.0721,1.0721,1.0717,1.075,1.075,1.075,1.0784,1.0817,1.0717,1.0721,1.0913,1.098,1.0778,1.0976,1.2382,1.2563,1.3052,1.2906,1.2432,1.2441,1.1479,1.2304,1.2533,0.7988,0.802,0.8067,0.8116,0.8119,0.8138,0.8159,0.8159,0.8155,0.8155,0.8179,0.8321,0.8362,0.8362,0.8366,0.8289,0.8175,0.8321,0.8389,0.8447,0.856,0.8604,0.857,0.8608,0.8574,0.8529,0.856,0.914,1.0015,1.1034,1.153,1.1621,1.1902,1.2052,1.2135,1.2668,1.2942,1.2917,1.3318,1.3593,1.3545,1.3475,1.346,1.3782,1.535,1.618,1.5948,1.5929,1.5829,1.5497,1.4668,1.4171,1.4016,1.3237,1.2689,1.2663,1.2218,1.1983,1.1923,1.1722,1.15,1.1536,1.1783,1.2022,1.2023,1.1297,1.0995,1.0812,1.0364,0.9731,1.0151,1.1618,1.2314,1.1353,1.126,1.0966,0.9963,0.9849,0.9907,1.0063,1.0218,1.019,1.016,1.0315,1.047,1.0548,1.0565,1.0616,1.0661,1.0721,1.0721,1.0721,1.0721,1.0721,1.0721,1.0721,1.0721,1.0721,1.0721,1.0721,1.0724,1.0724,1.0751,1.0782,1.0809,1.089,1.0995,1.1158,1.1236,1.1287,1.1618,1.1846,1.1526,1.1535,1.1844,0.7998,0.8057,0.8208,0.8294,0.8311,0.8417,0.8465,0.8475,0.8481,0.8461,0.8454,0.8505,0.8512,0.8512,0.8509,0.8482,0.8492,0.8515,0.855,0.8672,0.8804,0.8804,0.8723,0.8804,0.8737,0.8573,0.8655,0.8726,0.8974,0.9384,0.9561,0.9397,0.9734,0.9957,0.9562,1.0931,1.1512,1.1716,1.2675,1.3359,1.3633,1.3315,1.3225,1.3358,1.3463,1.3397,1.3295,1.3448,1.3627,1.352,1.3337,1.3281,1.3026,1.2859,1.305,1.2648,1.1756,1.1116,1.092,0.9889,0.935,0.9386,0.9314,0.9677,0.9813,0.9669,0.97,0.9839,0.9765,0.9686,0.9768,1.0074,1.0185,0.9835,0.9991,0.989,0.9818,0.9795,0.9852,1.0001,1.0185,1.0366,1.0439,1.0483,1.0548,1.0649,1.069,1.0661,1.0681,1.0721,1.0721,1.0721,1.0721,1.0721,1.0721,1.0721,1.0721,1.0721,1.0721,1.0721,1.0701,1.0711,1.0786,1.0833,1.1012,1.1097,1.1171,1.1328,1.1419,1.148,1.1562,1.1579,1.1589,1.1596,1.1603,0.8252,0.8343,0.842,0.8418,0.8447,0.8492,0.8509,0.8509,0.8509,0.8509,0.8526,0.8594,0.8642,0.8642,0.8642,0.8696,0.8754,0.8696,0.8642,0.8706,0.8841,0.8885,0.8855,0.8889,0.8838,0.8808,0.8944,0.9097,0.9184,0.9364,0.9513,0.9608,0.9649,0.9683,0.9703,1.0121,1.0287,1.0274,1.0637,1.0868,1.0856,1.0809,1.0806,1.0837,1.0734,1.0671,1.0697,1.2335,1.3248,1.3193,1.2322,1.1351,1.0539,1.0264,1.0268,1.0241,0.9888,0.9588,0.9565,0.922,0.8967,0.9069,0.9162,0.932,0.9432,0.9503,0.9602,0.9697,0.9724,0.9781,0.9781,0.9788,0.9795,0.9792,0.9781,0.9741,0.9812,0.9896,1.0011,1.0188,1.0337,1.0439,1.05,1.0565,1.0656,1.07,1.0721,1.0721,1.0721,1.0721,1.0721,1.0721,1.0721,1.0721,1.0721,1.0721,1.0721,1.0721,1.0721,1.0721,1.0735,1.0769,1.0843,1.0978,1.1158,1.1277,1.1389,1.147,1.1509,1.1546,1.1596,1.1606,1.158,1.158,1.158,0.8427,0.8515,0.8543,0.8567,0.86,0.8621,0.8655,0.8652,0.8652,0.8652,0.8676,0.8723,0.8767,0.8767,0.8767,0.8821,0.8868,0.8804,0.8767,0.8777,0.8855,0.8909,0.8909,0.8909,0.8946,0.9039,0.9196,0.9342,0.9499,0.9615,0.9704,0.9775,0.9788,0.9785,0.9788,0.9788,0.9768,0.9666,0.9716,0.969,0.9669,0.9591,0.9588,0.9656,0.9544,0.9473,0.9592,1.1077,1.1864,1.1707,1.0893,0.99,0.9002,0.8964,0.8909,0.8919,0.8991,0.9046,0.9025,0.9111,0.9133,0.9254,0.9315,0.9395,0.9552,0.9642,0.9707,0.9771,0.9785,0.9788,0.9788,0.9788,0.9842,0.9876,0.9879,0.99,0.9988,1.0089,1.0207,1.0365,1.0487,1.0555,1.0605,1.0643,1.0717,1.0721,1.0721,1.0721,1.0721,1.0721,1.0721,1.0721,1.0721,1.0721,1.0721,1.0721,1.0721,1.0721,1.0721,1.0745,1.0792,1.0843,1.0911,1.113,1.1335,1.1426,1.1528,1.1552,1.157,1.158,1.158,1.158,1.158,1.158,1.158,0.8499,0.8553,0.8662,0.8696,0.8713,0.8831,0.8875,0.8896,0.8889,0.8875,0.8889,0.8882,0.8896,0.8902,0.8885,0.8896,0.8909,0.8902,0.8885,0.8889,0.8909,0.8909,0.8909,0.8909,0.9008,0.9169,0.9318,0.9475,0.9585,0.9727,0.9788,0.9788,0.9788,0.9788,0.9788,0.9788,0.9785,0.9771,0.9775,0.9775,0.9775,0.9775,0.9771,0.9771,0.969,0.9618,0.9654,0.9798,0.9678,0.9476,0.9507,0.931,0.9005,0.8936,0.8967,0.898,0.9128,0.9179,0.9226,0.9291,0.9357,0.9395,0.9493,0.9618,0.9646,0.9704,0.9768,0.9788,0.9788,0.9788,0.9788,0.9815,0.9886,1.0018,1.0045,1.0096,1.027,1.0392,1.0453,1.051,1.0629,1.0714,1.0697,1.0677,1.0717,1.0721,1.0721,1.0721,1.0721,1.0721,1.0721,1.0721,1.0721,1.0721,1.0721,1.0721,1.0731,1.0772,1.0765,1.0806,1.089,1.0958,1.1073,1.1324,1.1457,1.1555,1.1609,1.1616,1.158,1.158,1.158,1.158,1.158,1.158,1.158,0.8713,0.8794,0.8835,0.8852,0.8855,0.8871,0.8881,0.8881,0.8854,0.8685,0.8854,0.8909,0.8743,0.8881,0.8826,0.8909,0.874,0.8826,0.8909,0.8909,0.8909,0.8909,0.8909,0.8912,0.9018,0.9221,0.9342,0.9459,0.9608,0.9724,0.9788,0.9788,0.9788,0.9788,0.9788,0.9788,0.9788,0.9788,0.9788,0.9788,0.9788,0.9788,0.9788,0.9785,0.9751,0.9761,0.9734,0.9727,0.9591,0.9424,0.9351,0.9335,0.9252,0.9245,0.9235,0.9245,0.9286,0.9349,0.9359,0.9396,0.9464,0.9537,0.9591,0.9652,0.9761,0.9765,0.9788,0.9788,0.9788,0.9788,0.9805,0.9893,1.0062,1.0278,1.0283,1.0287,1.0405,1.0466,1.0531,1.0606,1.0697,1.0714,1.0721,1.0721,1.0721,1.0721,1.0721,1.0721,1.0721,1.0721,1.0721,1.0721,1.0721,1.0721,1.0721,1.0721,1.0765,1.0843,1.0877,1.089,1.0999,1.1148,1.1318,1.1525,1.1531,1.1603,1.1613,1.158,1.158,1.158,1.158,1.158,1.158,1.158,1.158,0.6971,0.7035,0.7035,0.7035,0.7063,0.7035,0.7035,0.7035,0.7063,0.7038,0.7063,0.7035,0.7035,0.7063,0.7038,0.7038,0.7118,0.7706,0.7959,0.8069,0.8574,0.8881,0.8909,0.8912,0.9045,0.9267,0.9337,0.95,0.9646,0.9754,0.9785,0.9788,0.9788,0.9788,0.9788,0.9788,0.9788,0.9788,0.9788,0.9788,0.9788,0.9788,0.9788,0.9788,0.9788,0.9788,0.9788,0.9788,0.9707,0.953,0.9476,0.9452,0.9388,0.941,0.941,0.941,0.9435,0.9476,0.949,0.9527,0.9605,0.9646,0.967,0.9707,0.9768,0.9788,0.9788,0.9788,0.9788,0.9788,0.9825,0.9981,1.0239,1.0429,1.0473,1.0497,1.0582,1.0592,1.0629,1.0694,1.0721,1.0721,1.0721,1.0721,1.0721,1.0721,1.0721,1.0721,1.0721,1.0721,1.0721,1.0721,1.0721,1.0721,1.0727,1.0698,1.0799,1.0911,1.1076,1.1073,1.1144,1.1307,1.144,1.1582,1.1567,1.158,1.158,1.158,1.158,1.158,1.158,1.158,1.158,1.158,1.158,0.4498,0.4498,0.4498,0.4498,0.4637,0.4526,0.4804,0.4582,0.4777,0.4749,0.4777,0.4582,0.4916,0.4498,0.5055,0.4637,0.4751,0.6005,0.6366,0.6897,0.7679,0.8463,0.8432,0.8799,0.9068,0.9349,0.9407,0.9551,0.9704,0.9785,0.9788,0.9788,0.9788,0.9788,0.9788,0.9788,0.9788,0.9788,0.9788,0.9788,0.9788,0.9788,0.9788,0.9788,0.9788,0.9788,0.9788,0.9785,0.9754,0.9606,0.9632,0.9571,0.9456,0.9435,0.9442,0.9473,0.9571,0.9599,0.9616,0.9727,0.9768,0.9771,0.9775,0.9788,0.9788,0.9788,0.9788,0.9788,0.9788,0.9819,0.9947,1.0148,1.0351,1.0517,1.0606,1.07,1.0721,1.0721,1.0721,1.0721,1.0721,1.0721,1.0721,1.0721,1.0721,1.0721,1.0721,1.0721,1.0721,1.0721,1.0721,1.0721,1.0721,1.0721,1.0698,1.0711,1.085,1.0995,1.1239,1.133,1.1382,1.1474,1.1552,1.158,1.158,1.158,1.158,1.158,1.158,1.158,1.158,1.158,1.158,1.158,1.158,0.4498,0.4498,0.4498,0.4498,0.4498,0.4498,0.4442,0.4387,0.4414,0.4219,0.4414,0.4414,0.4359,0.4359,0.4219,0.4498,0.4247,0.4749,0.4972,0.5166,0.6478,0.7091,0.7426,0.8128,0.8987,0.9281,0.9407,0.9537,0.9747,0.9781,0.9788,0.9788,0.9788,0.9788,0.9788,0.9788,0.9788,0.9788,0.9788,0.9788,0.9788,0.9788,0.9788,0.9788,0.9788,0.9788,0.9788,0.9788,0.9775,0.9751,0.9734,0.9734,0.97,0.967,0.9666,0.967,0.973,0.9737,0.9781,0.9765,0.9788,0.9788,0.9788,0.9788,0.9788,0.9788,0.9788,0.9788,0.9795,0.9917,1.0127,1.0327,1.049,1.0619,1.069,1.0721,1.0721,1.0721,1.0721,1.0721,1.0721,1.0721,1.0721,1.0721,1.0721,1.0721,1.0721,1.0721,1.0721,1.0721,1.0721,1.0721,1.0721,1.0724,1.0721,1.0786,1.0968,1.111,1.134,1.1489,1.1541,1.1558,1.1603,1.158,1.158,1.158,1.158,1.158,1.158,1.158,1.158,1.158,1.158,1.158,1.158,0.2377,0.2377,0.2378,0.2378,0.2377,0.2405,0.2377,0.2378,0.2405,0.2405,0.2377,0.2405,0.2378,0.2406,0.2377,0.2349,0.26,0.3186,0.3855,0.4498,0.5389,0.5639,0.5725,0.6573,0.7503,0.8912,0.9383,0.9517,0.968,0.9724,0.9788,0.9788,0.9788,0.9788,0.9788,0.9788,0.9788,0.9788,0.9788,0.9788,0.9788,0.9788,0.9788,0.9788,0.9788,0.9788,0.9788,0.9788,0.9788,0.9788,0.9788,0.9788,0.9788,0.9788,0.9788,0.9788,0.9788,0.9788,0.9788,0.9788,0.9788,0.9788,0.9788,0.9788,0.9788,0.9788,0.9788,0.9788,0.9815,0.9944,1.0274,1.0409,1.0555,1.0677,1.0721,1.0721,1.0721,1.0721,1.0721,1.0721,1.0721,1.0721,1.0721,1.0721,1.0721,1.0721,1.0721,1.0721,1.0721,1.0721,1.0721,1.0721,1.0721,1.0734,1.0742,1.09,1.1128,1.1287,1.146,1.1555,1.1589,1.1603,1.158,1.158,1.158,1.158,1.158,1.158,1.158,1.158,1.158,1.158,1.158,1.158,1.158,0.0,0.0,0.0,0.0,0.0,0.0,0.0,0.0,0.0,0.0,0.0,0.0,0.0,0.0,0.0,0.0,0.0,0.1231,0.2432,0.3269,0.3883,0.4106,0.4247,0.484,0.5958,0.8332,0.8279,0.8518,0.9046,0.9406,0.9387,0.9667,0.9788,0.9788,0.9788,0.9788,0.9788,0.9788,0.9788,0.9788,0.9788,0.9788,0.9788,0.9788,0.9788,0.9788,0.9697,0.9511,0.9451,0.9758,0.9576,0.9606,0.9788,0.9788,0.9788,0.9788,0.9788,0.9788,0.9788,0.9788,0.9788,0.9788,0.9788,0.9788,0.9788,0.9788,0.9788,0.9819,0.9893,1.0042,1.0283,1.0463,1.0588,1.0683,1.0721,1.0721,1.0721,1.0721,1.0721,1.0721,1.0721,1.0721,1.0721,1.0721,1.0721,1.0721,1.0721,1.0721,1.0721,1.0721,1.0721,1.0721,1.0721,1.0846,1.0907,1.0955,1.1185,1.1392,1.1555,1.1579,1.158,1.158,1.158,1.158,1.158,1.158,1.158,1.158,1.158,1.158,1.158,1.158,1.158,1.158,1.158,0.0,0.0,0.0,0.0,0.0,0.0,0.0,0.0,0.0,0.0,0.0,0.0,0.0,0.0,0.0,0.0,0.0,0.0,0.0,0.0,0.2042,0.2599,0.2766,0.3522,0.4594,0.5087,0.5477,0.6163,0.7462,0.7823,0.8602,0.9508,0.9788,0.9788,0.9636,0.9788,0.97,0.9545,0.9697,0.9788,0.9788,0.9606,0.939,0.9359,0.9207,0.9299,0.9204,0.8526,0.8404,0.9484,0.8495,0.862,0.9113,0.9451,0.9545,0.9788,0.9788,0.9788,0.9788,0.9788,0.9788,0.9788,0.9788,0.9788,0.9788,0.9792,0.9798,0.9873,1.0053,1.0263,1.0436,1.0568,1.0663,1.0717,1.0721,1.0721,1.0721,1.0721,1.0721,1.0721,1.0721,1.0721,1.0721,1.0721,1.0721,1.0721,1.0721,1.0721,1.0721,1.0721,1.0721,1.0721,1.0721,1.0897,1.1101,1.1138,1.1264,1.1457,1.1592,1.1592,1.158,1.158,1.158,1.158,1.158,1.158,1.158,1.158,1.158,1.158,1.158,1.158,1.158,1.158,1.158,0.0,0.0,0.0,0.0,0.0,0.0,0.0,0.0,0.0,0.0,0.0,0.0,0.0,0.0,0.0,0.0,0.0,0.0,0.0,0.0,0.0728,0.1063,0.0,0.0,0.207,0.2196,0.2323,0.3711,0.5901,0.7043,0.7694,0.8517,0.9295,0.942,0.8961,0.939,0.9143,0.8961,0.9265,0.9697,0.9606,0.9083,0.8282,0.752,0.7337,0.7245,0.7121,0.6691,0.6446,0.6907,0.6508,0.663,0.709,0.752,0.8072,0.9299,0.9697,0.9758,0.9788,0.9788,0.9788,0.9788,0.9788,0.9788,0.9788,0.9795,0.9829,0.9944,1.0117,1.0341,1.0473,1.0633,1.0704,1.0721,1.0721,1.0721,1.0721,1.0721,1.0721,1.0721,1.0721,1.0721,1.0721,1.0721,1.0721,1.0721,1.0721,1.0721,1.0721,1.0721,1.0721,1.0721,1.0734,1.0894,1.1111,1.1189,1.1308,1.1501,1.158,1.158,1.158,1.158,1.158,1.158,1.158,1.158,1.158,1.158,1.158,1.158,1.158,1.158,1.158,1.158,1.158,0.0,0.0,0.0,0.0,0.0,0.0,0.0,0.0,0.0,0.0,0.0,0.0,0.0,0.0,0.0,0.0,0.0,0.0,0.0,0.0,0.0,0.0,0.0,0.0,0.0,0.0,0.0,0.0,0.3999,0.5395,0.6349,0.7014,0.8272,0.8268,0.7388,0.7825,0.7731,0.7761,0.8008,0.8775,0.8468,0.7548,0.6322,0.5102,0.4918,0.5071,0.5286,0.4702,0.4795,0.4947,0.4794,0.4642,0.4856,0.4918,0.6143,0.8318,0.9055,0.9295,0.9326,0.9758,0.9788,0.9788,0.9788,0.9788,0.9808,0.9839,0.9907,1.0052,1.0239,1.0399,1.0544,1.0649,1.0707,1.0721,1.0721,1.0721,1.0721,1.0721,1.0721,1.0721,1.0721,1.0721,1.0721,1.0721,1.0721,1.0721,1.0721,1.0721,1.0721,1.0721,1.0721,1.0721,1.0765,1.0894,1.1067,1.1183,1.1346,1.1545,1.1613,1.158,1.158,1.158,1.158,1.158,1.158,1.158,1.158,1.158,1.158,1.158,1.158,1.158,1.158,1.158,1.158,0.0,0.0,0.0,0.0,0.0,0.0,0.0,0.0,0.0,0.0,0.0,0.0,0.0,0.0,0.0,0.0,0.0,0.0,0.0,0.0,0.0,0.0,0.0,0.0,0.0,0.0,0.0,0.0,0.2529,0.3183,0.4003,0.51,0.5612,0.5388,0.5353,0.592,0.5376,0.5284,0.5498,0.5651,0.5557,0.5345,0.5006,0.4702,0.458,0.4458,0.4151,0.3414,0.3262,0.4272,0.3353,0.3537,0.458,0.4918,0.4977,0.5804,0.6691,0.7698,0.782,0.8772,0.9511,0.9511,0.9697,0.9788,0.9815,0.9913,1.0028,1.0239,1.0375,1.0507,1.0626,1.0697,1.0721,1.0721,1.0721,1.0721,1.0721,1.0721,1.0721,1.0721,1.0721,1.0721,1.0721,1.0721,1.0721,1.0721,1.0721,1.0721,1.0721,1.0721,1.0721,1.0721,1.0792,1.0921,1.1101,1.1203,1.1376,1.1582,1.1609,1.158,1.158,1.158,1.158,1.158,1.158,1.158,1.158,1.158,1.158,1.158,1.158,1.158,1.158,1.158,1.158,0.0,0.0,0.0,0.0,0.0,0.0,0.0,0.0,0.0,0.0,0.0,0.0,0.0,0.0,0.0,0.0,0.0,0.0,0.0,0.0,0.0,0.0,0.0,0.0,0.0,0.0,0.0,0.0,0.1194,0.2099,0.2978,0.3465,0.4305,0.4425,0.3772,0.4439,0.4237,0.4119,0.4304,0.4395,0.3813,0.3475,0.3107,0.0,0.0,0.0,0.0,0.1633,0.1356,0.2001,0.1294,0.1356,0.194,0.2094,0.2124,0.2248,0.3689,0.4945,0.5986,0.7515,0.8279,0.8803,0.9204,0.9788,0.9822,0.9937,1.0089,1.0266,1.0409,1.0555,1.065,1.0717,1.0721,1.0684,1.0585,1.0552,1.0552,1.0684,1.0721,1.0721,1.0721,1.0721,1.0721,1.0721,1.0721,1.0721,1.0721,1.0721,1.0721,1.0721,1.0721,1.0721,1.0822,1.0914,1.1104,1.1278,1.1385,1.1569,1.1613,1.158,1.158,1.158,1.158,1.158,1.158,1.158,1.158,1.158,1.158,1.158,1.158,1.158,1.158,1.158,1.158,0.0,0.0,0.0,0.0,0.0,0.0,0.0,0.0,0.0,0.0,0.0,0.0,0.0,0.0,0.0,0.0,0.0,0.0,0.0,0.0,0.0,0.0,0.0,0.0,0.0,0.0,0.0,0.0,0.0,0.1078,0.1724,0.1927,0.2678,0.2803,0.247,0.2673,0.2751,0.2063,0.2831,0.277,0.2064,0.1878,0.1202,0.0,0.0,0.0,0.0,0.0,0.0,0.0,0.0,0.0,0.0,0.0,0.0,0.0,0.1694,0.2462,0.3812,0.5311,0.6656,0.7728,0.8742,0.9792,0.9815,0.995,1.0106,1.0276,1.047,1.0599,1.0654,1.0721,1.028,1.028,1.0313,1.028,1.0246,1.0316,1.0552,1.0721,1.0721,1.0721,1.0721,1.0721,1.0721,1.0721,1.0721,1.0721,1.0721,1.0721,1.0721,1.0724,1.0816,1.0941,1.1124,1.1322,1.144,1.1555,1.1599,1.158,1.158,1.158,1.158,1.158,1.158,1.158,1.158,1.158,1.158,1.158,1.158,1.158,1.158,1.158,1.158,0.0,0.0,0.0,0.0,0.0,0.0,0.0,0.0,0.0,0.0,0.0,0.0,0.0,0.0,0.0,0.0,0.0,0.0,0.0,0.0,0.0,0.0,0.0,0.0,0.0,0.0,0.0,0.0,0.0,0.0,0.0,0.0,0.0,0.0,0.0,0.0,0.0,0.0,0.0,0.0,0.0,0.0,0.0,0.0,0.0,0.0,0.0,0.0,0.0,0.0,0.0,0.0,0.0,0.0,0.0,0.0,0.0,0.0,0.0,0.3597,0.5649,0.7271,0.8437,0.9204,0.9369,0.9944,1.0186,1.0272,1.051,1.066,1.0711,1.0585,1.0081,0.9371,0.9271,0.9039,0.9241,0.9878,1.0114,1.0552,1.0721,1.0721,1.0721,1.0721,1.0721,1.0721,1.0721,1.0721,1.0721,1.0721,1.0721,1.0751,1.0843,1.0972,1.1176,1.1339,1.1487,1.1569,1.1573,1.158,1.158,1.158,1.158,1.158,1.158,1.158,1.158,1.158,1.158,1.158,1.158,1.158,1.158,1.158,1.158,0.0,0.0,0.0,0.0,0.0,0.0,0.0,0.0,0.0,0.0,0.0,0.0,0.0,0.0,0.0,0.0,0.0,0.0,0.0,0.0,0.0,0.0,0.0,0.0,0.0,0.0,0.0,0.0,0.0,0.0,0.0,0.0,0.0,0.0,0.0,0.0,0.0,0.0,0.0,0.0,0.0,0.0,0.0,0.0,0.0,0.0,0.0,0.0,0.0,0.0,0.0,0.0,0.0,0.0,0.0,0.0,0.0,0.0,0.0,0.2155,0.4088,0.5496,0.6477,0.7335,0.8327,0.8614,0.9412,0.9915,1.0446,1.0472,1.0721,1.0618,1.0147,0.887,0.81,0.7833,0.78,0.8338,0.9205,0.9407,1.018,1.0721,1.0721,1.0721,1.0721,1.0721,1.0721,1.0721,1.0721,1.0721,1.0721,1.0789,1.088,1.1026,1.1193,1.1345,1.1538,1.1582,1.158,1.158,1.158,1.158,1.158,1.158,1.158,1.158,1.158,1.158,1.158,1.158,1.158,1.158,1.158,1.158,1.158,0.0,0.0,0.0,0.0,0.0,0.0,0.0,0.0,0.0,0.0,0.0,0.0,0.0,0.0,0.0,0.0,0.0,0.0,0.0,0.0,0.0,0.0,0.0,0.0,0.0,0.0,0.0,0.0,0.0,0.0,0.0,0.0,0.0,0.0,0.0,0.0,0.0,0.0,0.0,0.0,0.0,0.0,0.0,0.0,0.0,0.0,0.0,0.0,0.0,0.0,0.0,0.0,0.0,0.0,0.0,0.0,0.0,0.0,0.0,0.1572,0.2954,0.4057,0.4947,0.5955,0.686,0.7282,0.7755,1.0017,1.0172,1.0081,1.0283,1.0147,0.8909,0.7398,0.6998,0.6664,0.5964,0.6097,0.7329,0.823,0.9069,0.9878,1.0654,1.0654,1.0654,1.0654,1.0721,1.0721,1.0721,1.0721,1.0721,1.0819,1.0962,1.1067,1.121,1.1389,1.1575,1.1589,1.158,1.158,1.158,1.158,1.158,1.158,1.158,1.158,1.158,1.158,1.158,1.158,1.158,1.158,1.158,1.158,1.158,0.0,0.0,0.0,0.0,0.0,0.0,0.0,0.0,0.0,0.0,0.0,0.0,0.0,0.0,0.0,0.0,0.0,0.0,0.0,0.0,0.0,0.0,0.0,0.0,0.0,0.0,0.0,0.0,0.0,0.0,0.0,0.0,0.0,0.0,0.0,0.0,0.0,0.0,0.0,0.0,0.0,0.0,0.0,0.0,0.0,0.0,0.0,0.0,0.0,0.0,0.0,0.0,0.0,0.0,0.0,0.0,0.0,0.0,0.0,0.0,0.2278,0.2554,0.3322,0.4731,0.6236,0.6386,0.6319,0.8556,0.8658,0.9019,0.9238,0.9039,0.7367,0.6364,0.5964,0.4926,0.4158,0.4292,0.5559,0.6427,0.7495,0.8601,0.9812,1.0555,1.0588,1.0621,1.0688,1.0721,1.0721,1.0721,1.0721,1.0816,1.0962,1.1118,1.1244,1.1453,1.1606,1.1616,1.158,1.158,1.158,1.158,1.158,1.158,1.158,1.158,1.158,1.158,1.158,1.158,1.158,1.158,1.158,1.158,1.158,0.0,0.0,0.0,0.0,0.0,0.0,0.0,0.0,0.0,0.0,0.0,0.0,0.0,0.0,0.0,0.0,0.0,0.0,0.0,0.0,0.0,0.0,0.0,0.0,0.0,0.0,0.0,0.0,0.0,0.0,0.0,0.0,0.0,0.0,0.0,0.0,0.0,0.0,0.0,0.0,0.0,0.0,0.0,0.0,0.0,0.0,0.0,0.0,0.0,0.0,0.0,0.0,0.0,0.0,0.0,0.0,0.0,0.0,0.0,0.0648,0.0802,0.0,0.0,0.0,0.3761,0.3823,0.489,0.6265,0.6626,0.7239,0.8133,0.7131,0.5863,0.5429,0.466,0.2886,0.2082,0.2919,0.3855,0.4357,0.5193,0.6929,0.8335,0.9407,0.9676,1.0316,1.0482,1.0651,1.0721,1.0721,1.0724,1.0816,1.0938,1.1111,1.1278,1.146,1.1596,1.158,1.158,1.158,1.158,1.158,1.158,1.158,1.158,1.158,1.158,1.158,1.158,1.158,1.158,1.158,1.158,1.158,1.158,0.0,0.0,0.0,0.0,0.0,0.0,0.0,0.0,0.0,0.0,0.0,0.0,0.0,0.0,0.0,0.0,0.0,0.0,0.0,0.0,0.0,0.0,0.0,0.0,0.0,0.0,0.0,0.0,0.0,0.0,0.0,0.0,0.0,0.0,0.0,0.0,0.0,0.0,0.0,0.0,0.0,0.0,0.0,0.0,0.0,0.0,0.0,0.0,0.0,0.0,0.0,0.0,0.0,0.0,0.0,0.0,0.0,0.0,0.0,0.0,0.0,0.0,0.0,0.0,0.1858,0.209,0.3326,0.4371,0.4559,0.5533,0.6429,0.5263,0.4526,0.4091,0.2986,0.121,0.0,0.0,0.2383,0.2819,0.3456,0.5193,0.6829,0.7831,0.8634,0.944,1.0246,1.0482,1.0721,1.0721,1.0727,1.0802,1.0931,1.1125,1.1291,1.1447,1.1555,1.1573,1.158,1.158,1.158,1.158,1.158,1.158,1.158,1.158,1.158,1.158,1.158,1.158,1.158,1.158,1.158,1.158,1.158,0.0,0.0,0.0,0.0,0.0,0.0,0.0,0.0,0.0,0.0,0.0,0.0,0.0,0.0,0.0,0.0,0.0,0.0,0.0,0.0,0.0,0.0,0.0,0.0,0.0,0.0,0.0,0.0,0.0,0.0,0.0,0.0,0.0,0.0,0.0,0.0,0.0,0.0,0.0,0.0,0.0,0.0,0.0,0.0,0.0,0.0,0.0,0.0,0.0,0.0,0.0,0.0,0.0,0.0,0.0,0.0,0.0,0.0,0.0,0.0,0.0,0.0,0.0,0.0,0.1367,0.1139,0.1892,0.2789,0.3198,0.4061,0.4661,0.3724,0.2786,0.2116,0.1344,0.0,0.0,0.0,0.0,0.1713,0.2183,0.3488,0.5126,0.6295,0.7498,0.8834,0.9709,1.0518,1.0721,1.0721,1.0731,1.0765,1.0914,1.1145,1.1319,1.1443,1.1552,1.158,1.158,1.158,1.158,1.158,1.158,1.158,1.158,1.158,1.158,1.158,1.158,1.158,1.158,1.158,1.158,1.158,1.158,0.0,0.0,0.0,0.0,0.0,0.0,0.0,0.0,0.0,0.0,0.0,0.0,0.0,0.0,0.0,0.0,0.0,0.0,0.0,0.0,0.0,0.0,0.0,0.0,0.0,0.0,0.0,0.0,0.0,0.0,0.0,0.0,0.0,0.0,0.0,0.0,0.0,0.0,0.0,0.0,0.0,0.0,0.0,0.0,0.0,0.0,0.0,0.0,0.0,0.0,0.0,0.0,0.0,0.0,0.0,0.0,0.0,0.0,0.0,0.0,0.0,0.0,0.0,0.0,0.0435,0.0,0.0,0.0,0.0,0.2366,0.2817,0.2216,0.1813,0.1512,0.0,0.0,0.0,0.0,0.0,0.0,0.0,0.1848,0.3454,0.4961,0.6262,0.7833,0.9138,1.0081,1.0721,1.0721,1.0724,1.0758,1.0928,1.1169,1.1302,1.1419,1.1531,1.158,1.158,1.158,1.158,1.158,1.158,1.158,1.158,1.158,1.158,1.158,1.158,1.158,1.158,1.158,1.158,1.158,1.158,0.0,0.0,0.0,0.0,0.0,0.0,0.0,0.0,0.0,0.0,0.0,0.0,0.0,0.0,0.0,0.0,0.0,0.0,0.0,0.0,0.0,0.0,0.0,0.0,0.0,0.0,0.0,0.0,0.0,0.0,0.0,0.0,0.0,0.0,0.0,0.0,0.0,0.0,0.0,0.0,0.0,0.0,0.0,0.0,0.0,0.0,0.0,0.0,0.0,0.0,0.0,0.0,0.0,0.0,0.0,0.0,0.0,0.0,0.0,0.0,0.0,0.0,0.0,0.0,0.0,0.0,0.0,0.0,0.0,0.0401,0.0637,0.0874,0.1176,0.1411,0.0,0.0,0.0,0.0,0.0,0.0,0.0,0.0,0.1848,0.3422,0.4961,0.6531,0.8133,0.954,1.028,1.0721,1.0721,1.0734,1.0945,1.1203,1.128,1.1389,1.1525,1.1573,1.158,1.158,1.158,1.158,1.158,1.158,1.158,1.158,1.158,1.158,1.158,1.158,1.158,1.158,1.158,1.158,1.158,0.0,0.0,-0.0307,0.0,0.0,0.0,0.0,-0.0112,0.0,0.0,0.0,0.0,0.0,0.0,0.0,0.0,0.0,0.0,0.0,0.0,0.0,0.0,0.0,0.0,0.0,0.0,0.0,0.0,0.0,0.0,0.0,0.0,0.0,0.0,0.0,0.0,0.0,0.0,0.0,0.0,0.0,0.0,0.0,0.0,0.0,0.0,0.0,0.0,0.0,0.0,0.0,0.0,0.0,0.0,0.0,0.0,0.0,0.0,0.0,0.0,0.0,0.0,0.0,0.0,0.0,0.0,0.0,0.0,0.0,0.0,0.0,0.0,0.0,0.0,0.0,0.0,0.0,0.0,0.0,0.0,0.0,0.0,0.0773,0.2383,0.4226,0.5529,0.7165,0.887,0.9945,1.0585,1.0721,1.0724,1.0914,1.1114,1.1264,1.1352,1.1521,1.1563,1.1577,1.158,1.158,1.158,1.158,1.158,1.158,1.158,1.158,1.158,1.158,1.158,1.158,1.158,1.158,1.158,1.158,-0.3127,-0.3063,-0.3036,-0.3113,-0.3013,-0.2003,-0.1549,-0.1566,-0.0448,0.0,0.0,0.0,0.0,0.0,0.0,0.0,0.0,0.0,0.0,0.0,0.0,0.0,0.0,0.0,0.0,0.0,0.0,0.0,0.0,0.0,0.0,0.0,0.0,0.0,0.0,0.0,0.0,0.0,0.0,0.0,0.0,0.0,0.0,0.0,0.0,0.0,0.0,0.0,0.0,0.0,0.0,0.0,0.0,0.0,0.0,0.0,0.0,0.0,0.0,0.0,0.0,0.0,0.0,0.0,0.0,0.0,0.0,0.0,0.0,0.0,0.0,0.0,0.0,0.0,0.0,0.0,0.0,0.0,0.0,0.0,0.0,0.0,0.0,0.1478,0.3355,0.516,0.6929,0.8535,0.9775,1.0552,1.0684,1.0744,1.0826,1.0995,1.1162,1.1318,1.1487,1.1553,1.158,1.158,1.158,1.158,1.158,1.158,1.158,1.158,1.158,1.158,1.158,1.158,1.158,1.158,1.158,1.158,1.158,-0.4066,-0.4004,-0.4002,-0.4072,-0.4024,-0.3296,-0.2696,-0.2092,-0.1315,-0.0588,0.0,0.0,0.0,0.0,0.0,0.0,0.0,0.0,0.0,0.0,0.0,0.0,0.0,0.0,0.0,0.0,0.0,0.0,0.0,0.0,0.0,0.0,0.0,0.0,0.0,0.0,0.0,0.0,0.0,0.0,0.0,0.0,0.0,0.0,0.0,0.0,0.0,0.0,0.0,0.0,0.0,0.0,0.0,0.0,0.0,0.0,0.0,0.0,0.0,0.0,0.0,0.0,0.0,0.0,0.0,0.0,0.0,0.0,0.0,0.0,0.0,0.0,0.0,0.0,0.0,0.0,0.0,0.0,0.0,0.0,0.0,0.0,0.0,0.0336,0.2149,0.3724,0.5659,0.7598,0.8939,1.0518,1.0651,1.0744,1.0816,1.0989,1.1148,1.1332,1.1457,1.1538,1.158,1.158,1.158,1.158,1.158,1.158,1.158,1.158,1.158,1.158,1.158,1.158,1.158,1.158,1.158,1.158,1.158,-0.4643,-0.4504,-0.4551,-0.4634,-0.4683,-0.4489,-0.3887,-0.2953,-0.2536,-0.1814,-0.0952,0.0,-0.0476,0.0,0.0,0.0,0.0,0.0,0.0,0.0,0.0,0.0,0.0,0.0,0.0,0.0,0.0,0.0,0.0,0.0,0.0,0.0,0.0,0.0,0.0,0.0,0.0,0.0,0.0,0.0,0.0,0.0,0.0,0.0,0.0,0.0,0.0,0.0,0.0,0.0,0.0,0.0,0.0,0.0,0.0,0.0,0.0,0.0,0.0,0.0,0.0,0.0,0.0,0.0,0.0,0.0,0.0,0.0,0.0,0.0,0.0,0.0,0.0,0.0,0.0,0.0,0.0,0.0,0.0,0.0,0.0,0.0,0.0,0.0,0.1009,0.2552,0.4191,0.5995,0.7833,0.9609,1.0684,1.0738,1.0762,1.0951,1.1159,1.1281,1.1385,1.1545,1.158,1.158,1.158,1.158,1.158,1.158,1.158,1.158,1.158,1.158,1.158,1.158,1.158,1.158,1.158,1.158,1.158,-0.7384,-0.723,-0.7233,-0.7369,-0.7399,-0.6226,-0.5705,-0.5603,-0.4351,-0.3694,-0.3429,-0.3327,0.0,0.0,0.0,0.0,0.0,0.0,0.0,0.0,0.0,0.0,0.0,0.0,0.0,0.0,0.0,0.0,0.0,0.0,0.0,0.0,0.0,0.0,0.0,0.0,0.0,0.0,0.0,0.0,0.0,0.0,0.0,0.0,0.0,0.0,0.0,0.0,0.0,0.0,0.0,0.0,0.0,0.0,0.0,0.0,0.0,0.0,0.0,0.0,0.0,0.0,0.0,0.0,0.0,0.0,0.0,0.0,0.0,0.0,0.0,0.0,0.0,0.0,0.0,0.0,0.0,0.0,0.0,0.0,0.0,0.0,0.0,0.0,0.0706,0.225,0.3856,0.5628,0.7298,0.8939,1.0552,1.0741,1.0732,1.0928,1.1142,1.1196,1.129,1.1477,1.158,1.158,1.158,1.158,1.158,1.158,1.158,1.158,1.158,1.158,1.158,1.158,1.158,1.158,1.158,1.158,1.158]},{"header":{"parameterUnit":"m.s-1","parameterCategory":1,"la1":31.0,"la2":29.5877,"lo1":-88.7671,"lo2":-86.6584,"dx":0.0162,"dy":0.0185,"nx":115,"ny":88,"refTime":"2023-01-02T06:00:00:Z","depth":0,"parameterNumber":3,"parameterNumberName":"V-component_of_WINDS"},"data":[0.0,0.0,0.0,0.0,0.0,0.0,0.0,0.0,0.0,0.0,0.0,0.0,0.0,0.0,0.0,0.0,0.0,0.0,0.0,0.0,0.0,0.0,0.0,0.0,0.0,0.0,0.0,0.0,0.0,0.0,0.0,0.0,0.0,0.0,0.0,0.0,0.0,0.0,0.0,0.0,0.0,0.0,0.0,0.0,0.0,0.0,0.0,0.0,0.0,0.0,0.0,0.0,0.0,0.0,0.0,0.0,0.0,0.0,0.0,0.0,0.0,0.0,0.0,0.0,0.0,0.0,0.0,0.0,0.0,0.0,0.0,0.0,0.0,0.0,0.0,0.0,0.0,0.0,0.0,0.0,0.0,0.0,0.0,0.0,0.0,0.0,0.0,0.0,0.0,0.0,0.0,0.0,0.0,0.0,0.0,0.0,0.0,0.0,0.0,0.0,0.0,0.0,0.0,0.0,0.0,0.0,0.0,0.0,0.0,0.0,0.0,0.0,0.0,0.0,0.0,0.0,0.0,0.0,0.0,0.0,0.0,0.0,0.0,0.0,0.0,0.0,0.0,0.0,0.0,0.0,0.0,0.0,0.0,0.0,0.0,0.0,0.0,0.0,0.0,0.0,0.0,0.0,0.0,0.0,0.0,0.0,0.0,0.0,0.0,0.0,0.0,0.0,0.0,0.0,0.0,0.0,0.0,0.0,0.0,0.0,0.0,0.0,0.0,0.0,0.0,0.0,0.0,0.0,0.0,0.0,0.0,0.0,0.0,0.0,0.0,0.0,0.0,0.0,0.0,0.0,0.0,0.0,0.0,0.0,0.0,0.0,0.0,0.0,0.0,0.0,0.0,0.0,0.0,0.0,0.0,0.0,0.0,0.0,0.0,0.0,0.0,0.0,0.0,0.0,0.0,0.0,0.0,0.0,0.0,0.0,0.0,0.0,0.0,0.0,0.0,0.0,0.0,0.0,0.0,0.0,0.0,0.0,0.0,0.0,0.0,0.0,0.0,0.0,0.0,0.0,0.0,0.0,0.0,0.0,0.0,0.0,0.0,0.0,0.0,0.0,0.0,0.0,0.0,0.0,0.0,0.0,0.0,0.0,0.0,0.0,0.0,0.0,0.0,0.0,0.0,0.0,0.0,0.0,0.0,0.0,0.0,0.0,0.0,0.0,0.0,0.0,0.0,0.0,0.0,0.0,0.0,0.0,0.0,0.0,0.0,0.0,0.0,0.0,0.0,0.0,0.0,0.0,0.0,0.0,0.0,0.0,0.0,0.0,0.0,0.0,0.0,0.0,0.0,0.0,0.0,0.0,0.0,0.0,0.0,0.0,0.0,0.0,0.0,0.0,0.0,0.0,0.0,0.0,0.0,0.0,0.0,0.0,0.0,0.0,0.0,0.0,0.0,0.0,0.0,0.0,0.0,0.0,0.0,0.0,0.0,0.0,0.0,0.0,0.0,0.0,0.0,0.0,0.0,0.0,0.0,0.0,0.0,0.0,0.0,0.0,0.0,0.0,0.0,0.0,0.0,0.0,0.0,0.0,0.0,0.0,0.0,0.0,0.0,0.0,0.0,0.0,0.0,0.0,0.0,0.0,0.0,0.0,0.0,0.0,0.0,0.0,0.0,0.0,0.0,0.0,0.0,0.0,0.0,0.0,0.0,0.0,0.0,0.0,0.0,0.0,0.0,0.0,0.0,0.0,0.0,0.0,0.0,0.0,0.0,0.0,0.0,0.0,0.0,0.0,0.0,0.0,0.0,0.0,0.0,0.0,0.0,0.0,0.0,0.0,0.0,0.0,0.0,0.0,0.0,0.0,0.0,0.0,0.0,0.0,0.0,0.0,0.0,0.0,0.0,0.0,0.0,0.0,0.0,0.0,0.0,0.0,0.0,0.0,0.0,0.0,0.0,0.0,0.0,0.0,0.0,0.0,0.0,0.0,0.0,0.0,0.0,0.0,0.0,0.0,0.0,0.0,0.0,0.0,0.0,0.0,0.0,0.0,0.0,0.0,0.0,0.0,0.0,0.0,0.0,0.0,0.0,0.0,0.0,0.0,0.0,0.0,0.0,0.0,0.0,0.0,0.0,0.0,0.0,0.0,0.0,0.0,0.0,0.0,0.0,0.0,0.0,0.0,0.0,0.0,0.0,0.0,0.0,0.0,0.0,0.0,0.0,0.0,0.0,0.0,0.0,0.0,0.0,0.0,0.0,0.0,0.0,0.0,0.0,0.0,0.0,0.0,0.0,0.0,0.0,0.0,0.0,0.0,0.0,0.0,0.0,0.0,0.0,0.0,0.0,0.0,0.0,0.0,0.0,0.0,0.0,0.0,0.0,0.0,0.0,0.0,0.0,0.0,0.0,0.0,0.0,0.0,0.0,0.0,0.0,0.0,0.0,0.0,0.0,0.0,0.0,0.0,0.0,0.0,0.0,0.0,0.0,0.0,0.0,0.0,0.0,0.0,0.0,0.0,0.0,0.0,0.0,0.0,0.0,0.0,0.0,0.0,0.0,0.0,0.0,0.0,0.0,0.0,0.0,0.0,0.0,0.0,0.0,0.0,0.0,0.0,0.0,0.0,0.0,0.0,0.0,0.0,0.0,0.0,0.0,0.0,0.0,0.0,0.0,0.0,0.0,0.0,0.0,0.0,0.0,0.0,0.0,0.0,0.0,0.0,0.0,0.0,0.0,0.0,0.0,0.0,0.0,0.0,0.0,0.0,0.0,0.0,0.0,0.0,0.0,0.0,0.0,0.0,0.0,0.0,0.0,0.0,0.0,0.0,0.0,0.0,0.0,0.0,0.0,0.0,0.0,0.0,0.0,0.0,0.0,0.0,0.0,0.0,0.0,0.0,0.0,0.0,0.0,0.0,0.0,0.0,0.0,0.0,0.0,0.0,0.0,0.0,0.0,0.0,0.0,0.0,0.0,0.0,0.0,0.0,0.0,0.0,0.0,0.0,0.0,0.0,0.0,0.0,0.0,0.0,0.0,0.0,0.0,0.0,0.0,0.0,0.0,0.0,0.0,0.0,0.0,0.0,0.0,0.0,0.0,0.0,0.0,0.0,0.0,0.0,0.0,0.0,0.0,0.0,0.0,0.0,0.0,0.0,0.0,0.0,0.0,0.0,0.0,0.0,0.0,0.0,0.0,0.0,0.0,0.0,0.0,0.0,0.0,0.0,0.0,0.0,0.0,0.0,0.0,0.0,0.0,0.0,0.0,0.0,0.0,0.0,0.0,0.0,0.0,0.0,0.0,0.0,0.0,0.0,0.0,0.0,0.0,0.0,0.0,0.0,0.0,0.0,0.0,0.0,0.0,0.0,0.0,0.0,0.0,0.0,0.0,0.0,0.0,0.0,0.0,0.0,0.0,0.0,0.0,0.0,0.0,0.0,0.0,0.0,0.0,0.0,0.0,0.0,0.0,0.0,0.0,0.0,0.0,0.0,0.0,0.0,0.0,0.0,0.0,0.0,0.0,0.0,0.0,0.0,0.0,0.0,0.0,0.0,0.0,0.0,0.0,0.0,0.0,0.0,0.0,0.0,0.0,0.0,0.0,0.0,0.0,0.0,0.0,0.0,0.0,0.0,0.0,0.0,0.0,0.0,0.0,0.0,0.0,0.0,0.0,0.0,0.0,0.0,0.0,0.0,0.0,0.0,0.0,0.0,0.0,0.0,0.0,0.0,0.0,0.0,0.0,0.0,0.0,0.0,0.0,0.0,0.0,0.0,0.0,0.0,0.0,0.0,0.0,0.0,0.0,0.0,0.0,0.0,0.0,0.0,0.0,0.0,0.0,0.0,0.0,0.0,0.0,0.0,0.0,0.0,0.0,0.0,0.0,0.0,0.0,0.0,0.0,0.0,0.0,0.0,0.0,0.0,0.0,0.0,0.0,0.0,0.0,0.0,0.0,0.0,0.0,0.0,0.0,0.0,0.0,0.0,0.0,0.0,0.0,0.0,0.0,0.0,0.0,0.0,0.0,0.0,0.0,0.0,0.0,0.0,0.0,0.0,0.0,0.0,0.0,0.0,0.0,0.0,0.0,0.0,0.0,0.0,0.0,0.0,0.0,0.0,0.0,0.0,0.0,0.0,0.0,0.0,0.0,0.0,0.0,0.0,0.0,0.0,0.0,0.0,0.0,0.0,0.0,0.0,0.0,0.0,0.0,0.0,0.0,0.0,0.0,0.0,0.0,0.0,0.0,0.0,0.0,0.0,0.0,0.0,0.0,0.0,0.0,0.0,0.0,0.0,0.0,0.0,0.9699,0.0,0.0,0.0,0.9954,0.0,0.0,0.0,0.0,0.0,0.0,0.0,0.0,0.0,0.0,0.0,0.0,0.0,0.0,0.0,0.0,0.0,0.0,0.0,0.0,0.0,0.0,0.0,0.0,0.0,0.0,0.0,0.0,0.0,0.0,0.0,0.0,0.0,0.0,0.0,0.0,0.0,0.0,0.0,0.0,0.0,0.0,0.0,0.0,0.0,0.0,0.0,0.0,0.0,0.0,0.0,0.0,0.0,0.0,0.0,0.0,0.0,0.0,0.0,0.0,0.0,0.0,0.0,0.0,0.0,0.0,0.0,0.0,0.0,0.0,0.0,0.0,0.0,0.0,0.0,0.0,0.0,0.0,0.0,0.0,0.0,0.0,0.0,0.0,0.0,0.0,0.0,0.0,0.0,0.0,0.0,0.0,0.0,0.0,0.0,0.0,0.0,0.0,0.0,0.0,0.0,0.0,0.0,0.0,0.0,0.0,0.0,0.0,0.0,0.0,1.0288,1.0298,1.0762,1.0799,1.0419,0.0,0.0,0.0,0.0,0.0,0.0,0.0,0.0,0.0,0.0,0.0,0.0,0.0,0.0,0.0,0.0,0.0,0.0,0.0,0.0,0.0,0.0,0.0,0.0,0.0,0.0,0.0,0.0,0.0,0.0,0.0,0.0,0.0,0.0,0.0,0.0,0.0,0.0,0.0,0.0,0.0,0.0,0.0,0.0,0.0,0.0,0.0,0.0,0.0,0.0,0.0,0.0,0.0,0.0,0.0,0.0,0.0,0.0,0.0,0.0,0.0,0.0,0.0,0.0,0.0,0.0,0.0,0.0,0.0,0.0,0.0,0.0,0.0,0.0,0.0,0.0,0.0,0.0,0.0,0.0,0.0,0.0,0.0,0.0,0.0,0.0,0.0,0.0,0.0,0.0,0.0,0.0,0.0,0.0,0.0,0.0,0.0,0.0,0.0,0.0,0.0,0.0,0.0,0.0,0.0,0.0,0.0,0.0,0.0,0.0,0.0,0.0,1.1732,1.1824,1.1205,0.0,0.0,0.0,0.0,0.0,0.0,0.0,0.0,0.0,0.0,0.0,0.0,0.0,0.0,0.0,0.0,0.0,0.0,0.0,0.0,0.0,0.0,0.0,0.0,0.0,0.0,0.0,0.0,0.0,0.0,0.0,0.0,0.0,0.0,0.0,0.0,0.0,0.0,0.0,0.0,0.0,0.0,0.0,0.0,0.0,0.0,0.0,0.0,0.0,0.0,0.0,0.0,0.0,0.0,0.0,0.0,0.0,0.0,0.0,0.0,0.0,0.0,0.0,0.0,0.0,0.0,0.0,0.0,0.0,0.0,0.0,0.0,0.0,0.0,0.0,0.0,0.0,0.0,0.0,0.0,0.0,0.0,0.0,0.0,0.0,0.0,0.0,0.0,0.0,0.0,0.0,0.0,0.0,0.0,0.0,0.0,0.0,0.0,0.0,0.0,0.0,0.0,0.0,0.0,0.0,0.0,0.0,0.0,0.0,0.0,1.1897,1.1902,1.2024,0.0,1.2044,0.0,0.0,0.0,0.0,0.0,0.0,0.0,0.0,0.0,0.0,0.0,0.0,0.0,0.0,0.0,0.0,0.0,0.0,0.0,0.0,0.0,0.0,0.0,0.0,0.0,0.0,0.0,0.0,0.0,0.0,0.0,0.0,0.0,0.0,0.0,0.0,0.0,0.0,0.0,0.0,0.0,0.0,0.0,0.0,0.0,0.0,0.0,0.0,0.0,0.0,0.0,0.0,0.0,0.0,0.0,0.0,0.0,0.0,0.0,0.0,0.0,0.0,0.0,0.0,0.0,0.0,0.0,0.0,0.0,0.0,0.0,0.0,0.0,0.0,0.0,0.0,0.0,0.0,0.0,0.0,0.0,0.0,0.0,0.0,0.0,0.0,0.0,0.0,0.0,0.0,0.0,0.0,0.0,0.0,0.0,0.0,0.0,0.0,0.0,0.0,0.0,0.0,0.0,0.0,0.0,0.0,0.0,0.0,0.0,0.0,1.2611,1.2641,1.2751,1.2826,0.0,0.0,0.0,0.0,0.0,0.0,0.0,0.0,0.0,0.0,0.0,0.0,0.0,0.0,0.0,0.0,0.0,0.0,0.0,0.0,0.0,0.0,0.0,0.0,0.0,0.0,0.0,0.0,0.0,0.0,0.0,0.0,0.0,0.0,0.0,0.0,0.0,0.0,0.0,0.0,0.0,0.0,0.0,0.0,0.0,0.0,0.0,0.0,0.0,0.0,0.0,0.0,0.0,0.0,0.0,0.0,0.0,0.0,0.0,0.0,0.0,0.0,0.0,0.0,0.0,0.0,0.0,0.0,0.0,0.0,0.0,0.0,0.0,0.0,0.0,0.0,0.0,0.0,0.0,0.0,0.0,0.0,0.0,0.0,0.0,0.0,0.0,0.0,0.0,0.0,0.0,0.0,0.0,0.0,0.0,0.0,0.0,0.0,0.0,0.0,0.0,0.0,0.0,0.0,0.0,0.0,0.0,0.0,0.0,0.0,1.3055,1.3353,1.3431,1.3513,1.3596,1.3629,0.0,0.0,0.0,0.0,0.0,0.0,0.0,0.0,0.0,0.0,0.0,0.0,0.0,0.0,0.0,0.0,0.0,0.0,0.0,0.0,0.0,0.0,0.0,0.0,0.0,0.0,0.0,0.0,0.0,0.0,0.0,0.0,0.0,0.0,0.0,0.0,0.0,0.0,0.0,0.0,0.0,0.0,0.0,0.0,0.0,0.0,0.0,0.0,0.0,0.0,0.0,0.0,0.0,0.0,0.0,0.0,0.0,0.0,0.0,0.0,0.0,0.0,0.0,0.0,0.0,0.0,0.0,0.0,0.0,0.0,0.0,0.0,0.0,0.0,0.0,0.0,0.0,0.0,0.0,0.0,0.0,0.0,0.0,0.0,0.0,0.0,0.0,0.0,0.0,0.0,0.0,0.0,0.0,0.0,0.0,0.0,0.0,0.0,0.0,0.0,0.0,0.0,0.0,0.0,0.0,0.0,0.0,0.0,1.4054,1.4144,1.4185,1.4275,1.4267,1.4317,0.0,0.0,0.0,0.0,0.0,0.0,0.0,0.0,0.0,0.0,0.0,0.0,0.0,0.0,0.0,0.0,0.0,0.0,0.0,0.0,0.0,0.0,0.0,0.0,0.0,0.0,0.0,0.0,0.0,0.0,0.0,0.0,0.0,0.0,0.0,0.0,0.0,0.0,0.0,0.0,0.0,0.0,0.0,0.0,0.0,0.0,0.0,0.0,0.0,0.0,0.0,0.0,0.0,0.0,0.0,0.0,0.0,0.0,0.0,0.0,0.0,0.0,0.0,0.0,0.0,0.0,0.0,0.0,0.0,0.0,0.0,0.0,0.0,0.0,0.0,0.0,0.0,0.0,0.0,0.0,0.0,0.0,0.0,0.0,0.0,0.0,0.0,0.0,0.0,0.0,0.0,0.0,0.0,0.0,0.0,0.0,0.0,0.0,0.0,0.0,0.0,0.0,0.0,0.0,0.0,0.0,0.0,0.0,0.0,1.4898,1.5397,1.568,1.5684,1.5294,1.5119,0.0,0.0,0.0,0.0,0.0,0.0,0.0,0.0,0.0,0.0,0.0,0.0,0.0,0.0,0.0,0.0,0.0,0.0,0.0,0.0,0.0,0.0,0.0,0.0,0.0,0.0,0.0,0.0,0.0,0.0,0.0,0.0,0.0,0.0,0.0,0.0,0.0,0.0,0.0,0.0,0.0,0.0,0.0,0.0,0.0,0.0,0.0,0.0,0.0,0.0,0.0,0.0,0.0,0.0,0.0,0.0,0.0,0.0,0.0,0.0,0.0,0.0,0.0,0.0,0.0,0.0,0.0,0.0,0.0,0.0,0.0,0.0,0.0,0.0,0.0,0.0,0.0,0.0,0.0,0.0,0.0,0.0,0.0,0.0,0.0,0.0,0.0,0.0,0.0,0.0,0.0,0.0,0.0,0.0,0.0,0.0,0.0,0.0,0.0,0.0,0.0,0.0,0.0,0.0,0.0,0.0,0.0,0.0,0.0,1.5638,1.6162,1.6455,1.6457,1.6032,1.5731,0.0,0.0,0.0,0.0,0.0,0.0,0.0,0.0,0.0,0.0,0.0,0.0,0.0,0.0,0.0,0.0,0.0,0.0,0.0,0.0,0.0,0.0,0.0,0.0,0.0,0.0,0.0,0.0,0.0,0.0,0.0,0.0,0.0,0.0,0.0,0.0,0.0,0.0,0.0,0.0,0.0,0.0,0.0,0.0,0.0,0.0,0.0,0.0,0.0,0.0,0.0,0.0,0.0,0.0,0.0,0.0,0.0,0.0,0.0,0.0,0.0,0.0,0.0,0.0,0.0,0.0,0.0,0.0,0.0,0.0,0.0,0.0,0.0,0.0,0.0,0.0,0.0,0.0,0.0,0.0,0.0,0.0,0.0,0.0,0.0,0.0,0.0,0.0,0.0,0.0,0.0,0.0,0.0,0.0,0.0,0.0,0.0,0.0,0.0,0.0,0.0,0.0,0.0,0.0,0.0,0.0,0.0,0.0,1.5716,1.6396,1.6443,1.6566,1.6446,1.6508,1.6188,0.0,0.0,0.0,0.0,0.0,0.0,0.0,0.0,0.0,0.0,0.0,0.0,0.0,0.0,0.0,0.0,0.0,0.0,0.0,0.0,0.0,0.0,0.0,0.0,0.0,0.0,0.0,0.0,0.0,0.0,0.0,0.0,0.0,0.0,0.0,0.0,0.0,0.0,0.0,0.0,0.0,0.0,0.0,0.0,0.0,0.0,0.0,0.0,0.0,0.0,0.0,0.0,0.0,0.0,0.0,0.0,0.0,0.0,0.0,0.0,0.0,0.0,0.0,0.0,0.0,0.0,0.0,0.0,0.0,0.0,0.0,0.0,0.0,0.0,0.0,0.0,0.0,0.0,0.0,0.0,0.0,0.0,0.0,0.0,0.0,0.0,0.0,0.0,0.0,0.0,0.0,0.0,0.0,0.0,0.0,0.0,0.0,0.0,0.0,0.0,0.0,0.0,0.0,0.0,0.0,0.0,0.0,0.0,0.0,1.7854,1.8913,1.9482,1.9467,1.8504,1.7923,0.0,0.0,0.0,0.0,0.0,0.0,0.0,0.0,0.0,0.0,0.0,0.0,0.0,0.0,0.0,0.0,0.0,0.0,0.0,0.0,0.0,0.0,0.0,0.0,0.0,0.0,0.0,0.0,0.0,0.0,0.0,0.0,0.0,0.0,0.0,0.0,0.0,0.0,0.0,0.0,0.0,0.0,0.0,0.0,0.0,0.0,0.0,0.0,0.0,0.0,0.0,0.0,0.0,0.0,0.0,0.0,0.0,0.0,0.0,0.0,0.0,0.0,0.0,0.0,0.0,0.0,0.0,0.0,0.0,0.0,0.0,0.0,0.0,0.0,0.0,0.0,0.0,0.0,0.0,0.0,0.0,0.0,0.0,0.0,0.0,0.0,0.0,0.0,0.0,0.0,0.0,0.0,0.0,0.0,0.0,0.0,0.0,0.0,0.0,0.0,0.0,0.0,0.0,0.0,0.0,0.0,0.0,0.0,0.0,2.0086,2.0789,2.1173,2.1207,2.0313,1.95,1.8743,0.0,0.0,0.0,0.0,0.0,0.0,0.0,0.0,0.0,0.0,0.0,0.0,0.0,0.0,0.0,0.0,0.0,0.0,0.0,0.0,0.0,0.0,0.0,0.0,0.0,0.0,0.0,0.0,0.0,0.0,0.0,0.0,0.0,0.0,0.0,0.0,0.0,0.0,0.0,0.0,0.0,0.0,0.0,0.0,0.0,0.0,0.0,0.0,0.0,0.0,0.0,0.0,0.0,0.0,0.0,0.0,0.0,0.0,0.0,0.0,0.0,0.0,0.0,0.0,0.0,0.0,0.0,0.0,0.0,0.0,0.0,0.0,0.0,0.0,0.0,0.0,0.0,0.0,0.0,0.0,0.0,0.0,0.0,0.0,0.0,0.0,0.0,0.0,0.0,0.0,0.0,0.0,0.0,0.0,0.0,0.0,0.0,0.0,0.0,0.0,0.0,0.0,0.0,0.0,0.0,0.0,0.0,0.0,2.2945,2.2302,2.1963,2.1888,2.1857,2.0915,0.0,0.0,0.0,0.0,0.0,0.0,0.0,0.0,0.0,0.0,0.0,0.0,0.0,0.0,0.0,0.0,0.0,0.0,0.0,0.0,0.0,0.0,0.0,0.0,0.0,0.0,0.0,0.0,0.0,0.0,0.0,0.0,0.0,0.0,0.0,0.0,0.0,0.0,0.0,0.0,0.0,0.0,0.0,0.0,0.0,0.0,0.0,0.0,0.0,0.0,0.0,0.0,0.0,0.0,0.0,0.0,0.0,0.0,0.0,0.0,0.0,0.0,0.0,0.0,0.0,0.0,0.0,0.0,0.0,0.0,0.0,0.0,0.0,0.0,0.0,0.0,0.0,0.0,0.0,0.0,0.0,0.0,0.0,0.0,0.0,0.0,0.0,0.0,0.0,0.0,0.0,0.0,0.0,0.0,0.0,0.0,0.0,0.0,0.0,0.0,0.0,0.0,0.0,0.0,0.0,0.0,0.0,0.0,0.0,2.5869,2.6204,2.558,2.4027,2.305,2.2061,0.0,0.0,0.0,0.0,0.0,0.0,0.0,0.0,0.0,0.0,0.0,0.0,0.0,0.0,0.0,0.0,0.0,0.0,0.0,0.0,0.0,0.0,0.0,0.0,0.0,0.0,0.0,0.0,0.0,0.0,0.0,0.0,0.0,0.0,0.0,0.0,0.0,0.0,0.0,0.0,0.0,0.0,0.0,0.0,0.0,0.0,0.0,0.0,0.0,0.0,0.0,0.0,0.0,0.0,0.0,0.0,0.0,0.0,0.0,0.0,0.0,0.0,0.0,0.0,0.0,0.0,0.0,0.0,0.0,0.0,0.0,0.0,0.0,0.0,0.0,0.0,0.0,0.0,0.0,0.0,0.0,0.0,0.0,0.0,0.0,0.0,0.0,0.0,0.0,0.0,0.0,0.0,0.0,0.0,0.0,0.0,0.0,0.0,0.0,0.0,0.0,0.0,0.0,0.0,0.0,0.0,0.0,0.0,2.5534,2.7039,2.7947,2.7827,2.6585,2.4964,2.3504,0.0,0.0,0.0,0.0,0.0,0.0,0.0,0.0,0.0,0.0,0.0,0.0,0.0,0.0,0.0,0.0,0.0,0.0,0.0,0.0,0.0,0.0,0.0,0.0,0.0,0.0,0.0,0.0,0.0,0.0,0.0,0.0,0.0,0.0,0.0,0.0,0.0,0.0,0.0,0.0,0.0,0.0,0.0,0.0,0.0,0.0,0.0,0.0,0.0,0.0,0.0,0.0,0.0,0.0,0.0,0.0,0.0,0.0,0.0,0.0,0.0,0.0,0.0,0.0,0.0,0.0,0.0,0.0,0.0,0.0,0.0,0.0,0.0,0.0,0.0,0.0,0.0,0.0,0.0,0.0,0.0,0.0,0.0,0.0,0.0,0.0,0.0,0.0,0.0,0.0,0.0,0.0,0.0,0.0,0.0,0.0,0.0,0.0,0.0,0.0,0.0,0.0,0.0,0.0,0.0,0.0,0.0,0.0,2.6598,2.7341,2.8582,2.9179,2.9053,2.7112,2.5072,0.0,0.0,0.0,0.0,0.0,0.0,0.0,0.0,0.0,0.0,0.0,0.0,0.0,0.0,0.0,0.0,0.0,0.0,0.0,0.0,0.0,0.0,0.0,0.0,0.0,0.0,0.0,0.0,0.0,0.0,0.0,0.0,0.0,0.0,0.0,0.0,0.0,0.0,0.0,0.0,0.0,0.0,0.0,0.0,0.0,0.0,0.0,0.0,0.0,0.0,0.0,0.0,0.0,0.0,0.0,0.0,0.0,0.0,0.0,0.0,0.0,0.0,0.0,0.0,0.0,0.0,0.0,0.0,0.0,0.0,0.0,0.0,0.0,0.0,0.0,0.0,0.0,0.0,0.0,0.0,0.0,0.0,0.0,0.0,0.0,0.0,0.0,0.0,0.0,0.0,0.0,0.0,0.0,0.0,0.0,0.0,0.0,0.0,0.0,0.0,0.0,0.0,0.0,0.0,0.0,0.0,0.0,0.0,2.8323,2.9495,3.031,3.0456,2.9862,2.7904,2.6082,0.0,0.0,0.0,0.0,0.0,0.0,0.0,0.0,0.0,0.0,0.0,0.0,0.0,0.0,0.0,0.0,0.0,0.0,0.0,0.0,0.0,0.0,0.0,0.0,0.0,0.0,0.0,0.0,0.0,0.0,0.0,0.0,0.0,0.0,0.0,0.0,0.0,0.0,0.0,0.0,0.0,0.0,0.0,0.0,0.0,0.0,0.0,0.0,2.1915,0.0,0.0,0.0,0.0,0.0,0.0,0.0,0.0,0.0,0.0,0.0,0.0,0.0,0.0,0.0,0.0,0.0,0.0,0.0,0.0,0.0,0.0,0.0,0.0,0.0,0.0,0.0,0.0,0.0,0.0,0.0,0.0,0.0,0.0,0.0,0.0,0.0,0.0,0.0,0.0,0.0,0.0,0.0,0.0,0.0,0.0,0.0,0.0,0.0,0.0,0.0,0.0,0.0,0.0,0.0,0.0,0.0,0.0,0.0,2.8852,3.0156,3.085,3.1014,3.0581,2.9273,2.7749,0.0,0.0,0.0,0.0,0.0,0.0,0.0,0.0,0.0,0.0,0.0,0.0,0.0,0.0,0.0,0.0,0.0,0.0,0.0,0.0,0.0,0.0,0.0,0.0,0.0,0.0,0.0,0.0,0.0,0.0,0.0,0.0,0.0,0.0,0.0,0.0,0.0,0.0,0.0,0.0,0.0,0.0,0.0,0.0,0.0,0.0,0.0,0.0,0.0,0.0,0.0,0.0,0.0,0.0,0.0,0.0,0.0,0.0,0.0,0.0,0.0,0.0,0.0,0.0,0.0,0.0,0.0,0.0,0.0,0.0,0.0,0.0,0.0,0.0,0.0,0.0,0.0,0.0,0.0,0.0,0.0,0.0,0.0,0.0,0.0,0.0,0.0,0.0,0.0,0.0,0.0,0.0,0.0,0.0,0.0,0.0,0.0,0.0,0.0,0.0,0.0,0.0,0.0,0.0,0.0,0.0,0.0,2.7676,2.9006,3.0308,3.0917,3.119,3.119,3.0559,2.938,2.7597,0.0,0.0,0.0,0.0,0.0,0.0,0.0,0.0,0.0,0.0,0.0,0.0,0.0,0.0,0.0,0.0,0.0,0.0,0.0,0.0,0.0,0.0,0.0,0.0,0.0,0.0,0.0,0.0,0.0,0.0,0.0,0.0,0.0,0.0,0.0,0.0,0.0,0.0,1.9495,2.0993,0.0,0.0,0.0,0.0,0.0,0.0,0.0,0.0,2.5885,0.0,0.0,0.0,0.0,0.0,0.0,0.0,0.0,0.0,0.0,0.0,0.0,0.0,0.0,0.0,0.0,0.0,0.0,0.0,0.0,0.0,0.0,0.0,0.0,0.0,0.0,0.0,0.0,0.0,0.0,0.0,0.0,0.0,0.0,0.0,0.0,0.0,0.0,0.0,0.0,0.0,0.0,0.0,0.0,0.0,0.0,0.0,0.0,0.0,0.0,0.0,0.0,0.0,0.0,0.0,0.0,2.7001,2.8356,2.9702,3.1,3.1142,3.119,3.1183,3.0542,2.9858,2.905,0.0,0.0,0.0,0.0,0.0,0.0,0.0,0.0,0.0,0.0,0.0,0.0,0.0,0.0,0.0,0.0,0.0,0.0,0.0,0.0,0.0,0.0,0.0,0.0,0.0,0.0,0.0,0.0,0.0,0.0,0.0,0.0,0.0,0.0,0.0,0.0,0.0,0.0,0.0,2.1987,2.3271,0.0,0.0,0.0,0.0,0.0,0.0,0.0,0.0,2.6689,0.0,0.0,0.0,0.0,0.0,0.0,0.0,0.0,0.0,0.0,0.0,0.0,0.0,0.0,0.0,0.0,0.0,0.0,0.0,0.0,0.0,0.0,0.0,0.0,0.0,0.0,0.0,0.0,0.0,0.0,0.0,0.0,0.0,0.0,0.0,0.0,0.0,0.0,0.0,0.0,0.0,0.0,0.0,0.0,0.0,0.0,0.0,0.0,0.0,0.0,0.0,0.0,0.0,0.0,0.0,2.7668,2.904,3.0207,3.1149,3.119,3.119,3.1173,3.0559,2.9986,0.0,0.0,0.0,0.0,0.0,0.0,0.0,0.0,0.0,0.0,0.0,0.0,0.0,0.0,0.0,0.0,0.0,0.0,0.0,0.0,0.0,0.0,0.0,0.0,0.0,0.0,0.0,0.0,0.0,0.0,0.0,0.0,0.0,0.0,0.0,0.0,0.0,0.0,0.0,0.0,2.4059,2.5499,2.695,0.0,0.0,0.0,0.0,0.0,0.0,2.8323,2.767,0.0,0.0,0.0,0.0,0.0,0.0,0.0,0.0,0.0,0.0,0.0,0.0,0.0,0.0,0.0,0.0,0.0,0.0,0.0,0.0,0.0,0.0,0.0,0.0,0.0,0.0,0.0,0.0,0.0,0.0,0.0,0.0,0.0,0.0,0.0,0.0,0.0,0.0,0.0,0.0,0.0,0.0,0.0,0.0,0.0,0.0,0.0,0.0,0.0,0.0,0.0,0.0,0.0,0.0,0.0,2.8159,2.9668,3.0668,3.1183,3.1488,3.1437,3.0987,3.0493,2.991,0.0,0.0,0.0,0.0,0.0,0.0,0.0,0.0,0.0,0.0,0.0,0.0,0.0,0.0,0.0,0.0,0.0,0.0,0.0,0.0,0.0,0.0,0.0,0.0,0.0,0.0,0.0,0.0,0.0,0.0,0.0,0.0,0.0,0.0,0.0,0.0,0.0,0.0,0.0,0.0,0.0,2.7372,2.8203,2.8809,0.0,0.0,0.0,0.0,3.0105,2.9303,0.0,0.0,0.0,0.0,0.0,0.0,0.0,0.0,0.0,0.0,0.0,0.0,0.0,0.0,0.0,0.0,0.0,0.0,0.0,0.0,0.0,0.0,0.0,0.0,0.0,0.0,0.0,0.0,0.0,0.0,0.0,0.0,0.0,0.0,0.0,0.0,0.0,0.0,0.0,0.0,0.0,0.0,0.0,0.0,0.0,0.0,0.0,0.0,0.0,0.0,0.0,0.0,0.0,0.0,0.0,0.0,2.8219,3.017,3.1201,3.1241,3.2476,3.2222,3.0301,3.0258,2.9726,0.0,0.0,0.0,0.0,0.0,0.0,0.0,0.0,0.0,0.0,0.0,0.0,0.0,0.0,0.0,0.0,0.0,0.0,0.0,0.0,0.0,0.0,0.0,0.0,0.0,0.0,0.0,0.0,0.0,0.0,0.0,0.0,0.0,0.0,0.0,0.0,0.0,0.0,0.0,0.0,0.0,2.7511,2.8886,2.9097,2.9138,0.0,0.0,3.0098,3.0181,3.0064,0.0,0.0,0.0,0.0,0.0,0.0,0.0,0.0,0.0,0.0,0.0,0.0,0.0,0.0,0.0,0.0,0.0,0.0,0.0,0.0,0.0,0.0,0.0,0.0,0.0,0.0,0.0,0.0,0.0,0.0,0.0,0.0,0.0,0.0,0.0,0.0,0.0,0.0,0.0,0.0,0.0,0.0,0.0,0.0,0.0,0.0,0.0,0.0,0.0,0.0,0.0,0.0,0.0,0.0,0.0,2.7641,2.9382,3.1031,3.1866,3.1826,3.2446,3.2104,3.076,3.0481,2.994,0.0,0.0,0.0,0.0,0.0,0.0,0.0,0.0,0.0,0.0,0.0,0.0,0.0,0.0,0.0,0.0,0.0,0.0,0.0,0.0,0.0,0.0,0.0,0.0,0.0,0.0,0.0,0.0,0.0,0.0,0.0,0.0,0.0,0.0,0.0,0.0,0.0,0.0,0.0,0.0,0.0,0.0,2.9739,3.0122,0.0,0.0,0.0,3.0767,3.0767,0.0,0.0,0.0,0.0,0.0,0.0,0.0,0.0,0.0,0.0,0.0,0.0,0.0,0.0,0.0,0.0,0.0,0.0,0.0,0.0,0.0,0.0,0.0,0.0,0.0,0.0,0.0,0.0,0.0,0.0,0.0,0.0,0.0,0.0,0.0,0.0,0.0,0.0,0.0,0.0,0.0,0.0,0.0,0.0,0.0,0.0,0.0,0.0,0.0,0.0,0.0,0.0,0.0,0.0,0.0,0.0,0.0,3.0575,3.2086,3.2682,3.2327,3.2666,3.2232,3.097,3.0897,0.0,0.0,0.0,0.0,0.0,0.0,0.0,0.0,0.0,0.0,0.0,0.0,0.0,0.0,0.0,0.0,0.0,0.0,0.0,0.0,0.0,0.0,0.0,0.0,0.0,0.0,0.0,1.8267,0.0,0.0,0.0,0.0,0.0,0.0,0.0,0.0,0.0,0.0,0.0,0.0,0.0,0.0,2.9466,3.0232,3.0992,3.1488,0.0,0.0,3.1759,3.1765,3.1174,3.0717,0.0,0.0,0.0,0.0,0.0,0.0,0.0,0.0,0.0,0.0,0.0,0.0,0.0,0.0,0.0,0.0,0.0,0.0,0.0,0.0,0.0,0.0,0.0,0.0,0.0,0.0,0.0,0.0,0.0,0.0,0.0,0.0,0.0,0.0,0.0,0.0,0.0,0.0,0.0,0.0,0.0,0.0,0.0,0.0,0.0,0.0,0.0,0.0,0.0,0.0,0.0,0.0,0.0,0.0,0.0,3.143,3.3341,3.3681,3.2412,3.3637,3.3011,3.0311,3.1533,3.1355,0.0,0.0,0.0,0.0,0.0,0.0,0.0,0.0,0.0,0.0,0.0,0.0,0.0,0.0,0.0,0.0,0.0,0.0,0.0,0.0,0.0,0.0,0.0,0.0,0.0,0.0,0.0,0.0,0.0,0.0,0.0,0.0,0.0,0.0,0.0,0.0,0.0,0.0,0.0,0.0,0.0,2.9448,3.0124,3.1344,3.2226,0.0,0.0,3.326,3.3254,3.2632,3.1991,3.1503,0.0,0.0,0.0,0.0,0.0,0.0,0.0,0.0,0.0,0.0,0.0,0.0,0.0,0.0,0.0,0.0,0.0,0.0,0.0,0.0,0.0,0.0,0.0,0.0,0.0,0.0,0.0,0.0,0.0,0.0,0.0,0.0,0.0,0.0,0.0,0.0,0.0,0.0,0.0,0.0,0.0,0.0,0.0,0.0,0.0,0.0,0.0,0.0,0.0,0.0,0.0,0.0,0.0,3.032,3.2147,3.3698,3.4229,3.3704,3.4212,3.3761,3.2171,3.2347,3.1925,0.0,0.0,0.0,0.0,0.0,0.0,0.0,0.0,0.0,0.0,0.0,0.0,0.0,0.0,0.0,0.0,0.0,0.0,0.0,0.0,0.0,0.0,0.0,0.0,0.0,0.0,0.0,0.0,2.6622,2.763,2.7612,0.0,0.0,0.0,0.0,0.0,0.0,0.0,0.0,0.0,0.0,3.0872,3.1516,3.2385,0.0,0.0,3.322,3.3427,3.35,3.329,3.3084,3.2994,3.2447,0.0,0.0,0.0,0.0,0.0,0.0,0.0,0.0,0.0,0.0,0.0,0.0,0.0,0.0,0.0,0.0,0.0,0.0,0.0,0.0,0.0,0.0,0.0,0.0,0.0,0.0,0.0,0.0,0.0,0.0,0.0,0.0,0.0,0.0,0.0,0.0,0.0,0.0,0.0,0.0,0.0,0.0,0.0,0.0,0.0,0.0,0.0,0.0,0.0,0.0,0.0,0.0,3.1367,3.3239,3.4298,3.4816,3.4827,3.4607,3.4144,3.3423,3.3191,3.2828,0.0,0.0,0.0,0.0,0.0,0.0,0.0,0.0,0.0,0.0,0.0,0.0,0.0,0.0,0.0,0.0,0.0,0.0,0.0,0.0,0.0,0.0,0.0,0.0,0.0,0.0,0.0,0.0,2.8612,2.9205,2.8832,0.0,0.0,0.0,0.0,0.0,0.0,0.0,0.0,0.0,0.0,3.2027,3.2716,3.3413,3.385,3.3875,3.4104,3.4378,3.4718,3.4585,3.4541,3.4868,0.0,0.0,0.0,0.0,0.0,0.0,0.0,0.0,0.0,0.0,0.0,0.0,0.0,0.0,0.0,0.0,0.0,0.0,0.0,0.0,0.0,0.0,0.0,0.0,0.0,0.0,0.0,0.0,0.0,0.0,0.0,0.0,0.0,0.0,0.0,0.0,0.0,0.0,0.0,0.0,0.0,0.0,0.0,0.0,0.0,0.0,0.0,0.0,0.0,0.0,0.0,0.0,0.0,3.3358,3.471,3.5304,3.5583,3.5566,3.4895,3.4218,3.3548,3.41,3.417,3.3533,0.0,0.0,0.0,0.0,0.0,0.0,0.0,0.0,0.0,0.0,0.0,0.0,0.0,0.0,0.0,0.0,0.0,0.0,0.0,0.0,0.0,0.0,0.0,0.0,0.0,0.0,2.8449,2.9092,2.9515,0.0,0.0,0.0,0.0,0.0,0.0,0.0,0.0,0.0,0.0,3.2007,3.2669,3.3499,3.4335,3.4935,3.5022,3.57,3.6525,3.7271,3.6809,3.6553,0.0,0.0,0.0,0.0,0.0,0.0,0.0,0.0,0.0,0.0,0.0,0.0,0.0,0.0,0.0,0.0,0.0,0.0,0.0,0.0,0.0,0.0,0.0,0.0,0.0,0.0,0.0,2.1826,2.2754,0.0,0.0,0.0,0.0,0.0,0.0,0.0,0.0,0.0,0.0,0.0,2.8738,2.9339,0.0,0.0,0.0,0.0,0.0,0.0,0.0,0.0,0.0,0.0,0.0,0.0,3.3925,3.4889,3.635,3.6896,3.6428,3.6637,3.6654,3.6389,3.5628,3.4718,3.3635,0.0,0.0,0.0,0.0,0.0,0.0,0.0,0.0,0.0,0.0,0.0,0.0,0.0,0.0,0.0,0.0,0.0,0.0,0.0,0.0,0.0,0.0,0.0,0.0,0.0,2.9307,0.0,0.0,0.0,0.0,0.0,0.0,0.0,0.0,0.0,0.0,0.0,3.2313,3.3009,3.3767,3.4576,3.5408,3.6191,3.6973,0.0,0.0,0.0,0.0,0.0,0.0,0.0,0.0,0.0,0.0,0.0,0.0,0.0,0.0,3.6507,3.5381,3.5881,3.6453,3.6477,0.0,0.0,0.0,0.0,0.0,0.0,0.0,0.0,0.0,0.0,0.0,0.0,0.0,0.0,0.0,0.0,2.575,0.0,0.0,0.0,0.0,0.0,0.0,0.0,0.0,2.9854,3.085,3.1322,3.1682,3.2132,0.0,3.2444,3.1676,0.0,0.0,0.0,0.0,0.0,0.0,0.0,0.0,3.4682,3.5668,3.6882,3.7545,3.7579,3.7787,3.791,3.7877,3.6688,3.5605,3.4743,3.4331,3.3508,0.0,0.0,0.0,0.0,0.0,0.0,0.0,0.0,0.0,0.0,0.0,0.0,0.0,0.0,0.0,0.0,0.0,0.0,0.0,0.0,0.0,0.0,0.0,3.1186,0.0,0.0,0.0,0.0,0.0,0.0,0.0,0.0,0.0,3.2239,3.322,3.416,3.4675,3.5797,3.6786,3.7397,0.0,0.0,0.0,0.0,0.0,0.0,0.0,4.0608,4.1123,4.117,4.1137,4.1147,4.0841,4.0445,4.0093,0.0,0.0,3.8274,3.8527,3.9105,3.9113,3.9105,3.9269,3.9778,3.9705,3.9669,0.0,0.0,0.0,0.0,0.0,0.0,0.0,0.0,2.656,2.7107,0.0,2.7454,0.0,0.0,0.0,0.0,0.0,0.0,0.0,0.0,3.4109,3.4787,3.355,3.4257,3.4697,3.4691,3.4068,3.45,3.5651,3.3206,0.0,0.0,0.0,0.0,0.0,0.0,3.5771,3.7063,3.7018,3.7579,3.8899,3.8362,3.8012,3.799,3.7308,3.688,3.6728,3.5553,3.4831,3.4736,3.2237,0.0,0.0,0.0,0.0,0.0,0.0,0.0,0.0,0.0,0.0,0.0,0.0,0.0,0.0,0.0,0.0,0.0,0.0,0.0,0.0,3.2112,0.0,0.0,0.0,0.0,0.0,0.0,0.0,0.0,0.0,0.0,3.3659,3.5018,3.6313,3.6416,0.0,0.0,0.0,0.0,3.993,4.0134,4.0202,4.0833,4.2376,4.2663,4.3055,4.42,0.0,0.0,4.3836,4.3426,4.3205,4.3351,4.3953,4.3623,4.0439,4.0531,4.1024,4.1034,4.1061,4.0997,4.1089,4.1782,4.2138,3.043,0.0,0.0,0.0,0.0,2.7809,2.929,3.1823,3.1344,3.2311,3.4147,3.3044,0.0,0.0,0.0,0.0,0.0,0.0,3.1792,3.334,3.4216,3.4647,3.4757,3.4612,3.4826,3.5345,3.5533,3.6142,3.7041,3.6701,3.5806,3.4517,0.0,0.0,0.0,0.0,3.7535,3.7779,3.8662,3.9114,3.9,3.9817,4.0003,3.9474,3.9266,3.842,3.6863,3.7416,3.6819,3.4814,3.4021,0.0,0.0,0.0,0.0,0.0,0.0,0.0,0.0,0.0,0.0,0.0,0.0,0.0,0.0,0.0,0.0,0.0,0.0,0.0,3.1992,3.3616,3.4493,0.0,0.0,0.0,0.0,0.0,0.0,0.0,0.0,0.0,3.863,3.8418,3.8346,0.0,0.0,4.0111,4.1473,4.1822,4.2412,4.3763,0.0,0.0,0.0,4.4739,4.4787,4.5132,4.5254,4.5243,4.5094,4.5075,4.5105,4.5132,4.5361,4.5178,4.4399,4.428,4.4399,4.4436,4.4445,4.4637,4.516,4.5068,4.494,3.3542,3.1415,3.0362,3.0368,3.101,3.069,3.2076,3.4546,3.4089,3.4861,3.6412,3.5366,3.4385,3.3502,3.2739,0.0,0.0,0.0,3.3641,3.5508,3.5538,3.5947,3.6603,3.6565,3.6899,3.7618,3.7648,3.8216,3.9259,3.9065,3.8604,3.777,0.0,0.0,3.7644,3.8482,3.9041,3.9307,4.029,4.0627,4.0278,4.0883,4.096,4.0439,4.0204,3.9339,3.7765,3.8227,3.7895,3.6474,3.5908,3.4755,0.0,0.0,0.0,0.0,0.0,0.0,0.0,0.0,0.0,0.0,0.0,2.7322,2.7187,0.0,0.0,0.0,3.1338,3.2301,3.3918,3.4865,0.0,0.0,0.0,0.0,0.0,0.0,0.0,3.8761,3.9733,4.0809,4.2055,4.1833,4.1466,4.1192,4.1694,4.2469,4.359,0.0,4.4387,4.5541,4.565,4.5787,4.6193,4.6191,4.6217,4.6555,4.6638,4.6677,4.6686,4.6781,4.6856,4.6856,4.6856,4.6856,4.6856,4.6856,4.6599,4.603,4.5902,4.6085,4.6535,4.6489,4.6535,3.6028,3.5096,3.3041,3.287,3.3914,3.3516,3.4262,3.5684,3.5296,3.5518,3.6159,3.5571,3.5687,3.63,3.5519,0.0,0.0,3.5856,3.6406,3.7787,3.7826,3.8178,3.885,3.9405,4.0043,4.0679,4.0118,4.058,4.1852,4.0836,4.0715,4.1526,4.0664,3.9907,3.9381,3.9774,4.0417,4.1328,4.1685,4.2005,4.2223,4.1598,4.1189,4.1071,4.058,3.9937,3.9091,3.8548,3.8444,3.8848,3.769,3.6678,3.5962,0.0,0.0,0.0,0.0,0.0,0.0,0.0,0.0,0.0,0.0,0.0,0.0,0.0,0.0,0.0,3.422,0.0,3.6068,3.5927,0.0,0.0,0.0,3.7125,3.7372,3.8785,4.0027,4.0816,0.0,0.0,0.0,0.0,4.51,4.4175,4.4912,4.5525,4.5626,4.5733,4.5919,4.6066,4.6029,4.6276,4.6999,4.7138,4.7387,4.8002,4.8315,4.8195,4.8195,4.8223,4.826,4.8205,4.8343,4.8379,4.8406,4.8416,4.8039,4.6709,4.6269,4.6168,4.6269,4.6755,4.7241,3.8002,3.7782,3.7243,3.6148,3.4743,3.4623,3.552,3.702,3.6918,3.7327,3.8077,3.852,3.892,3.9229,3.8129,3.8359,3.9544,3.8659,3.9065,4.0404,3.9896,3.9754,3.9932,4.0327,4.059,4.0824,4.1594,4.2488,4.3444,4.3522,4.3971,4.472,4.4546,4.3135,4.0712,4.1761,4.2388,4.2482,4.1995,4.2077,4.2687,4.2032,4.1927,4.2401,4.2329,4.1445,3.9715,4.0641,4.0244,3.828,3.7845,3.7345,3.6678,3.5294,0.0,0.0,0.0,0.0,0.0,0.0,0.0,0.0,0.0,3.2085,3.2146,0.0,3.4991,0.0,3.5852,3.6637,3.7321,3.7458,0.0,0.0,3.9535,4.0018,4.0678,4.1765,4.2703,4.3424,4.4436,4.5405,4.6227,4.6464,4.6738,4.7113,4.6261,4.5832,4.652,4.6725,4.7011,4.7534,4.7662,4.7772,4.7983,4.8002,4.8095,4.826,4.8333,4.8315,4.8315,4.8315,4.8315,4.8351,4.8857,4.9215,4.9288,4.9756,5.005,4.9646,4.8636,4.7737,4.7737,4.7893,4.8205,3.9562,3.9239,3.9221,3.8432,3.7158,3.6802,3.7176,3.8017,3.8036,3.8487,3.9276,4.0084,4.0302,4.0104,3.9796,4.0293,4.132,4.0601,4.1044,4.2468,4.2127,4.2118,4.2452,4.2876,4.3065,4.3093,4.3785,4.4371,4.4854,4.5114,4.5461,4.5902,4.626,4.5341,4.3257,4.3615,4.386,4.3878,4.3087,4.3015,4.3636,4.2782,4.2456,4.2804,4.2871,4.2165,4.0631,4.1337,4.0989,3.9395,3.9255,3.8897,3.8168,3.715,3.619,0.0,0.0,0.0,0.0,0.0,0.0,0.0,0.0,0.0,0.0,0.0,3.6882,0.0,3.7102,3.7615,3.8314,3.8907,3.9722,4.0835,4.1832,4.2612,4.3095,4.3934,4.4793,4.5516,4.6057,4.668,4.7469,4.7587,4.7735,4.8241,4.744,4.698,4.7468,4.7607,4.7801,4.8223,4.8618,4.9022,4.9342,4.9416,4.9416,4.9407,4.9407,4.9416,4.9407,4.9416,4.9407,4.9434,4.9811,5.0151,5.0151,5.0472,5.0802,5.0692,5.0068,4.9471,4.9416,4.9426,4.9591,4.07,4.0047,4.0055,4.0047,4.0,3.9313,3.9011,3.9011,3.9011,3.946,4.0257,4.0938,4.092,4.0422,4.1103,4.1782,4.2408,4.1977,4.2565,4.3976,4.4061,4.4487,4.521,4.578,4.6049,4.6067,4.6159,4.6214,4.6223,4.6223,4.6195,4.625,4.6902,4.6818,4.5965,4.5233,4.4866,4.4872,4.4302,4.4177,4.4517,4.3528,4.2923,4.2814,4.2958,4.2592,4.167,4.1566,4.1376,4.1076,4.0914,4.0574,3.9968,3.911,3.813,0.0,3.616,0.0,0.0,0.0,0.0,0.0,0.0,0.0,0.0,3.7649,3.843,3.8404,3.8463,3.8859,3.9779,4.0632,4.1461,4.2359,4.3816,4.483,4.5003,4.5626,4.6379,4.7168,4.7259,4.7544,4.815,4.8315,4.8296,4.848,4.848,4.847,4.8608,4.8553,4.8526,4.8581,4.9252,4.9968,5.0508,5.0729,5.07,5.0765,5.0674,5.082,5.071,5.0729,5.0765,5.0765,5.082,5.0949,5.0949,5.1041,5.1122,5.1214,5.1251,5.1169,5.0784,5.0655,5.0839,4.1003,4.0865,4.0865,4.0883,4.0846,4.07,4.0636,4.0636,4.0645,4.1103,4.1864,4.2002,4.2341,4.2827,4.2974,4.3112,4.3267,4.3163,4.3631,4.4556,4.4583,4.4986,4.5782,4.6534,4.6883,4.6911,4.7535,4.7847,4.7865,4.7865,4.7838,4.7847,4.8003,4.7663,4.6855,0.0,0.0,0.0,4.4263,4.4281,4.3746,4.3514,4.3387,4.3366,4.3999,0.0,4.2426,4.291,4.2654,4.1472,4.0821,0.0,0.0,0.0,0.0,0.0,0.0,0.0,0.0,0.0,0.0,0.0,3.9498,3.9522,3.8501,3.949,4.0447,4.1081,4.1155,4.1924,4.3753,4.3586,4.3852,4.5022,4.5462,4.5902,4.6553,4.6782,4.7177,4.7966,4.8076,4.8113,4.8296,4.8315,4.86,4.9233,4.9353,4.9619,5.0233,4.9747,4.9619,5.0196,5.0472,5.0637,5.0765,5.0875,5.0967,5.082,5.082,5.0857,5.0894,5.0875,5.0839,5.0912,5.1316,5.1803,5.1811,5.2289,5.2755,5.2737,5.3232,5.3133,5.1242,5.0839,5.1004,4.2278,0.0,4.2286,4.2286,0.0,4.2304,4.2286,4.2231,4.1434,4.1342,4.1764,4.2543,4.2919,4.2937,4.3322,4.3726,4.4085,4.4085,4.4525,4.5269,4.5287,4.5507,4.5911,4.6324,4.6516,4.6516,4.692,4.7131,4.7113,4.7113,4.7333,4.7691,4.7305,4.7104,4.7058,4.5911,4.4691,4.3455,4.4278,4.4323,4.3561,4.3883,4.391,4.3524,0.0,0.0,0.0,0.0,0.0,0.0,0.0,0.0,0.0,0.0,0.0,4.1311,4.1006,4.0821,4.0832,4.1032,4.1315,4.1621,4.2519,4.2502,4.1121,4.1885,4.2594,4.2977,4.303,4.3604,4.4931,4.512,4.5518,4.6387,4.6847,4.725,4.7599,4.7709,4.7846,4.8205,4.8315,4.8425,4.8875,4.893,4.9288,5.0041,5.0206,5.05,5.1132,5.071,5.05,5.1261,5.1389,5.1555,5.1893,5.1985,5.1966,5.1985,5.1985,5.1995,5.1985,5.1966,5.2105,5.2472,5.2931,5.328,5.3712,5.4124,5.4399,5.4399,5.4711,5.4685,5.3371,5.318,5.3261,4.3687,4.3679,4.3622,4.3589,4.358,4.3522,4.3488,4.3414,0.0,0.0,0.0,4.2928,4.3121,4.257,4.3212,4.3855,4.448,4.448,4.4929,4.5681,4.5681,4.5755,4.5902,4.5902,4.5902,4.5902,4.5902,4.5902,4.5902,4.5902,4.6232,4.6764,4.6205,4.6177,4.6544,4.5232,4.4158,4.3561,4.4158,4.4176,4.3543,4.4158,4.4168,4.3506,4.3455,4.334,4.3233,4.3068,4.292,4.2798,4.2738,4.2699,4.2754,4.3165,4.3148,4.2622,4.2954,4.3169,4.3041,4.3268,4.3678,4.4253,4.488,4.4804,4.3779,4.4196,4.4557,4.47,4.4728,4.4975,4.5617,4.6237,4.6823,4.7286,4.7911,4.8296,4.8296,4.8471,4.8545,4.8545,4.8728,4.9003,4.9692,4.9802,5.0096,5.082,5.1004,5.1316,5.1922,5.1701,5.1518,5.2068,5.2215,5.2435,5.2986,5.3104,5.3251,5.3306,5.3379,5.3453,5.3581,5.3618,5.3904,5.4363,5.4601,5.4851,5.542,5.5456,5.5603,5.5603,5.5732,5.5824,5.5824,5.5915,5.5824,4.4433,4.4438,4.4076,4.3924,4.3901,4.3631,4.3488,4.3496,4.3258,4.3157,4.3194,4.3396,4.3433,4.3322,4.3451,4.3561,4.3671,4.3671,4.4103,0.0,4.4883,4.5232,4.5883,4.5902,4.5902,4.5902,4.5883,4.5902,4.5902,4.5883,4.5984,4.6049,4.5957,4.5626,4.5012,4.4121,4.3616,4.3506,4.3598,4.3616,4.3506,4.3616,4.3635,4.3506,4.3497,4.3464,4.3385,4.334,4.326,4.3133,4.3114,4.3169,4.326,4.2906,4.2675,4.2643,4.2269,4.2041,4.2069,4.313,4.4048,4.4592,4.5343,4.5758,4.5784,4.5703,4.5935,4.6584,4.66,4.7015,4.7723,4.786,4.799,4.8094,4.8223,4.8315,4.8406,4.9003,4.9399,4.9417,5.0031,5.0398,5.0582,5.0637,5.0912,5.1628,5.1891,5.2136,5.2763,5.2939,5.2902,5.3012,5.3031,5.3086,5.3296,5.3214,5.3561,5.4142,5.4277,5.4474,5.5037,5.5129,5.5217,5.5401,5.5438,5.553,5.5695,5.5603,5.575,5.5805,5.6216,5.6602,5.6638,5.7079,5.7134,4.4593,4.4573,4.4387,4.4318,4.4323,4.415,4.4076,4.4095,4.4102,4.3852,4.3505,4.3488,4.3488,4.3488,4.3488,4.3488,4.3488,4.3488,4.3708,4.403,4.4048,4.4232,4.4571,4.4589,4.458,4.4607,4.4607,4.458,4.4607,4.4607,4.48,4.5214,4.5259,4.4856,4.4066,4.369,4.3488,4.3506,4.3938,4.3938,4.3524,4.392,4.3938,4.3506,4.3488,4.3489,4.3445,4.3464,4.3419,4.3375,4.3375,4.3393,4.3455,4.3597,4.3706,4.3797,4.3936,4.4027,4.4027,4.4613,4.5104,4.5324,4.5681,4.5938,4.602,4.6367,4.6516,4.6498,4.7195,4.7526,4.7113,4.7764,4.8315,4.8315,4.871,4.9169,4.9599,4.9958,5.0243,5.0288,5.0563,5.0949,5.1408,5.1463,5.1756,5.2511,5.2827,5.3136,5.3498,5.3748,5.3814,5.3594,5.3525,5.3738,5.4071,5.4172,5.4534,5.5286,5.5416,5.5564,5.5934,5.599,5.6077,5.622,5.6264,5.6455,5.6741,5.6907,5.6907,5.6943,5.7134,5.7428,5.7538,5.7776,5.7696,4.4818,4.4818,4.4738,4.4663,4.4593,4.4593,4.4593,4.4593,4.4586,4.4273,4.3791,4.3761,4.3703,4.3622,4.3622,4.3572,4.3496,4.3488,4.3488,4.3488,4.3488,4.3488,4.3488,4.3488,4.3488,4.3488,4.3488,4.3488,4.3488,4.3488,4.3809,4.4378,4.4425,4.4121,4.3506,4.3488,4.3488,4.3543,4.4278,4.4296,4.3561,4.4121,4.4121,4.3561,4.3488,4.3488,4.3488,4.3488,4.3488,4.3488,4.3488,4.3488,4.3524,4.4085,4.4425,4.4507,4.5021,4.5452,4.5608,4.5645,4.5645,4.5626,4.5626,4.5553,4.5443,4.6287,4.659,4.6159,4.7177,4.7471,4.6728,4.77,4.86,4.8636,4.9352,5.0078,5.0674,5.0949,5.1059,5.1077,5.1196,5.1628,5.2087,5.2252,5.2534,5.3187,5.3692,5.397,5.421,5.456,5.4631,5.4663,5.4432,5.4585,5.5276,5.5473,5.5809,5.6594,5.6725,5.6856,5.7005,5.7043,5.7106,5.7404,5.7316,5.7475,5.801,5.8003,5.7909,5.7843,5.7968,5.8179,5.832,5.8216,5.8119,4.5499,4.5452,4.518,4.4878,4.4631,4.4612,4.4618,4.4618,4.4599,4.4592,4.4482,4.4494,4.4283,4.3986,4.3974,4.3804,4.3548,4.3496,4.3513,4.3522,4.3488,4.3488,4.3539,4.3513,4.3488,4.3522,4.3531,4.3556,4.3522,4.3515,4.3551,4.3598,4.3616,4.3635,4.3524,4.3524,4.3524,4.3506,4.4287,4.4305,4.3561,4.3561,4.3579,4.3506,4.3524,4.3488,4.3543,4.3488,4.3506,4.3488,4.3488,4.3488,4.3506,4.3579,4.3616,4.3616,4.3708,4.402,4.4718,4.481,4.4847,4.481,4.4883,4.4608,4.4038,4.5204,4.6003,4.6113,4.6737,4.7168,4.7104,4.8434,4.9381,4.9458,5.0219,5.0729,5.1001,5.1444,5.1877,5.1877,5.2504,5.3023,5.3074,5.3085,5.3291,5.3813,5.4294,5.4832,5.5422,5.5659,5.6122,5.669,5.6326,5.601,5.6597,5.6823,5.7165,5.7836,5.8035,5.8252,5.8629,5.8884,5.9114,5.8597,5.864,5.8513,5.8465,5.8329,5.807,5.8257,5.8498,5.8811,5.9103,5.9063,5.8754,4.5594,4.5601,4.5448,4.5322,4.5187,4.5206,4.5187,4.5182,4.5182,4.5182,4.5206,4.5182,4.4883,4.4378,4.4346,4.4261,4.4162,4.4136,4.4136,4.4162,4.4154,4.4162,4.4154,4.4136,4.4154,4.4154,4.4154,4.402,4.3796,4.3605,4.3488,4.3561,4.3947,4.4204,4.425,4.4672,4.4911,4.4938,4.5241,4.5241,4.4966,4.4911,4.4911,4.492,4.4929,4.4672,4.4268,4.4213,4.3993,4.3543,4.3488,4.3488,4.3488,4.3488,4.3488,4.3488,4.3488,4.3635,4.3983,4.4406,4.47,4.47,4.5149,4.5241,4.5029,4.6213,4.7023,4.71,4.75,4.7471,4.6801,4.8316,4.969,5.0047,5.1083,5.2122,5.2925,5.3241,5.3474,5.3512,5.3764,5.3943,5.3961,5.3961,5.4237,5.48,5.5328,5.593,5.6674,5.7063,5.7653,5.8406,5.8246,5.7976,5.8083,5.8072,5.8445,5.9052,5.9337,5.9539,5.9671,5.9804,5.9741,5.9475,5.9284,5.9167,5.9102,5.9009,5.8825,5.8976,5.9437,5.9955,6.0144,6.0396,6.0425,4.5594,4.5594,4.5594,4.5594,4.5594,4.5594,4.5594,4.5594,4.5594,4.5594,4.5594,4.5594,4.5342,4.4914,4.4775,4.4707,4.4643,4.4838,4.4913,4.4951,4.5165,4.5165,4.497,4.5203,4.5033,4.4687,4.4818,4.4672,4.4228,4.4195,4.4122,4.4251,4.4955,4.5362,4.5401,4.5881,4.6052,4.6071,4.6158,4.6232,4.6232,4.6452,4.6342,4.5957,4.5902,4.5626,4.5067,4.503,4.4764,4.4204,4.4149,4.4149,4.4149,4.4167,4.4149,4.4166,4.4268,4.4318,4.4326,4.4971,4.5344,4.5418,4.5918,4.6214,4.6421,4.7287,4.8011,4.8311,4.8727,4.8489,4.774,4.9074,5.0404,5.1033,5.2143,5.3261,5.425,5.4511,5.4441,5.4511,5.4385,5.4605,5.4783,5.496,5.5337,5.6099,5.662,5.7219,5.794,5.8417,5.8892,5.9704,5.9827,5.97,5.9426,5.936,5.9723,5.9991,6.0227,6.0227,6.0285,6.0285,6.0271,6.0069,5.9843,5.9696,5.9654,5.9601,6.0002,6.0297,6.0775,6.1277,6.1517,6.1866,6.2107,4.5594,4.5594,4.5594,4.5594,4.5594,4.5594,4.5594,4.5594,4.5594,4.5594,4.5594,4.5648,4.5596,4.5557,4.5283,4.4933,4.4739,4.5406,4.5741,4.581,4.6553,4.6546,4.5845,4.6563,4.6168,4.5048,4.5565,4.5488,4.4818,4.5363,4.5704,4.5778,4.6643,4.7023,4.7048,4.6887,4.6555,4.6786,4.7081,4.7132,4.7187,4.7839,4.7454,4.6323,4.5947,4.5975,4.5847,4.5847,4.5792,4.5764,4.5709,4.5745,4.5755,4.5754,4.5735,4.578,4.6097,4.6307,4.6315,4.667,4.692,4.696,4.7048,4.7118,4.7334,4.8136,4.8966,4.9509,5.0462,5.0741,5.0688,5.1238,5.2093,5.2782,5.3095,5.3676,5.4448,5.4636,5.4527,5.4566,5.4696,5.5019,5.5596,5.6051,5.6648,5.7336,5.7908,5.846,5.9146,5.9412,5.9794,6.0358,6.0646,6.0698,6.0675,6.0397,6.0511,6.0659,6.0616,6.0702,6.0757,6.0763,6.0702,6.0665,6.054,6.0402,6.0229,6.0544,6.125,6.1726,6.2182,6.2599,6.2813,6.2708,6.302,4.5594,4.5594,4.5594,4.5594,4.5594,4.5594,4.5594,4.5594,4.5594,4.5594,4.5706,4.6186,4.6432,4.6428,4.6302,4.5888,4.5362,4.6117,4.6499,4.6595,4.7351,4.7575,4.7346,4.7619,4.7485,4.6988,4.7136,4.731,4.7364,4.7452,4.773,4.8304,4.9065,4.9481,4.9528,4.9826,4.98,4.9318,4.9399,4.9466,4.9385,4.9217,4.8993,4.8974,4.8004,4.7205,4.6682,4.6682,4.6425,4.592,4.614,4.6291,4.6314,4.6528,4.6675,4.6682,4.6798,4.6878,4.6955,4.7507,4.7866,4.7904,4.8362,4.8893,4.9507,5.0437,5.142,5.2271,5.3308,5.3898,5.3747,5.3283,5.3002,5.3568,5.4104,5.458,5.5103,5.5275,5.5275,5.5352,5.5702,5.6244,5.6582,5.7148,5.7906,5.8647,5.8961,5.9423,6.0069,6.0319,6.0435,6.0666,6.08,6.08,6.0781,6.0775,6.0775,6.0775,6.0769,6.0763,6.0781,6.08,6.0726,6.0913,6.0929,6.1271,6.1201,6.1922,6.2579,6.2908,6.3402,6.3818,6.4077,6.4044,6.4477,4.5594,4.5629,4.5898,4.6028,4.6047,4.6302,4.6417,4.6417,4.6398,4.6398,4.6533,4.7043,4.7274,4.7274,4.7293,4.7009,4.6513,4.7043,4.7428,4.7755,4.8548,4.8798,4.8606,4.8817,4.8625,4.8216,4.8389,4.872,4.9086,4.9388,4.9816,5.0336,5.1173,5.1559,5.166,5.2015,5.1907,5.145,5.1267,5.1175,5.1107,5.062,5.0563,5.0881,4.9818,4.8711,4.7924,4.7868,4.7654,4.7168,4.733,4.7461,4.7507,4.773,4.7878,4.7885,4.8,4.806,4.8155,4.8707,4.9081,4.9112,4.9797,5.0563,5.1185,5.217,5.3152,5.4046,5.475,5.5362,5.5445,5.4658,5.4145,5.4434,5.4733,5.5131,5.5618,5.5678,5.5827,5.6176,5.6862,5.7423,5.7805,5.8313,5.9,5.9819,5.9915,6.0204,6.0652,6.08,6.08,6.08,6.08,6.08,6.08,6.08,6.08,6.08,6.08,6.08,6.0819,6.0819,6.0973,6.1146,6.1499,6.196,6.2557,6.3281,6.3724,6.4012,6.4449,6.4904,6.516,6.5416,6.55,4.5652,4.584,4.6547,4.6889,4.6985,4.7582,4.8009,4.7908,4.7947,4.7832,4.7793,4.8082,4.812,4.812,4.8101,4.8105,4.8163,4.8139,4.849,4.9183,5.0091,5.0091,4.9471,5.0091,4.9707,4.8466,4.9086,4.949,4.9783,5.1098,5.19,5.2128,5.2841,5.3237,5.321,5.2986,5.2743,5.2577,5.2294,5.2124,5.2012,5.1954,5.1956,5.2003,5.1249,5.0438,4.9617,4.9434,4.9243,4.9272,4.9343,4.9459,4.9365,4.9388,4.9459,4.9463,4.9803,5.001,5.0033,5.0287,5.0449,5.0641,5.1349,5.1739,5.2151,5.2813,5.3642,5.441,5.4682,5.4934,5.5574,5.5539,5.5459,5.5602,5.5078,5.5036,5.5505,5.5728,5.6055,5.6901,5.7761,5.8602,5.9204,5.9454,5.9819,6.0396,6.0627,6.0652,6.0768,6.08,6.08,6.08,6.08,6.08,6.08,6.08,6.08,6.08,6.08,6.08,6.0883,6.0941,6.1364,6.1633,6.2454,6.2935,6.3557,6.4243,6.4762,6.5109,6.557,6.5667,6.5724,6.5763,6.5801,4.6797,4.7317,4.7601,4.774,4.7755,4.8005,4.8101,4.8101,4.8101,4.8101,4.8197,4.874,4.9009,4.9009,4.9009,4.9317,4.9803,4.9317,4.9168,4.9534,5.0303,5.0553,5.038,5.0572,5.0442,5.0111,5.0721,5.1428,5.2087,5.3106,5.3953,5.4491,5.4722,5.4914,5.4851,5.4776,5.4506,5.3952,5.3782,5.3716,5.3659,5.313,5.3111,5.3563,5.2906,5.2301,5.1997,5.0407,4.9549,4.9563,4.9767,5.0037,5.0254,5.0311,5.033,5.0336,5.0426,5.0504,5.0528,5.0672,5.1015,5.1433,5.1793,5.2519,5.3491,5.3895,5.4453,5.517,5.5324,5.5472,5.5651,5.5689,5.5728,5.5708,5.5472,5.542,5.5824,5.6305,5.6959,5.778,5.8627,5.9204,5.955,5.9915,6.0435,6.0685,6.08,6.08,6.08,6.08,6.08,6.08,6.08,6.08,6.08,6.08,6.08,6.08,6.08,6.0998,6.1075,6.1268,6.1691,6.246,6.3281,6.3955,6.4589,6.5051,6.548,6.5692,6.5763,6.582,6.5884,6.5884,6.5884,4.7639,4.8139,4.8452,4.8586,4.862,4.8894,4.9086,4.9067,4.9067,4.9067,4.9202,4.963,4.988,4.988,4.988,5.0188,5.0616,5.0091,4.988,4.9938,5.038,5.0688,5.0688,5.0688,5.0899,5.126,5.1986,5.2813,5.3697,5.453,5.5208,5.5612,5.5689,5.567,5.5689,5.5689,5.5395,5.4997,5.4928,5.4953,5.4838,5.4395,5.4376,5.4761,5.4126,5.3722,5.3542,5.1837,5.0881,5.0837,5.0838,5.0782,5.0731,5.0678,5.0688,5.0745,5.0991,5.114,5.1183,5.1505,5.1798,5.2313,5.2659,5.328,5.4343,5.4684,5.5228,5.5593,5.567,5.5689,5.5689,5.5689,5.5818,5.6189,5.6209,5.6324,5.6646,5.7401,5.8074,5.8781,5.9473,5.9858,6.0146,6.0358,6.0781,6.08,6.08,6.08,6.08,6.08,6.08,6.08,6.08,6.08,6.08,6.08,6.08,6.08,6.08,6.1133,6.1402,6.1691,6.2076,6.3326,6.4282,6.4801,6.5378,6.5513,6.5827,6.5884,6.5884,6.5884,6.5884,6.5884,6.5884,4.8202,4.8351,4.9125,4.9476,4.9572,5.0245,5.0495,5.0611,5.0572,5.0495,5.0572,5.0534,5.0611,5.0649,5.0553,5.0611,5.0688,5.0649,5.0553,5.0572,5.0688,5.0688,5.0688,5.0688,5.1087,5.1832,5.2678,5.3563,5.4357,5.5164,5.5689,5.5689,5.5689,5.5689,5.5689,5.5689,5.567,5.5593,5.5612,5.5612,5.5612,5.5612,5.5593,5.5593,5.4953,5.4549,5.4404,5.3683,5.3189,5.3067,5.2247,5.1648,5.1068,5.0842,5.1015,5.1092,5.1601,5.189,5.2159,5.2524,5.3068,5.328,5.3837,5.4549,5.4703,5.5208,5.5574,5.5689,5.5689,5.5689,5.5689,5.5843,5.6247,5.6997,5.7151,5.744,5.8242,5.8934,5.9281,5.9608,6.0281,6.0762,6.0666,6.0748,6.0781,6.08,6.08,6.08,6.08,6.08,6.08,6.08,6.08,6.08,6.08,6.08,6.0858,6.1287,6.1248,6.1479,6.196,6.2345,6.2999,6.4224,6.4974,6.5532,6.584,6.5878,6.5884,6.5884,6.5884,6.5884,6.5884,6.5884,6.5884,4.9413,5.0034,5.0265,5.0361,5.038,5.0635,5.0693,5.0693,5.0697,5.0707,5.0697,5.0688,5.0717,5.0693,5.0702,5.0688,5.0697,5.0702,5.0688,5.0688,5.0688,5.0688,5.0688,5.0707,5.1144,5.1962,5.2813,5.3645,5.4491,5.5324,5.5689,5.5689,5.5689,5.5689,5.5689,5.5689,5.5689,5.5689,5.5689,5.5689,5.5689,5.5689,5.5689,5.567,5.5478,5.5357,5.5381,5.5164,5.4395,5.3274,5.3029,5.2774,5.2472,5.2433,5.2375,5.2433,5.2664,5.2851,5.2909,5.3121,5.3505,5.4087,5.4395,5.4741,5.5357,5.5555,5.5689,5.5689,5.5689,5.5689,5.5785,5.6285,5.7247,5.8478,5.8319,5.8338,5.9011,5.9358,5.9723,6.0344,6.0666,6.0762,6.08,6.08,6.08,6.08,6.08,6.08,6.08,6.08,6.08,6.08,6.08,6.08,6.08,6.08,6.105,6.1691,6.1883,6.196,6.2576,6.3224,6.4185,6.5359,6.5397,6.5801,6.5859,6.5884,6.5884,6.5884,6.5884,6.5884,6.5884,6.5884,6.5884,5.0399,5.0863,5.0863,5.0863,5.0859,5.0863,5.0863,5.0863,5.0859,5.0883,5.0859,5.0863,5.0863,5.0859,5.0883,5.0883,5.0852,5.0805,5.0786,5.0769,5.0726,5.0693,5.0688,5.0707,5.1298,5.239,5.2953,5.3876,5.4881,5.5497,5.567,5.5689,5.5689,5.5689,5.5689,5.5689,5.5689,5.5689,5.5689,5.5689,5.5689,5.5689,5.5689,5.5689,5.5689,5.5689,5.5689,5.5689,5.5049,5.4049,5.3741,5.3606,5.3241,5.3197,5.3197,5.3197,5.351,5.3741,5.3818,5.403,5.4472,5.4881,5.5016,5.5228,5.5574,5.5689,5.5689,5.5689,5.5689,5.5689,5.5901,5.6786,5.8069,5.9146,5.9396,5.9531,6.0012,6.0069,6.0281,6.0646,6.08,6.08,6.08,6.08,6.08,6.08,6.08,6.08,6.08,6.08,6.08,6.08,6.08,6.08,6.0839,6.0864,6.1441,6.2076,6.3018,6.2999,6.3403,6.4128,6.4878,6.5686,6.5807,6.5884,6.5884,6.5884,6.5884,6.5884,6.5884,6.5884,6.5884,6.5884,6.5884,5.1091,5.1091,5.1091,5.1091,5.1079,5.1089,5.1063,5.1084,5.1066,5.1069,5.1066,5.1084,5.1053,5.1091,5.1039,5.1079,5.1088,5.0976,5.0932,5.0882,5.081,5.0744,5.073,5.0707,5.1592,5.2851,5.3178,5.4164,5.5208,5.567,5.5689,5.5689,5.5689,5.5689,5.5689,5.5689,5.5689,5.5689,5.5689,5.5689,5.5689,5.5689,5.5689,5.5689,5.5689,5.5689,5.5689,5.567,5.5318,5.465,5.4626,5.428,5.3626,5.351,5.3549,5.3722,5.428,5.4612,5.4708,5.5164,5.5574,5.5593,5.5612,5.5689,5.5689,5.5689,5.5689,5.5689,5.5689,5.5862,5.6415,5.755,5.8704,5.9646,6.0344,6.0685,6.08,6.08,6.08,6.08,6.08,6.08,6.08,6.08,6.08,6.08,6.08,6.08,6.08,6.08,6.08,6.08,6.08,6.08,6.0864,6.0941,6.1729,6.2557,6.3942,6.4461,6.4551,6.507,6.5513,6.5884,6.5884,6.5884,6.5884,6.5884,6.5884,6.5884,6.5884,6.5884,6.5884,6.5884,6.5884,5.1091,5.1091,5.1091,5.1091,5.1091,5.1091,5.1096,5.1101,5.1099,5.1115,5.1099,5.1099,5.1103,5.1103,5.1115,5.1091,5.1113,5.1069,5.1047,5.1028,5.0918,5.0856,5.0827,5.0779,5.1626,5.2804,5.3178,5.4087,5.528,5.5651,5.5689,5.5689,5.5689,5.5689,5.5689,5.5689,5.5689,5.5689,5.5689,5.5689,5.5689,5.5689,5.5689,5.5689,5.5689,5.5689,5.5689,5.5689,5.5612,5.5478,5.5381,5.5203,5.5011,5.5016,5.4997,5.5016,5.5184,5.5401,5.5472,5.5555,5.5689,5.5689,5.5689,5.5689,5.5689,5.5689,5.5689,5.5689,5.5728,5.6242,5.7434,5.8569,5.9492,6.0223,6.0627,6.08,6.08,6.08,6.08,6.08,6.08,6.08,6.08,6.08,6.08,6.08,6.08,6.08,6.08,6.08,6.08,6.08,6.08,6.0819,6.0998,6.1364,6.2403,6.3211,6.4519,6.5365,6.5455,6.5551,6.5801,6.5884,6.5884,6.5884,6.5884,6.5884,6.5884,6.5884,6.5884,6.5884,6.5884,6.5884,6.5884,5.1234,5.1234,5.1253,5.1253,5.1234,5.1233,5.1234,5.1253,5.1233,5.1233,5.1234,5.1233,5.1253,5.1252,5.1234,5.1235,5.1223,5.117,5.1124,5.1091,5.1005,5.0978,5.0988,5.1004,5.1547,5.255,5.3044,5.3972,5.4895,5.5502,5.5689,5.5689,5.5689,5.5689,5.5689,5.5689,5.5689,5.5689,5.5689,5.5689,5.5689,5.5689,5.5689,5.5689,5.5689,5.5689,5.5689,5.5689,5.5689,5.5689,5.5689,5.5689,5.5689,5.5689,5.5689,5.5689,5.5689,5.5689,5.5689,5.5689,5.5689,5.5689,5.5689,5.5689,5.5689,5.5689,5.5689,5.5689,5.5843,5.6395,5.8083,5.9031,5.9858,6.055,6.08,6.08,6.08,6.08,6.08,6.08,6.08,6.08,6.08,6.08,6.08,6.08,6.08,6.08,6.08,6.08,6.08,6.08,6.08,6.0877,6.1114,6.182,6.3108,6.4012,6.4993,6.5532,6.5724,6.5801,6.5884,6.5884,6.5884,6.5884,6.5884,6.5884,6.5884,6.5884,6.5884,6.5884,6.5884,6.5884,6.5884,5.1387,5.1387,5.1387,5.1387,5.1387,5.1387,5.1387,5.1387,5.1387,5.1367,5.1387,5.1387,5.1367,5.1387,5.1387,5.1387,5.1367,5.1294,5.1212,5.1165,5.1122,5.1105,5.1113,5.1139,5.1296,5.1874,5.2832,5.3783,5.4607,5.528,5.5719,5.571,5.5689,5.5689,5.5689,5.5689,5.5689,5.5689,5.5689,5.5689,5.5689,5.5689,5.5689,5.5689,5.5689,5.5689,5.5705,5.5717,5.5728,5.5695,5.5726,5.5721,5.5689,5.5689,5.5689,5.5689,5.5689,5.5689,5.5689,5.5689,5.5689,5.5689,5.5689,5.5689,5.5689,5.5689,5.5689,5.5862,5.6107,5.6953,5.8319,5.9338,6.005,6.0589,6.08,6.08,6.08,6.08,6.08,6.08,6.08,6.08,6.08,6.08,6.08,6.08,6.08,6.08,6.08,6.08,6.08,6.08,6.08,6.1512,6.1858,6.2127,6.3435,6.4609,6.5532,6.5667,6.5884,6.5884,6.5884,6.5884,6.5884,6.5884,6.5884,6.5884,6.5884,6.5884,6.5884,6.5884,6.5884,6.5884,6.5884,5.1387,5.1387,5.1387,5.1387,5.1387,5.1387,5.1387,5.1387,5.1387,5.1387,5.1387,5.1387,5.1387,5.1387,5.1387,5.1387,5.1387,5.1348,5.1328,5.1308,5.1248,5.1203,5.1175,5.1168,5.122,5.1645,5.2665,5.3828,5.461,5.5447,5.5687,5.5698,5.5689,5.5689,5.5716,5.5689,5.5724,5.5731,5.5705,5.5689,5.5689,5.5721,5.5738,5.5743,5.5768,5.5753,5.5749,5.5798,5.5816,5.5742,5.5802,5.5803,5.5764,5.5728,5.5731,5.5689,5.5689,5.5689,5.5689,5.5689,5.5689,5.5689,5.5689,5.5689,5.5689,5.5708,5.5747,5.617,5.7011,5.8204,5.9184,5.9935,6.0473,6.0781,6.08,6.08,6.08,6.08,6.08,6.08,6.08,6.08,6.08,6.08,6.08,6.08,6.08,6.08,6.08,6.08,6.08,6.08,6.08,6.18,6.2756,6.2968,6.3679,6.4974,6.5743,6.5743,6.5884,6.5884,6.5884,6.5884,6.5884,6.5884,6.5884,6.5884,6.5884,6.5884,6.5884,6.5884,6.5884,6.5884,6.5884,5.1387,5.1387,5.1387,5.1387,5.1387,5.1387,5.1387,5.1387,5.1387,5.1387,5.1387,5.1387,5.1387,5.1387,5.1387,5.1387,5.1387,5.1387,5.1387,5.1387,5.1342,5.1297,5.1289,5.1269,5.1267,5.1594,5.2546,5.3485,5.4152,5.4882,5.5406,5.574,5.5734,5.5733,5.5789,5.5738,5.5759,5.5789,5.5739,5.5705,5.5721,5.5769,5.5834,5.5942,5.5966,5.5978,5.5975,5.6008,5.6037,5.6001,5.6029,5.6015,5.5978,5.5942,5.5885,5.5753,5.5705,5.5695,5.5689,5.5689,5.5689,5.5689,5.5689,5.5689,5.5689,5.5728,5.592,5.6574,5.7376,5.8646,5.9396,6.03,6.0704,6.08,6.08,6.08,6.08,6.08,6.08,6.08,6.08,6.08,6.08,6.08,6.08,6.08,6.08,6.08,6.08,6.08,6.08,6.08,6.0877,6.1781,6.2814,6.3256,6.3929,6.5224,6.5884,6.5884,6.5884,6.5884,6.5884,6.5884,6.5884,6.5884,6.5884,6.5884,6.5884,6.5884,6.5884,6.5884,6.5884,6.5884,6.5884,5.1387,5.1387,5.1387,5.1387,5.1387,5.1387,5.1387,5.1387,5.1387,5.1387,5.1387,5.1387,5.1387,5.1387,5.1387,5.1387,5.1387,5.1387,5.1387,5.1387,5.1387,5.1387,5.1387,5.1387,5.1387,5.1484,5.1973,5.2773,5.3425,5.4165,5.4927,5.5378,5.5559,5.5738,5.5881,5.59,5.5894,5.5889,5.5874,5.5798,5.5826,5.5919,5.6031,5.6195,5.6211,5.6197,5.6178,5.621,5.6222,5.6189,5.6202,5.6234,5.6216,5.6211,5.609,5.5868,5.5793,5.5734,5.5729,5.5695,5.5689,5.5689,5.5689,5.5689,5.5805,5.5978,5.6362,5.719,5.8069,5.8973,5.98,6.0396,6.0723,6.08,6.08,6.08,6.08,6.08,6.08,6.08,6.08,6.08,6.08,6.08,6.08,6.08,6.08,6.08,6.08,6.08,6.08,6.08,6.105,6.1781,6.2564,6.3218,6.4141,6.5474,6.5859,6.5884,6.5884,6.5884,6.5884,6.5884,6.5884,6.5884,6.5884,6.5884,6.5884,6.5884,6.5884,6.5884,6.5884,6.5884,6.5884,5.1387,5.1387,5.1387,5.1387,5.1387,5.1387,5.1387,5.1387,5.1387,5.1387,5.1387,5.1387,5.1387,5.1387,5.1387,5.1387,5.1387,5.1387,5.1387,5.1387,5.1387,5.1387,5.1387,5.1387,5.1387,5.1426,5.1562,5.1953,5.2654,5.3479,5.4266,5.4841,5.5125,5.5324,5.5916,5.6036,5.6149,5.6158,5.6138,5.6122,5.6112,5.6152,5.6164,5.621,5.6239,5.6249,5.6273,5.6322,5.6351,5.6244,5.6326,5.6315,5.6239,5.6211,5.6186,5.6107,5.6008,5.5878,5.5861,5.5779,5.5717,5.5717,5.5705,5.5689,5.5843,5.6401,5.7055,5.8069,5.8838,5.9588,6.0262,6.0666,6.08,6.08,6.08,6.08,6.08,6.08,6.08,6.08,6.08,6.08,6.08,6.08,6.08,6.08,6.08,6.08,6.08,6.08,6.08,6.08,6.1204,6.1935,6.2756,6.3333,6.4314,6.5686,6.584,6.5884,6.5884,6.5884,6.5884,6.5884,6.5884,6.5884,6.5884,6.5884,6.5884,6.5884,6.5884,6.5884,6.5884,6.5884,6.5884,5.1387,5.1387,5.1387,5.1387,5.1387,5.1387,5.1387,5.1387,5.1387,5.1387,5.1387,5.1387,5.1387,5.1387,5.1387,5.1387,5.1387,5.1387,5.1387,5.1387,5.1387,5.1387,5.1387,5.1387,5.1387,5.1387,5.1406,5.1523,5.2096,5.2692,5.3472,5.4225,5.4694,5.5076,5.5693,5.6016,5.6188,5.6256,5.6261,5.6235,5.6297,5.6319,5.634,5.6406,5.6406,5.6406,5.6426,5.6461,5.6488,5.6429,5.6489,5.6507,5.6451,5.6426,5.6405,5.642,5.6285,5.6169,5.6068,5.5903,5.5815,5.5774,5.5749,5.5689,5.5882,5.6536,5.7401,5.8223,5.9031,5.9858,6.0594,6.0781,6.08,6.0787,6.0804,6.081,6.081,6.0787,6.08,6.08,6.08,6.08,6.08,6.08,6.08,6.08,6.08,6.08,6.08,6.08,6.08,6.08,6.1377,6.2095,6.2974,6.3756,6.457,6.5609,6.5859,6.5884,6.5884,6.5884,6.5884,6.5884,6.5884,6.5884,6.5884,6.5884,6.5884,6.5884,6.5884,6.5884,6.5884,6.5884,6.5884,5.1387,5.1387,5.1387,5.1387,5.1387,5.1387,5.1387,5.1387,5.1387,5.1387,5.1387,5.1387,5.1387,5.1387,5.1387,5.1387,5.1387,5.1387,5.1387,5.1387,5.1387,5.1387,5.1387,5.1387,5.1387,5.1387,5.1387,5.1445,5.1582,5.202,5.2667,5.352,5.3918,5.4616,5.5199,5.5639,5.6007,5.6427,5.6374,5.6377,5.6447,5.6433,5.6511,5.6562,5.6601,5.6621,5.6621,5.6601,5.6601,5.6582,5.6582,5.6582,5.6562,5.6562,5.6562,5.6543,5.6459,5.6391,5.6277,5.6116,5.5973,5.5874,5.5784,5.5708,5.5843,5.6613,5.7497,5.828,5.9377,6.0108,6.0614,6.08,6.0817,6.0817,6.0811,6.0817,6.0823,6.0831,6.081,6.08,6.08,6.08,6.08,6.08,6.08,6.08,6.08,6.08,6.08,6.08,6.08,6.0819,6.1537,6.2249,6.3089,6.4006,6.4878,6.5532,6.5782,6.5884,6.5884,6.5884,6.5884,6.5884,6.5884,6.5884,6.5884,6.5884,6.5884,6.5884,6.5884,6.5884,6.5884,6.5884,6.5884,5.1387,5.1387,5.1387,5.1387,5.1387,5.1387,5.1387,5.1387,5.1387,5.1387,5.1387,5.1387,5.1387,5.1387,5.1387,5.1387,5.1387,5.1387,5.1387,5.1387,5.1387,5.1387,5.1387,5.1387,5.1387,5.1387,5.1387,5.1387,5.1406,5.1523,5.2109,5.2715,5.3105,5.3984,5.4726,5.5254,5.5898,5.6367,5.6523,5.6543,5.6562,5.6582,5.6582,5.6601,5.6621,5.6621,5.6621,5.6621,5.6621,5.6621,5.6621,5.6621,5.6621,5.6621,5.6621,5.6601,5.6582,5.6543,5.6465,5.6291,5.6103,5.5936,5.5831,5.5749,5.5801,5.7308,5.8138,5.844,5.9608,6.0454,6.0742,6.0804,6.085,6.0884,6.09,6.0935,6.0924,6.0864,6.0845,6.081,6.08,6.08,6.08,6.08,6.08,6.08,6.08,6.08,6.08,6.08,6.08,6.0973,6.1691,6.2422,6.3179,6.4102,6.5147,6.5609,6.5846,6.5884,6.5884,6.5884,6.5884,6.5884,6.5884,6.5884,6.5884,6.5884,6.5884,6.5884,6.5884,6.5884,6.5884,6.5884,6.5884,5.1387,5.1387,5.1387,5.1387,5.1387,5.1387,5.1387,5.1387,5.1387,5.1387,5.1387,5.1387,5.1387,5.1387,5.1387,5.1387,5.1387,5.1387,5.1387,5.1387,5.1387,5.1387,5.1387,5.1387,5.1387,5.1387,5.1387,5.1387,5.1387,5.1387,5.1523,5.1953,5.2402,5.2949,5.375,5.4824,5.5742,5.6328,5.6601,5.6621,5.6621,5.6621,5.6621,5.6621,5.6621,5.6621,5.6621,5.6621,5.6621,5.6621,5.6621,5.6621,5.6621,5.6621,5.6621,5.6621,5.6621,5.6621,5.6582,5.6424,5.6258,5.6118,5.6033,5.5947,5.5926,5.7424,5.8189,5.8858,5.9817,6.0744,6.08,6.0798,6.0839,6.094,6.1008,6.1042,6.1047,6.1015,6.091,6.0899,6.0834,6.08,6.08,6.08,6.08,6.08,6.08,6.08,6.08,6.08,6.08,6.1185,6.1903,6.2531,6.3275,6.4339,6.5436,6.5686,6.5884,6.5884,6.5884,6.5884,6.5884,6.5884,6.5884,6.5884,6.5884,6.5884,6.5884,6.5884,6.5884,6.5884,6.5884,6.5884,6.5884,5.1387,5.1387,5.1387,5.1387,5.1387,5.1387,5.1387,5.1387,5.1387,5.1387,5.1387,5.1387,5.1387,5.1387,5.1387,5.1387,5.1387,5.1387,5.1387,5.1387,5.1387,5.1387,5.1387,5.1387,5.1387,5.1387,5.1387,5.1387,5.1387,5.1387,5.1445,5.1641,5.1973,5.2363,5.3164,5.4355,5.5605,5.6074,5.6504,5.6601,5.6621,5.6621,5.6621,5.6621,5.6621,5.6621,5.6621,5.6621,5.6621,5.6621,5.6621,5.6621,5.6621,5.6621,5.6621,5.6621,5.6621,5.6621,5.6582,5.6482,5.6368,5.626,5.6189,5.6071,5.6381,5.749,5.8413,5.8484,5.9785,6.085,6.0836,6.0839,6.0974,6.1077,6.1124,6.1161,6.1234,6.122,6.1066,6.097,6.091,6.0864,6.0812,6.0812,6.0812,6.0812,6.08,6.08,6.08,6.08,6.08,6.1358,6.2166,6.2762,6.3372,6.4589,6.5647,6.5724,6.5884,6.5884,6.5884,6.5884,6.5884,6.5884,6.5884,6.5884,6.5884,6.5884,6.5884,6.5884,6.5884,6.5884,6.5884,6.5884,6.5884,5.1387,5.1387,5.1387,5.1387,5.1387,5.1387,5.1387,5.1387,5.1387,5.1387,5.1387,5.1387,5.1387,5.1387,5.1387,5.1387,5.1387,5.1387,5.1387,5.1387,5.1387,5.1387,5.1387,5.1387,5.1387,5.1387,5.1387,5.1387,5.1387,5.1387,5.1387,5.1387,5.1601,5.1992,5.2793,5.4414,5.5254,5.5449,5.6211,5.6543,5.6621,5.6621,5.6621,5.6621,5.6621,5.6621,5.6621,5.6621,5.6621,5.6621,5.6621,5.6621,5.6621,5.6621,5.6621,5.6621,5.6621,5.6621,5.6601,5.6484,5.6419,5.6387,5.6328,5.6188,5.6375,5.7439,5.8586,5.8558,5.9944,6.0799,6.0905,6.0935,6.11,6.1193,6.1234,6.1306,6.1383,6.1373,6.1232,6.1147,6.1045,6.0959,6.0874,6.0829,6.0823,6.0818,6.0806,6.08,6.08,6.08,6.08,6.1339,6.2166,6.2852,6.3564,6.4955,6.582,6.5878,6.5884,6.5884,6.5884,6.5884,6.5884,6.5884,6.5884,6.5884,6.5884,6.5884,6.5884,6.5884,6.5884,6.5884,6.5884,6.5884,6.5884,5.1387,5.1387,5.1387,5.1387,5.1387,5.1387,5.1387,5.1387,5.1387,5.1387,5.1387,5.1387,5.1387,5.1387,5.1387,5.1387,5.1387,5.1387,5.1387,5.1387,5.1387,5.1387,5.1387,5.1387,5.1387,5.1387,5.1387,5.1387,5.1387,5.1387,5.1387,5.1387,5.1445,5.1894,5.2754,5.3926,5.4629,5.5332,5.6094,5.6621,5.6601,5.6621,5.6621,5.6621,5.6621,5.6621,5.6621,5.6621,5.6621,5.6621,5.6621,5.6621,5.6621,5.6621,5.6621,5.6621,5.6621,5.6621,5.6601,5.6539,5.6537,5.6504,5.6465,5.6367,5.6437,5.7842,5.8468,5.8985,6.0203,6.088,6.1003,6.1109,6.1243,6.1283,6.1347,6.1475,6.1547,6.1474,6.1383,6.1349,6.1284,6.1112,6.0996,6.0899,6.0876,6.0831,6.0802,6.0793,6.08,6.08,6.0819,6.1339,6.2031,6.2814,6.3756,6.4993,6.5763,6.5884,6.5884,6.5884,6.5884,6.5884,6.5884,6.5884,6.5884,6.5884,6.5884,6.5884,6.5884,6.5884,6.5884,6.5884,6.5884,6.5884,6.5884,5.1387,5.1387,5.1387,5.1387,5.1387,5.1387,5.1387,5.1387,5.1387,5.1387,5.1387,5.1387,5.1387,5.1387,5.1387,5.1387,5.1387,5.1387,5.1387,5.1387,5.1387,5.1387,5.1387,5.1387,5.1387,5.1387,5.1387,5.1387,5.1387,5.1387,5.1387,5.1387,5.1406,5.168,5.2363,5.3086,5.3945,5.4746,5.5527,5.6269,5.6465,5.6621,5.6621,5.6621,5.6621,5.6621,5.6621,5.6621,5.6621,5.6621,5.6621,5.6621,5.6621,5.6621,5.6621,5.6621,5.6621,5.6621,5.6601,5.6601,5.6582,5.6582,5.6621,5.6543,5.6747,5.8029,5.8577,5.9253,6.0453,6.0941,6.1167,6.1317,6.1357,6.1387,6.147,6.1609,6.164,6.1562,6.1516,6.1498,6.1446,6.1284,6.1123,6.1023,6.0954,6.0894,6.0823,6.0802,6.08,6.08,6.0839,6.1262,6.1993,6.2891,6.3833,6.4916,6.5532,6.5846,6.5884,6.5884,6.5884,6.5884,6.5884,6.5884,6.5884,6.5884,6.5884,6.5884,6.5884,6.5884,6.5884,6.5884,6.5884,6.5884,6.5884,5.1387,5.1387,5.1387,5.1387,5.1387,5.1387,5.1387,5.1387,5.1387,5.1387,5.1387,5.1387,5.1387,5.1387,5.1387,5.1387,5.1387,5.1387,5.1387,5.1387,5.1387,5.1387,5.1387,5.1387,5.1387,5.1387,5.1387,5.1387,5.1387,5.1387,5.1387,5.1387,5.1387,5.1523,5.1855,5.2305,5.3223,5.418,5.5098,5.5898,5.6426,5.6621,5.6621,5.6621,5.6621,5.6621,5.6621,5.6621,5.6621,5.6621,5.6621,5.6621,5.6621,5.6621,5.6621,5.6621,5.6621,5.6621,5.6621,5.6621,5.6621,5.6621,5.6621,5.6523,5.6956,5.8016,5.8778,5.9427,6.0384,6.0939,6.1366,6.143,6.1499,6.1546,6.1606,6.166,6.1699,6.166,6.1621,6.1578,6.1543,6.1424,6.129,6.1181,6.1065,6.0925,6.0871,6.0816,6.08,6.08,6.0858,6.105,6.1897,6.3006,6.3987,6.4897,6.5513,6.5884,6.5884,6.5884,6.5884,6.5884,6.5884,6.5884,6.5884,6.5884,6.5884,6.5884,6.5884,6.5884,6.5884,6.5884,6.5884,6.5884,6.5884,5.1387,5.1387,5.1387,5.1387,5.1387,5.1387,5.1387,5.1387,5.1387,5.1387,5.1387,5.1387,5.1387,5.1387,5.1387,5.1387,5.1387,5.1387,5.1387,5.1387,5.1387,5.1387,5.1387,5.1387,5.1387,5.1387,5.1387,5.1387,5.1387,5.1387,5.1387,5.1387,5.1387,5.1387,5.1484,5.168,5.2734,5.3808,5.4785,5.5664,5.6348,5.6601,5.6621,5.6621,5.6621,5.6621,5.6621,5.6621,5.6621,5.6621,5.6621,5.6621,5.6621,5.6621,5.6621,5.6621,5.6621,5.6621,5.6621,5.6621,5.6621,5.6621,5.6621,5.6582,5.7029,5.789,5.9004,5.959,6.039,6.1067,6.1439,6.1542,6.1555,6.1583,6.164,6.168,6.1699,6.1699,6.166,6.164,6.1621,6.1574,6.1426,6.1323,6.1184,6.1042,6.092,6.085,6.08,6.08,6.0819,6.1012,6.1973,6.3141,6.3891,6.4762,6.5397,6.5884,6.5884,6.5884,6.5884,6.5884,6.5884,6.5884,6.5884,6.5884,6.5884,6.5884,6.5884,6.5884,6.5884,6.5884,6.5884,6.5884,6.5884,5.1387,5.1387,5.1387,5.1387,5.1387,5.1387,5.1387,5.1387,5.1387,5.1387,5.1387,5.1387,5.1387,5.1387,5.1387,5.1387,5.1387,5.1387,5.1387,5.1387,5.1387,5.1387,5.1387,5.1387,5.1387,5.1387,5.1387,5.1387,5.1387,5.1387,5.1387,5.1387,5.1387,5.1387,5.1426,5.1582,5.2441,5.3555,5.459,5.5488,5.6152,5.6621,5.6621,5.6621,5.6621,5.6621,5.6621,5.6621,5.6621,5.6621,5.6621,5.6621,5.6621,5.6621,5.6621,5.6621,5.6621,5.6621,5.6621,5.6621,5.6621,5.6621,5.6621,5.6601,5.6992,5.7734,5.8574,5.9316,6.0371,6.1249,6.1461,6.1634,6.161,6.1585,6.164,6.1699,6.1699,6.1699,6.1699,6.1699,6.168,6.166,6.1574,6.1448,6.1323,6.1176,6.1003,6.0878,6.0817,6.08,6.08,6.0877,6.207,6.3333,6.3974,6.4589,6.5359,6.5846,6.5884,6.5884,6.5884,6.5884,6.5884,6.5884,6.5884,6.5884,6.5884,6.5884,6.5884,6.5884,6.5884,6.5884,6.5884,6.5884,6.5884,5.1211,5.1094,5.119,5.1074,5.1269,5.1211,5.1269,5.1386,5.1387,5.1387,5.1387,5.1387,5.1387,5.1387,5.1387,5.1387,5.1387,5.1387,5.1387,5.1387,5.1387,5.1387,5.1387,5.1387,5.1387,5.1387,5.1387,5.1387,5.1387,5.1387,5.1387,5.1387,5.1387,5.1387,5.1387,5.1641,5.2539,5.375,5.4473,5.5176,5.623,5.6621,5.6621,5.6621,5.6621,5.6621,5.6621,5.6621,5.6621,5.6621,5.6621,5.6621,5.6621,5.6621,5.6621,5.6621,5.6621,5.6621,5.6621,5.6621,5.6621,5.6621,5.6621,5.6621,5.6973,5.7578,5.8359,5.918,6.0215,6.1074,6.1445,6.1621,6.166,6.164,6.168,6.1699,6.1699,6.1699,6.1699,6.1699,6.1699,6.168,6.1636,6.1516,6.1398,6.1274,6.1105,6.094,6.0853,6.0804,6.08,6.0819,6.1897,6.3031,6.3679,6.4378,6.534,6.5788,6.5865,6.5884,6.5884,6.5884,6.5884,6.5884,6.5884,6.5884,6.5884,6.5884,6.5884,6.5884,6.5884,6.5884,6.5884,6.5884,6.5884,4.9785,4.9201,4.9203,4.957,5.0163,5.0292,5.0699,5.1246,5.1365,5.1387,5.1387,5.1387,5.1387,5.1387,5.1387,5.1387,5.1387,5.1387,5.1387,5.1387,5.1387,5.1387,5.1387,5.1387,5.1387,5.1387,5.1387,5.1387,5.1387,5.1387,5.1387,5.1387,5.1387,5.1387,5.1445,5.1836,5.2871,5.3965,5.4687,5.5351,5.6387,5.6621,5.6621,5.6621,5.6621,5.6621,5.6621,5.6621,5.6621,5.6621,5.6621,5.6621,5.6621,5.6621,5.6621,5.6621,5.6621,5.6621,5.6621,5.6621,5.6621,5.6621,5.6621,5.6621,5.6894,5.7519,5.8242,5.9082,5.9902,6.0703,6.1406,6.1582,6.1699,6.1699,6.1699,6.1699,6.1699,6.1699,6.1699,6.1699,6.1699,6.168,6.166,6.1584,6.1451,6.1287,6.1112,6.0968,6.086,6.081,6.0787,6.0935,6.1595,6.2557,6.3301,6.4185,6.5147,6.5731,6.5884,6.5884,6.5884,6.5884,6.5884,6.5884,6.5884,6.5884,6.5884,6.5884,6.5884,6.5884,6.5884,6.5884,6.5884,6.5884,6.5884,4.8933,4.8507,4.8487,4.9011,4.974,4.9872,5.0397,5.1109,5.1272,5.1344,5.1387,5.1387,5.1387,5.1387,5.1387,5.1387,5.1387,5.1387,5.1387,5.1387,5.1387,5.1387,5.1387,5.1387,5.1387,5.1387,5.1387,5.1387,5.1387,5.1387,5.1387,5.1387,5.1387,5.1426,5.1543,5.2285,5.3164,5.4004,5.4902,5.5742,5.6523,5.6621,5.6621,5.6621,5.6621,5.6621,5.6621,5.6621,5.6621,5.6621,5.6621,5.6621,5.6621,5.6621,5.6621,5.6621,5.6621,5.6621,5.6621,5.6621,5.6621,5.6621,5.6621,5.6621,5.6621,5.7226,5.7969,5.8769,5.9316,6.0098,6.125,6.1699,6.1699,6.1699,6.1699,6.1699,6.1699,6.1699,6.1699,6.1699,6.1699,6.1699,6.168,6.1679,6.1544,6.143,6.1223,6.1052,6.0949,6.0816,6.0793,6.0935,6.1537,6.232,6.3224,6.4064,6.4974,6.5436,6.5884,6.5884,6.5884,6.5884,6.5884,6.5884,6.5884,6.5884,6.5884,6.5884,6.5884,6.5884,6.5884,6.5884,6.5884,6.5884,6.5884,4.8214,4.8149,4.8086,4.8686,4.9486,4.9445,5.0084,5.1028,5.105,5.114,5.1339,5.1328,5.1365,5.1387,5.1387,5.1387,5.1387,5.1387,5.1387,5.1387,5.1387,5.1387,5.1387,5.1387,5.1387,5.1387,5.1387,5.1387,5.1387,5.1387,5.1387,5.1387,5.1426,5.1445,5.1777,5.2461,5.3418,5.4336,5.5176,5.5879,5.6308,5.6621,5.6621,5.6621,5.6621,5.6621,5.6621,5.6621,5.6621,5.6621,5.6621,5.6621,5.6621,5.6621,5.6621,5.6621,5.6621,5.6621,5.6621,5.6621,5.6621,5.6621,5.6621,5.6621,5.6621,5.6973,5.7695,5.8515,5.9062,5.9844,6.0996,6.1699,6.1699,6.1699,6.1699,6.1699,6.1699,6.1699,6.1699,6.1699,6.1699,6.1699,6.1699,6.1699,6.1632,6.1529,6.138,6.1211,6.1042,6.0887,6.0787,6.0896,6.1229,6.2108,6.3083,6.3775,6.457,6.5474,6.5884,6.5884,6.5884,6.5884,6.5884,6.5884,6.5884,6.5884,6.5884,6.5884,6.5884,6.5884,6.5884,6.5884,6.5884,6.5884,6.5884,4.6784,4.6136,4.6155,4.7024,4.8244,4.7898,4.8887,5.0648,5.0359,5.0451,5.1037,5.1181,5.123,5.1387,5.1387,5.1387,5.1387,5.1387,5.1387,5.1387,5.1387,5.1387,5.1387,5.1387,5.1387,5.1387,5.1387,5.1387,5.1387,5.1387,5.1426,5.1504,5.1465,5.1816,5.2578,5.3301,5.4141,5.4941,5.5644,5.6406,5.6426,5.6621,5.6621,5.6621,5.6621,5.6621,5.6621,5.6621,5.6621,5.6621,5.6621,5.6621,5.6621,5.6621,5.6621,5.6621,5.6621,5.6621,5.6621,5.6621,5.6621,5.6621,5.6621,5.6621,5.6621,5.6621,5.7558,5.8789,5.9433,6.0098,6.1055,6.1562,6.1699,6.1699,6.1699,6.1699,6.1699,6.1699,6.1699,6.1699,6.1699,6.1699,6.1699,6.1699,6.1656,6.1541,6.1402,6.1246,6.1089,6.0949,6.081,6.0916,6.1056,6.1973,6.2987,6.3295,6.4032,6.5089,6.5884,6.5884,6.5884,6.5884,6.5884,6.5884,6.5884,6.5884,6.5884,6.5884,6.5884,6.5884,6.5884,6.5884,6.5884,6.5884,6.5884]}]]